[[{"header":{"parameterUnit":"m.s-1","parameterCategory":1,"la1":31.0,"la2":29.5877,"lo1":-88.7671,"lo2":-86.6584,"dx":0.0162,"dy":0.0185,"nx":115,"ny":88,"refTime":"2022-11-27T18:00:00:Z","depth":0,"parameterNumber":2,"parameterNumberName":"U-component_of_WINDS"},"data":[0.0,0.0,0.0,0.0,0.0,0.0,0.0,0.0,0.0,0.0,0.0,0.0,0.0,0.0,0.0,0.0,0.0,0.0,0.0,0.0,0.0,0.0,0.0,0.0,0.0,0.0,0.0,0.0,0.0,0.0,0.0,0.0,0.0,0.0,0.0,0.0,0.0,0.0,0.0,0.0,0.0,0.0,0.0,0.0,0.0,0.0,0.0,0.0,0.0,0.0,0.0,0.0,0.0,0.0,0.0,0.0,0.0,0.0,0.0,0.0,0.0,0.0,0.0,0.0,0.0,0.0,0.0,0.0,0.0,0.0,0.0,0.0,0.0,0.0,0.0,0.0,0.0,0.0,0.0,0.0,0.0,0.0,0.0,0.0,0.0,0.0,0.0,0.0,0.0,0.0,0.0,0.0,0.0,0.0,0.0,0.0,0.0,0.0,0.0,0.0,0.0,0.0,0.0,0.0,0.0,0.0,0.0,0.0,0.0,0.0,0.0,0.0,0.0,0.0,0.0,0.0,0.0,0.0,0.0,0.0,0.0,0.0,0.0,0.0,0.0,0.0,0.0,0.0,0.0,0.0,0.0,0.0,0.0,0.0,0.0,0.0,0.0,0.0,0.0,0.0,0.0,0.0,0.0,0.0,0.0,0.0,0.0,0.0,0.0,0.0,0.0,0.0,0.0,0.0,0.0,0.0,0.0,0.0,0.0,0.0,0.0,0.0,0.0,0.0,0.0,0.0,0.0,0.0,0.0,0.0,0.0,0.0,0.0,0.0,0.0,0.0,0.0,0.0,0.0,0.0,0.0,0.0,0.0,0.0,0.0,0.0,0.0,0.0,0.0,0.0,0.0,0.0,0.0,0.0,0.0,0.0,0.0,0.0,0.0,0.0,0.0,0.0,0.0,0.0,0.0,0.0,0.0,0.0,0.0,0.0,0.0,0.0,0.0,0.0,0.0,0.0,0.0,0.0,0.0,0.0,0.0,0.0,0.0,0.0,0.0,0.0,0.0,0.0,0.0,0.0,0.0,0.0,0.0,0.0,0.0,0.0,0.0,0.0,0.0,0.0,0.0,0.0,0.0,0.0,0.0,0.0,0.0,0.0,0.0,0.0,0.0,0.0,0.0,0.0,0.0,0.0,0.0,0.0,0.0,0.0,0.0,0.0,0.0,0.0,0.0,0.0,0.0,0.0,0.0,0.0,0.0,0.0,0.0,0.0,0.0,0.0,0.0,0.0,0.0,0.0,0.0,0.0,0.0,0.0,0.0,0.0,0.0,0.0,0.0,0.0,0.0,0.0,0.0,0.0,0.0,0.0,0.0,0.0,0.0,0.0,0.0,0.0,0.0,0.0,0.0,0.0,0.0,0.0,0.0,0.0,0.0,0.0,0.0,0.0,0.0,0.0,0.0,0.0,0.0,0.0,0.0,0.0,0.0,0.0,0.0,0.0,0.0,0.0,0.0,0.0,0.0,0.0,0.0,0.0,0.0,0.0,0.0,0.0,0.0,0.0,0.0,0.0,0.0,0.0,0.0,0.0,0.0,0.0,0.0,0.0,0.0,0.0,0.0,0.0,0.0,0.0,0.0,0.0,0.0,0.0,0.0,0.0,0.0,0.0,0.0,0.0,0.0,0.0,0.0,0.0,0.0,0.0,0.0,0.0,0.0,0.0,0.0,0.0,0.0,0.0,0.0,0.0,0.0,0.0,0.0,0.0,0.0,0.0,0.0,0.0,0.0,0.0,0.0,0.0,0.0,0.0,0.0,0.0,0.0,0.0,0.0,0.0,0.0,0.0,0.0,0.0,0.0,0.0,0.0,0.0,0.0,0.0,0.0,0.0,0.0,0.0,0.0,0.0,0.0,0.0,0.0,0.0,0.0,0.0,0.0,0.0,0.0,0.0,0.0,0.0,0.0,0.0,0.0,0.0,0.0,0.0,0.0,0.0,0.0,0.0,0.0,0.0,0.0,0.0,0.0,0.0,0.0,0.0,0.0,0.0,0.0,0.0,0.0,0.0,0.0,0.0,0.0,0.0,0.0,0.0,0.0,0.0,0.0,0.0,0.0,0.0,0.0,0.0,0.0,0.0,0.0,0.0,0.0,0.0,0.0,0.0,0.0,0.0,0.0,0.0,0.0,0.0,0.0,0.0,0.0,0.0,0.0,0.0,0.0,0.0,0.0,0.0,0.0,0.0,0.0,0.0,0.0,0.0,0.0,0.0,0.0,0.0,0.0,0.0,0.0,0.0,0.0,0.0,0.0,0.0,0.0,0.0,0.0,0.0,0.0,0.0,0.0,0.0,0.0,0.0,0.0,0.0,0.0,0.0,0.0,0.0,0.0,0.0,0.0,0.0,0.0,0.0,0.0,0.0,0.0,0.0,0.0,0.0,0.0,0.0,0.0,0.0,0.0,0.0,0.0,0.0,0.0,0.0,0.0,0.0,0.0,0.0,0.0,0.0,0.0,0.0,0.0,0.0,0.0,0.0,0.0,0.0,0.0,0.0,0.0,0.0,0.0,0.0,0.0,0.0,0.0,0.0,0.0,0.0,0.0,0.0,0.0,0.0,0.0,0.0,0.0,0.0,0.0,0.0,0.0,0.0,0.0,0.0,0.0,0.0,0.0,0.0,0.0,0.0,0.0,0.0,0.0,0.0,0.0,0.0,0.0,0.0,0.0,0.0,0.0,0.0,0.0,0.0,0.0,0.0,0.0,0.0,0.0,0.0,0.0,0.0,0.0,0.0,0.0,0.0,0.0,0.0,0.0,0.0,0.0,0.0,0.0,0.0,0.0,0.0,0.0,0.0,0.0,0.0,0.0,0.0,0.0,0.0,0.0,0.0,0.0,0.0,0.0,0.0,0.0,0.0,0.0,0.0,0.0,0.0,0.0,0.0,0.0,0.0,0.0,0.0,0.0,0.0,0.0,0.0,0.0,0.0,0.0,0.0,0.0,0.0,0.0,0.0,0.0,0.0,0.0,0.0,0.0,0.0,0.0,0.0,0.0,0.0,0.0,0.0,0.0,0.0,0.0,0.0,0.0,0.0,0.0,0.0,0.0,0.0,0.0,0.0,0.0,0.0,0.0,0.0,0.0,0.0,0.0,0.0,0.0,0.0,0.0,0.0,0.0,0.0,0.0,0.0,0.0,0.0,0.0,0.0,0.0,0.0,0.0,0.0,0.0,0.0,0.0,0.0,0.0,0.0,0.0,0.0,0.0,0.0,0.0,0.0,0.0,0.0,0.0,0.0,0.0,0.0,0.0,0.0,0.0,0.0,0.0,0.0,0.0,0.0,0.0,0.0,0.0,0.0,0.0,0.0,0.0,0.0,0.0,0.0,0.0,0.0,0.0,0.0,0.0,0.0,0.0,0.0,0.0,0.0,0.0,0.0,0.0,0.0,0.0,0.0,0.0,0.0,0.0,0.0,0.0,0.0,0.0,0.0,0.0,0.0,0.0,0.0,0.0,0.0,0.0,0.0,0.0,0.0,0.0,0.0,0.0,0.0,0.0,0.0,0.0,0.0,0.0,0.0,0.0,0.0,0.0,0.0,0.0,0.0,0.0,0.0,0.0,0.0,0.0,0.0,0.0,0.0,0.0,0.0,0.0,0.0,0.0,0.0,0.0,0.0,0.0,0.0,0.0,0.0,0.0,0.0,0.0,0.0,0.0,0.0,0.0,0.0,0.0,0.0,0.0,0.0,0.0,0.0,0.0,0.0,0.0,0.0,0.0,0.0,0.0,0.0,0.0,0.0,0.0,0.0,0.0,0.0,0.0,0.0,0.0,0.0,0.0,0.0,0.0,0.0,0.0,0.0,0.0,0.0,0.0,0.0,0.0,0.0,0.0,0.0,0.0,0.0,0.0,0.0,0.0,0.0,0.0,0.0,0.0,0.0,0.0,0.0,0.0,0.0,0.0,0.0,0.0,0.0,0.0,0.0,0.0,0.0,0.0,0.0,0.0,0.0,0.0,0.0,0.0,0.0,0.0,0.0,0.0,0.0,0.0,0.0,0.0,0.0,0.0,0.0,0.0,0.0,0.0,0.0,0.0,0.0,0.0,0.0,0.0,0.0,0.0,0.0,0.0,0.0,0.0,0.0,0.0,0.0,0.0,0.0,0.0,0.0,0.0,0.0,0.0,0.0,0.0,0.0,0.0,0.0,0.0,0.0,0.0,0.0,0.0,0.0,0.0,0.0,0.0,0.0,0.0,0.0,0.0,0.0,0.0,0.0,0.0,0.0,0.0,0.0,0.0,0.0,0.0,0.0,-0.157,0.0,0.0,0.0,-0.4109,0.0,0.0,0.0,0.0,0.0,0.0,0.0,0.0,0.0,0.0,0.0,0.0,0.0,0.0,0.0,0.0,0.0,0.0,0.0,0.0,0.0,0.0,0.0,0.0,0.0,0.0,0.0,0.0,0.0,0.0,0.0,0.0,0.0,0.0,0.0,0.0,0.0,0.0,0.0,0.0,0.0,0.0,0.0,0.0,0.0,0.0,0.0,0.0,0.0,0.0,0.0,0.0,0.0,0.0,0.0,0.0,0.0,0.0,0.0,0.0,0.0,0.0,0.0,0.0,0.0,0.0,0.0,0.0,0.0,0.0,0.0,0.0,0.0,0.0,0.0,0.0,0.0,0.0,0.0,0.0,0.0,0.0,0.0,0.0,0.0,0.0,0.0,0.0,0.0,0.0,0.0,0.0,0.0,0.0,0.0,0.0,0.0,0.0,0.0,0.0,0.0,0.0,0.0,0.0,0.0,0.0,0.0,0.0,0.0,0.0,-0.1838,-0.339,-0.3827,-0.4079,-0.4169,0.0,0.0,0.0,0.0,0.0,0.0,0.0,0.0,0.0,0.0,0.0,0.0,0.0,0.0,0.0,0.0,0.0,0.0,0.0,0.0,0.0,0.0,0.0,0.0,0.0,0.0,0.0,0.0,0.0,0.0,0.0,0.0,0.0,0.0,0.0,0.0,0.0,0.0,0.0,0.0,0.0,0.0,0.0,0.0,0.0,0.0,0.0,0.0,0.0,0.0,0.0,0.0,0.0,0.0,0.0,0.0,0.0,0.0,0.0,0.0,0.0,0.0,0.0,0.0,0.0,0.0,0.0,0.0,0.0,0.0,0.0,0.0,0.0,0.0,0.0,0.0,0.0,0.0,0.0,0.0,0.0,0.0,0.0,0.0,0.0,0.0,0.0,0.0,0.0,0.0,0.0,0.0,0.0,0.0,0.0,0.0,0.0,0.0,0.0,0.0,0.0,0.0,0.0,0.0,0.0,0.0,0.0,0.0,0.0,0.0,0.0,0.0,-0.4112,-0.4093,-0.4172,0.0,0.0,0.0,0.0,0.0,0.0,0.0,0.0,0.0,0.0,0.0,0.0,0.0,0.0,0.0,0.0,0.0,0.0,0.0,0.0,0.0,0.0,0.0,0.0,0.0,0.0,0.0,0.0,0.0,0.0,0.0,0.0,0.0,0.0,0.0,0.0,0.0,0.0,0.0,0.0,0.0,0.0,0.0,0.0,0.0,0.0,0.0,0.0,0.0,0.0,0.0,0.0,0.0,0.0,0.0,0.0,0.0,0.0,0.0,0.0,0.0,0.0,0.0,0.0,0.0,0.0,0.0,0.0,0.0,0.0,0.0,0.0,0.0,0.0,0.0,0.0,0.0,0.0,0.0,0.0,0.0,0.0,0.0,0.0,0.0,0.0,0.0,0.0,0.0,0.0,0.0,0.0,0.0,0.0,0.0,0.0,0.0,0.0,0.0,0.0,0.0,0.0,0.0,0.0,0.0,0.0,0.0,0.0,0.0,0.0,-0.3068,-0.4218,-0.4153,0.0,-0.4184,0.0,0.0,0.0,0.0,0.0,0.0,0.0,0.0,0.0,0.0,0.0,0.0,0.0,0.0,0.0,0.0,0.0,0.0,0.0,0.0,0.0,0.0,0.0,0.0,0.0,0.0,0.0,0.0,0.0,0.0,0.0,0.0,0.0,0.0,0.0,0.0,0.0,0.0,0.0,0.0,0.0,0.0,0.0,0.0,0.0,0.0,0.0,0.0,0.0,0.0,0.0,0.0,0.0,0.0,0.0,0.0,0.0,0.0,0.0,0.0,0.0,0.0,0.0,0.0,0.0,0.0,0.0,0.0,0.0,0.0,0.0,0.0,0.0,0.0,0.0,0.0,0.0,0.0,0.0,0.0,0.0,0.0,0.0,0.0,0.0,0.0,0.0,0.0,0.0,0.0,0.0,0.0,0.0,0.0,0.0,0.0,0.0,0.0,0.0,0.0,0.0,0.0,0.0,0.0,0.0,0.0,0.0,0.0,0.0,0.0,-0.3208,-0.4218,-0.4191,-0.4538,0.0,0.0,0.0,0.0,0.0,0.0,0.0,0.0,0.0,0.0,0.0,0.0,0.0,0.0,0.0,0.0,0.0,0.0,0.0,0.0,0.0,0.0,0.0,0.0,0.0,0.0,0.0,0.0,0.0,0.0,0.0,0.0,0.0,0.0,0.0,0.0,0.0,0.0,0.0,0.0,0.0,0.0,0.0,0.0,0.0,0.0,0.0,0.0,0.0,0.0,0.0,0.0,0.0,0.0,0.0,0.0,0.0,0.0,0.0,0.0,0.0,0.0,0.0,0.0,0.0,0.0,0.0,0.0,0.0,0.0,0.0,0.0,0.0,0.0,0.0,0.0,0.0,0.0,0.0,0.0,0.0,0.0,0.0,0.0,0.0,0.0,0.0,0.0,0.0,0.0,0.0,0.0,0.0,0.0,0.0,0.0,0.0,0.0,0.0,0.0,0.0,0.0,0.0,0.0,0.0,0.0,0.0,0.0,0.0,0.0,-0.255,-0.3475,-0.4089,-0.4218,-0.4829,-0.601,0.0,0.0,0.0,0.0,0.0,0.0,0.0,0.0,0.0,0.0,0.0,0.0,0.0,0.0,0.0,0.0,0.0,0.0,0.0,0.0,0.0,0.0,0.0,0.0,0.0,0.0,0.0,0.0,0.0,0.0,0.0,0.0,0.0,0.0,0.0,0.0,0.0,0.0,0.0,0.0,0.0,0.0,0.0,0.0,0.0,0.0,0.0,0.0,0.0,0.0,0.0,0.0,0.0,0.0,0.0,0.0,0.0,0.0,0.0,0.0,0.0,0.0,0.0,0.0,0.0,0.0,0.0,0.0,0.0,0.0,0.0,0.0,0.0,0.0,0.0,0.0,0.0,0.0,0.0,0.0,0.0,0.0,0.0,0.0,0.0,0.0,0.0,0.0,0.0,0.0,0.0,0.0,0.0,0.0,0.0,0.0,0.0,0.0,0.0,0.0,0.0,0.0,0.0,0.0,0.0,0.0,0.0,0.0,-0.2506,-0.3606,-0.4275,-0.4218,-0.4215,-0.481,0.0,0.0,0.0,0.0,0.0,0.0,0.0,0.0,0.0,0.0,0.0,0.0,0.0,0.0,0.0,0.0,0.0,0.0,0.0,0.0,0.0,0.0,0.0,0.0,0.0,0.0,0.0,0.0,0.0,0.0,0.0,0.0,0.0,0.0,0.0,0.0,0.0,0.0,0.0,0.0,0.0,0.0,0.0,0.0,0.0,0.0,0.0,0.0,0.0,0.0,0.0,0.0,0.0,0.0,0.0,0.0,0.0,0.0,0.0,0.0,0.0,0.0,0.0,0.0,0.0,0.0,0.0,0.0,0.0,0.0,0.0,0.0,0.0,0.0,0.0,0.0,0.0,0.0,0.0,0.0,0.0,0.0,0.0,0.0,0.0,0.0,0.0,0.0,0.0,0.0,0.0,0.0,0.0,0.0,0.0,0.0,0.0,0.0,0.0,0.0,0.0,0.0,0.0,0.0,0.0,0.0,0.0,0.0,0.0,-0.2634,-0.3641,-0.4161,-0.421,-0.4142,-0.5114,0.0,0.0,0.0,0.0,0.0,0.0,0.0,0.0,0.0,0.0,0.0,0.0,0.0,0.0,0.0,0.0,0.0,0.0,0.0,0.0,0.0,0.0,0.0,0.0,0.0,0.0,0.0,0.0,0.0,0.0,0.0,0.0,0.0,0.0,0.0,0.0,0.0,0.0,0.0,0.0,0.0,0.0,0.0,0.0,0.0,0.0,0.0,0.0,0.0,0.0,0.0,0.0,0.0,0.0,0.0,0.0,0.0,0.0,0.0,0.0,0.0,0.0,0.0,0.0,0.0,0.0,0.0,0.0,0.0,0.0,0.0,0.0,0.0,0.0,0.0,0.0,0.0,0.0,0.0,0.0,0.0,0.0,0.0,0.0,0.0,0.0,0.0,0.0,0.0,0.0,0.0,0.0,0.0,0.0,0.0,0.0,0.0,0.0,0.0,0.0,0.0,0.0,0.0,0.0,0.0,0.0,0.0,0.0,0.0,-0.3204,-0.3801,-0.4183,-0.4237,-0.4532,-0.5743,0.0,0.0,0.0,0.0,0.0,0.0,0.0,0.0,0.0,0.0,0.0,0.0,0.0,0.0,0.0,0.0,0.0,0.0,0.0,0.0,0.0,0.0,0.0,0.0,0.0,0.0,0.0,0.0,0.0,0.0,0.0,0.0,0.0,0.0,0.0,0.0,0.0,0.0,0.0,0.0,0.0,0.0,0.0,0.0,0.0,0.0,0.0,0.0,0.0,0.0,0.0,0.0,0.0,0.0,0.0,0.0,0.0,0.0,0.0,0.0,0.0,0.0,0.0,0.0,0.0,0.0,0.0,0.0,0.0,0.0,0.0,0.0,0.0,0.0,0.0,0.0,0.0,0.0,0.0,0.0,0.0,0.0,0.0,0.0,0.0,0.0,0.0,0.0,0.0,0.0,0.0,0.0,0.0,0.0,0.0,0.0,0.0,0.0,0.0,0.0,0.0,0.0,0.0,0.0,0.0,0.0,0.0,0.0,-0.3251,-0.425,-0.4387,-0.4354,-0.4308,-0.5558,-0.6735,0.0,0.0,0.0,0.0,0.0,0.0,0.0,0.0,0.0,0.0,0.0,0.0,0.0,0.0,0.0,0.0,0.0,0.0,0.0,0.0,0.0,0.0,0.0,0.0,0.0,0.0,0.0,0.0,0.0,0.0,0.0,0.0,0.0,0.0,0.0,0.0,0.0,0.0,0.0,0.0,0.0,0.0,0.0,0.0,0.0,0.0,0.0,0.0,0.0,0.0,0.0,0.0,0.0,0.0,0.0,0.0,0.0,0.0,0.0,0.0,0.0,0.0,0.0,0.0,0.0,0.0,0.0,0.0,0.0,0.0,0.0,0.0,0.0,0.0,0.0,0.0,0.0,0.0,0.0,0.0,0.0,0.0,0.0,0.0,0.0,0.0,0.0,0.0,0.0,0.0,0.0,0.0,0.0,0.0,0.0,0.0,0.0,0.0,0.0,0.0,0.0,0.0,0.0,0.0,0.0,0.0,0.0,0.0,0.0,-0.4215,-0.4292,-0.4842,-0.5697,-0.6062,-0.7317,0.0,0.0,0.0,0.0,0.0,0.0,0.0,0.0,0.0,0.0,0.0,0.0,0.0,0.0,0.0,0.0,0.0,0.0,0.0,0.0,0.0,0.0,0.0,0.0,0.0,0.0,0.0,0.0,0.0,0.0,0.0,0.0,0.0,0.0,0.0,0.0,0.0,0.0,0.0,0.0,0.0,0.0,0.0,0.0,0.0,0.0,0.0,0.0,0.0,0.0,0.0,0.0,0.0,0.0,0.0,0.0,0.0,0.0,0.0,0.0,0.0,0.0,0.0,0.0,0.0,0.0,0.0,0.0,0.0,0.0,0.0,0.0,0.0,0.0,0.0,0.0,0.0,0.0,0.0,0.0,0.0,0.0,0.0,0.0,0.0,0.0,0.0,0.0,0.0,0.0,0.0,0.0,0.0,0.0,0.0,0.0,0.0,0.0,0.0,0.0,0.0,0.0,0.0,0.0,0.0,0.0,0.0,0.0,0.0,-0.595,-0.6126,-0.6586,-0.7397,-0.7754,-0.8744,-1.0344,0.0,0.0,0.0,0.0,0.0,0.0,0.0,0.0,0.0,0.0,0.0,0.0,0.0,0.0,0.0,0.0,0.0,0.0,0.0,0.0,0.0,0.0,0.0,0.0,0.0,0.0,0.0,0.0,0.0,0.0,0.0,0.0,0.0,0.0,0.0,0.0,0.0,0.0,0.0,0.0,0.0,0.0,0.0,0.0,0.0,0.0,0.0,0.0,0.0,0.0,0.0,0.0,0.0,0.0,0.0,0.0,0.0,0.0,0.0,0.0,0.0,0.0,0.0,0.0,0.0,0.0,0.0,0.0,0.0,0.0,0.0,0.0,0.0,0.0,0.0,0.0,0.0,0.0,0.0,0.0,0.0,0.0,0.0,0.0,0.0,0.0,0.0,0.0,0.0,0.0,0.0,0.0,0.0,0.0,0.0,0.0,0.0,0.0,0.0,0.0,0.0,0.0,0.0,0.0,0.0,0.0,0.0,0.0,-0.9166,-0.9389,-0.945,-0.9204,-1.0178,-1.0792,0.0,0.0,0.0,0.0,0.0,0.0,0.0,0.0,0.0,0.0,0.0,0.0,0.0,0.0,0.0,0.0,0.0,0.0,0.0,0.0,0.0,0.0,0.0,0.0,0.0,0.0,0.0,0.0,0.0,0.0,0.0,0.0,0.0,0.0,0.0,0.0,0.0,0.0,0.0,0.0,0.0,0.0,0.0,0.0,0.0,0.0,0.0,0.0,0.0,0.0,0.0,0.0,0.0,0.0,0.0,0.0,0.0,0.0,0.0,0.0,0.0,0.0,0.0,0.0,0.0,0.0,0.0,0.0,0.0,0.0,0.0,0.0,0.0,0.0,0.0,0.0,0.0,0.0,0.0,0.0,0.0,0.0,0.0,0.0,0.0,0.0,0.0,0.0,0.0,0.0,0.0,0.0,0.0,0.0,0.0,0.0,0.0,0.0,0.0,0.0,0.0,0.0,0.0,0.0,0.0,0.0,0.0,0.0,0.0,-1.0692,-1.1988,-1.2165,-1.0882,-1.0866,-1.1298,0.0,0.0,0.0,0.0,0.0,0.0,0.0,0.0,0.0,0.0,0.0,0.0,0.0,0.0,0.0,0.0,0.0,0.0,0.0,0.0,0.0,0.0,0.0,0.0,0.0,0.0,0.0,0.0,0.0,0.0,0.0,0.0,0.0,0.0,0.0,0.0,0.0,0.0,0.0,0.0,0.0,0.0,0.0,0.0,0.0,0.0,0.0,0.0,0.0,0.0,0.0,0.0,0.0,0.0,0.0,0.0,0.0,0.0,0.0,0.0,0.0,0.0,0.0,0.0,0.0,0.0,0.0,0.0,0.0,0.0,0.0,0.0,0.0,0.0,0.0,0.0,0.0,0.0,0.0,0.0,0.0,0.0,0.0,0.0,0.0,0.0,0.0,0.0,0.0,0.0,0.0,0.0,0.0,0.0,0.0,0.0,0.0,0.0,0.0,0.0,0.0,0.0,0.0,0.0,0.0,0.0,0.0,0.0,-1.015,-1.2462,-1.3365,-1.3373,-1.247,-1.2168,-1.2331,0.0,0.0,0.0,0.0,0.0,0.0,0.0,0.0,0.0,0.0,0.0,0.0,0.0,0.0,0.0,0.0,0.0,0.0,0.0,0.0,0.0,0.0,0.0,0.0,0.0,0.0,0.0,0.0,0.0,0.0,0.0,0.0,0.0,0.0,0.0,0.0,0.0,0.0,0.0,0.0,0.0,0.0,0.0,0.0,0.0,0.0,0.0,0.0,0.0,0.0,0.0,0.0,0.0,0.0,0.0,0.0,0.0,0.0,0.0,0.0,0.0,0.0,0.0,0.0,0.0,0.0,0.0,0.0,0.0,0.0,0.0,0.0,0.0,0.0,0.0,0.0,0.0,0.0,0.0,0.0,0.0,0.0,0.0,0.0,0.0,0.0,0.0,0.0,0.0,0.0,0.0,0.0,0.0,0.0,0.0,0.0,0.0,0.0,0.0,0.0,0.0,0.0,0.0,0.0,0.0,0.0,0.0,0.0,-1.0902,-1.3802,-1.3961,-1.3961,-1.3953,-1.3734,-1.3539,0.0,0.0,0.0,0.0,0.0,0.0,0.0,0.0,0.0,0.0,0.0,0.0,0.0,0.0,0.0,0.0,0.0,0.0,0.0,0.0,0.0,0.0,0.0,0.0,0.0,0.0,0.0,0.0,0.0,0.0,0.0,0.0,0.0,0.0,0.0,0.0,0.0,0.0,0.0,0.0,0.0,0.0,0.0,0.0,0.0,0.0,0.0,0.0,0.0,0.0,0.0,0.0,0.0,0.0,0.0,0.0,0.0,0.0,0.0,0.0,0.0,0.0,0.0,0.0,0.0,0.0,0.0,0.0,0.0,0.0,0.0,0.0,0.0,0.0,0.0,0.0,0.0,0.0,0.0,0.0,0.0,0.0,0.0,0.0,0.0,0.0,0.0,0.0,0.0,0.0,0.0,0.0,0.0,0.0,0.0,0.0,0.0,0.0,0.0,0.0,0.0,0.0,0.0,0.0,0.0,0.0,0.0,0.0,-1.2251,-1.4163,-1.4318,-1.4318,-1.4318,-1.3742,-1.3409,0.0,0.0,0.0,0.0,0.0,0.0,0.0,0.0,0.0,0.0,0.0,0.0,0.0,0.0,0.0,0.0,0.0,0.0,0.0,0.0,0.0,0.0,0.0,0.0,0.0,0.0,0.0,0.0,0.0,0.0,0.0,0.0,0.0,0.0,0.0,0.0,0.0,0.0,0.0,0.0,0.0,0.0,0.0,0.0,0.0,0.0,0.0,0.0,-3.1297,0.0,0.0,0.0,0.0,0.0,0.0,0.0,0.0,0.0,0.0,0.0,0.0,0.0,0.0,0.0,0.0,0.0,0.0,0.0,0.0,0.0,0.0,0.0,0.0,0.0,0.0,0.0,0.0,0.0,0.0,0.0,0.0,0.0,0.0,0.0,0.0,0.0,0.0,0.0,0.0,0.0,0.0,0.0,0.0,0.0,0.0,0.0,0.0,0.0,0.0,0.0,0.0,0.0,0.0,0.0,0.0,0.0,0.0,0.0,-1.2685,-1.4268,-1.4432,-1.4432,-1.4416,-1.4066,-1.375,0.0,0.0,0.0,0.0,0.0,0.0,0.0,0.0,0.0,0.0,0.0,0.0,0.0,0.0,0.0,0.0,0.0,0.0,0.0,0.0,0.0,0.0,0.0,0.0,0.0,0.0,0.0,0.0,0.0,0.0,0.0,0.0,0.0,0.0,0.0,0.0,0.0,0.0,0.0,0.0,0.0,0.0,0.0,0.0,0.0,0.0,0.0,0.0,0.0,0.0,0.0,0.0,0.0,0.0,0.0,0.0,0.0,0.0,0.0,0.0,0.0,0.0,0.0,0.0,0.0,0.0,0.0,0.0,0.0,0.0,0.0,0.0,0.0,0.0,0.0,0.0,0.0,0.0,0.0,0.0,0.0,0.0,0.0,0.0,0.0,0.0,0.0,0.0,0.0,0.0,0.0,0.0,0.0,0.0,0.0,0.0,0.0,0.0,0.0,0.0,0.0,0.0,0.0,0.0,0.0,0.0,0.0,-1.1411,-1.2971,-1.4356,-1.457,-1.4586,-1.4554,-1.4554,-1.4278,-1.3709,0.0,0.0,0.0,0.0,0.0,0.0,0.0,0.0,0.0,0.0,0.0,0.0,0.0,0.0,0.0,0.0,0.0,0.0,0.0,0.0,0.0,0.0,0.0,0.0,0.0,0.0,0.0,0.0,0.0,0.0,0.0,0.0,0.0,0.0,0.0,0.0,0.0,0.0,-2.856,-2.8894,0.0,0.0,0.0,0.0,0.0,0.0,0.0,0.0,-3.0036,0.0,0.0,0.0,0.0,0.0,0.0,0.0,0.0,0.0,0.0,0.0,0.0,0.0,0.0,0.0,0.0,0.0,0.0,0.0,0.0,0.0,0.0,0.0,0.0,0.0,0.0,0.0,0.0,0.0,0.0,0.0,0.0,0.0,0.0,0.0,0.0,0.0,0.0,0.0,0.0,0.0,0.0,0.0,0.0,0.0,0.0,0.0,0.0,0.0,0.0,0.0,0.0,0.0,0.0,0.0,0.0,-1.0824,-1.2729,-1.4097,-1.4871,-1.5179,-1.526,-1.5114,-1.5106,-1.4716,-1.3912,0.0,0.0,0.0,0.0,0.0,0.0,0.0,0.0,0.0,0.0,0.0,0.0,0.0,0.0,0.0,0.0,0.0,0.0,0.0,0.0,0.0,0.0,0.0,0.0,0.0,0.0,0.0,0.0,0.0,0.0,0.0,0.0,0.0,0.0,0.0,0.0,0.0,0.0,0.0,-2.8765,-2.8539,0.0,0.0,0.0,0.0,0.0,0.0,0.0,0.0,-3.0944,0.0,0.0,0.0,0.0,0.0,0.0,0.0,0.0,0.0,0.0,0.0,0.0,0.0,0.0,0.0,0.0,0.0,0.0,0.0,0.0,0.0,0.0,0.0,0.0,0.0,0.0,0.0,0.0,0.0,0.0,0.0,0.0,0.0,0.0,0.0,0.0,0.0,0.0,0.0,0.0,0.0,0.0,0.0,0.0,0.0,0.0,0.0,0.0,0.0,0.0,0.0,0.0,0.0,0.0,0.0,-1.1051,-1.3167,-1.4364,-1.4692,-1.496,-1.5057,-1.4968,-1.5049,-1.4724,0.0,0.0,0.0,0.0,0.0,0.0,0.0,0.0,0.0,0.0,0.0,0.0,0.0,0.0,0.0,0.0,0.0,0.0,0.0,0.0,0.0,0.0,0.0,0.0,0.0,0.0,0.0,0.0,0.0,0.0,0.0,0.0,0.0,0.0,0.0,0.0,0.0,0.0,0.0,0.0,-2.8611,-2.8518,-2.9573,0.0,0.0,0.0,0.0,0.0,0.0,-2.8918,-2.999,0.0,0.0,0.0,0.0,0.0,0.0,0.0,0.0,0.0,0.0,0.0,0.0,0.0,0.0,0.0,0.0,0.0,0.0,0.0,0.0,0.0,0.0,0.0,0.0,0.0,0.0,0.0,0.0,0.0,0.0,0.0,0.0,0.0,0.0,0.0,0.0,0.0,0.0,0.0,0.0,0.0,0.0,0.0,0.0,0.0,0.0,0.0,0.0,0.0,0.0,0.0,0.0,0.0,0.0,0.0,-1.0825,-1.3137,-1.4316,-1.4538,-1.4757,-1.4838,-1.4765,-1.4927,-1.4651,0.0,0.0,0.0,0.0,0.0,0.0,0.0,0.0,0.0,0.0,0.0,0.0,0.0,0.0,0.0,0.0,0.0,0.0,0.0,0.0,0.0,0.0,0.0,0.0,0.0,0.0,0.0,0.0,0.0,0.0,0.0,0.0,0.0,0.0,0.0,0.0,0.0,0.0,0.0,0.0,0.0,-2.9002,-2.9923,-2.9505,0.0,0.0,0.0,0.0,-2.8797,-2.9125,0.0,0.0,0.0,0.0,0.0,0.0,0.0,0.0,0.0,0.0,0.0,0.0,0.0,0.0,0.0,0.0,0.0,0.0,0.0,0.0,0.0,0.0,0.0,0.0,0.0,0.0,0.0,0.0,0.0,0.0,0.0,0.0,0.0,0.0,0.0,0.0,0.0,0.0,0.0,0.0,0.0,0.0,0.0,0.0,0.0,0.0,0.0,0.0,0.0,0.0,0.0,0.0,0.0,0.0,0.0,0.0,-1.0524,-1.2838,-1.4287,-1.4903,-1.5244,-1.5268,-1.4952,-1.5114,-1.4724,0.0,0.0,0.0,0.0,0.0,0.0,0.0,0.0,0.0,0.0,0.0,0.0,0.0,0.0,0.0,0.0,0.0,0.0,0.0,0.0,0.0,0.0,0.0,0.0,0.0,0.0,0.0,0.0,0.0,0.0,0.0,0.0,0.0,0.0,0.0,0.0,0.0,0.0,0.0,0.0,0.0,-3.0298,-3.0073,-3.0306,-3.0493,0.0,0.0,-3.0866,-3.0456,-3.1191,0.0,0.0,0.0,0.0,0.0,0.0,0.0,0.0,0.0,0.0,0.0,0.0,0.0,0.0,0.0,0.0,0.0,0.0,0.0,0.0,0.0,0.0,0.0,0.0,0.0,0.0,0.0,0.0,0.0,0.0,0.0,0.0,0.0,0.0,0.0,0.0,0.0,0.0,0.0,0.0,0.0,0.0,0.0,0.0,0.0,0.0,0.0,0.0,0.0,0.0,0.0,0.0,0.0,0.0,0.0,-0.9763,-1.1664,-1.3191,-1.4703,-1.5993,-1.6277,-1.6797,-1.751,-1.7606,-1.7231,0.0,0.0,0.0,0.0,0.0,0.0,0.0,0.0,0.0,0.0,0.0,0.0,0.0,0.0,0.0,0.0,0.0,0.0,0.0,0.0,0.0,0.0,0.0,0.0,0.0,0.0,0.0,0.0,0.0,0.0,0.0,0.0,0.0,0.0,0.0,0.0,0.0,0.0,0.0,0.0,0.0,0.0,-3.1702,-3.0822,0.0,0.0,0.0,-3.1133,-3.0698,0.0,0.0,0.0,0.0,0.0,0.0,0.0,0.0,0.0,0.0,0.0,0.0,0.0,0.0,0.0,0.0,0.0,0.0,0.0,0.0,0.0,0.0,0.0,0.0,0.0,0.0,0.0,0.0,0.0,0.0,0.0,0.0,0.0,0.0,0.0,0.0,0.0,0.0,0.0,0.0,0.0,0.0,0.0,0.0,0.0,0.0,0.0,0.0,0.0,0.0,0.0,0.0,0.0,0.0,0.0,0.0,0.0,-1.3138,-1.4669,-1.6141,-1.7359,-1.7524,-1.817,-1.9445,-1.9456,0.0,0.0,0.0,0.0,0.0,0.0,0.0,0.0,0.0,0.0,0.0,0.0,0.0,0.0,0.0,0.0,0.0,0.0,0.0,0.0,0.0,0.0,0.0,0.0,0.0,0.0,0.0,-2.6876,0.0,0.0,0.0,0.0,0.0,0.0,0.0,0.0,0.0,0.0,0.0,0.0,0.0,0.0,-3.1672,-3.2841,-3.1429,-3.1206,0.0,0.0,-3.1458,-3.1318,-3.2213,-3.2352,0.0,0.0,0.0,0.0,0.0,0.0,0.0,0.0,0.0,0.0,0.0,0.0,0.0,0.0,0.0,0.0,0.0,0.0,0.0,0.0,0.0,0.0,0.0,0.0,0.0,0.0,0.0,0.0,0.9212,0.0,0.0,0.0,0.0,0.0,0.0,0.0,0.0,0.0,0.0,0.0,0.0,0.0,0.0,0.0,0.0,0.0,0.0,0.0,0.0,0.0,0.0,0.0,0.0,0.0,-1.3356,-1.4574,-1.7156,-1.8628,-1.9005,-1.9036,-1.9233,-1.9456,-1.9456,-1.9025,0.0,0.0,0.0,0.0,0.0,0.0,0.0,0.0,0.0,0.0,0.0,0.0,0.0,0.0,0.0,0.0,0.0,0.0,0.0,0.0,0.0,0.0,0.0,0.0,0.0,0.0,0.0,0.0,0.0,0.0,0.0,0.0,0.0,0.0,0.0,0.0,0.0,0.0,0.0,0.0,0.0,-3.1248,-3.2432,-3.2504,-3.2832,0.0,-3.3262,-3.257,-3.2955,-3.3704,-3.3199,-3.0107,0.0,0.0,0.0,0.0,0.0,0.0,0.0,0.0,0.0,0.0,0.0,0.0,0.0,0.0,0.0,0.0,0.0,0.0,0.0,0.0,0.0,0.0,0.0,0.0,0.0,0.9488,0.8591,0.0,0.7006,0.0,0.0,0.0,0.0,0.0,0.0,0.0,0.0,0.0,0.0,0.0,0.0,0.0,0.0,0.0,0.0,0.0,0.0,0.0,0.0,0.0,0.0,0.0,0.0,-1.3989,-1.4725,-1.7204,-1.9127,-2.0263,-2.0575,-2.113,-2.2226,-2.2362,-2.2149,0.0,0.0,0.0,0.0,0.0,0.0,0.0,0.0,0.0,0.0,0.0,0.0,0.0,0.0,0.0,0.0,0.0,0.0,0.0,0.0,0.0,0.0,0.0,0.0,0.0,0.0,0.0,0.0,-2.9599,-2.9892,-2.9947,0.0,0.0,0.0,0.0,0.0,0.0,0.0,0.0,0.0,0.0,-3.3569,-3.4035,-3.3687,0.0,0.0,-3.4426,-3.3991,-3.492,-3.4237,-3.3293,-3.2316,-3.1989,0.0,0.0,0.0,0.0,0.0,0.0,0.0,0.0,0.0,0.0,0.0,0.0,0.0,0.0,0.0,0.0,0.0,0.0,0.0,0.0,0.0,0.0,0.0,0.0,0.0,0.0,0.0,0.0,0.0,0.0,0.0,0.0,0.0,0.0,0.0,0.0,0.0,0.0,0.0,0.0,0.0,0.0,0.0,0.0,0.0,0.0,0.0,0.0,0.0,0.0,0.0,0.0,-1.5153,-1.5292,-1.8204,-2.0358,-2.1592,-2.1976,-2.2928,-2.4292,-2.4314,-2.4183,0.0,0.0,0.0,0.0,0.0,0.0,0.0,0.0,0.0,0.0,0.0,0.0,0.0,0.0,0.0,0.0,0.0,0.0,0.0,0.0,0.0,0.0,0.0,0.0,0.0,0.0,0.0,0.0,-2.9994,-3.0516,-3.0241,0.0,0.0,0.0,0.0,0.0,0.0,0.0,0.0,0.0,0.0,-3.4655,-3.4993,-3.4287,-3.4195,-3.5444,-3.4613,-3.4203,-3.5041,-3.4256,-3.3539,-3.3199,0.0,0.0,0.0,0.0,0.0,0.0,0.0,0.0,0.0,0.0,0.0,0.0,0.0,0.0,0.0,0.0,0.0,0.0,0.0,0.0,0.0,0.0,0.0,0.0,0.0,0.0,0.0,0.5778,0.0,0.0,0.5287,0.0,0.0,0.0,0.0,0.0,0.0,0.0,0.0,0.0,0.0,0.0,0.0,0.0,0.0,0.0,0.0,0.0,0.0,0.0,0.0,0.0,0.0,-1.6816,-1.6574,-2.074,-2.3076,-2.3101,-2.3335,-2.3932,-2.4853,-2.4592,-2.4455,-2.4623,0.0,0.0,0.0,0.0,0.0,0.0,0.0,0.0,0.0,0.0,0.0,0.0,0.0,0.0,0.0,0.0,0.0,0.0,0.0,0.0,0.0,0.0,0.0,0.0,0.0,0.0,-2.795,-2.944,-3.0222,0.0,0.0,0.0,0.0,0.0,0.0,0.0,0.0,0.0,-3.3358,-3.3468,-3.3707,-3.4862,-3.4348,-3.4037,-3.4403,-3.3468,-3.268,-3.2906,-3.3984,-3.4334,0.0,0.0,0.0,0.0,0.0,0.0,0.0,0.0,0.0,0.0,0.0,0.0,0.0,0.0,0.0,0.0,0.0,0.0,0.0,0.0,0.0,0.0,0.0,0.0,0.0,0.0,0.0,0.4395,0.3178,0.0,0.0,0.0,0.0,0.0,0.0,0.0,0.0,0.0,0.0,0.0,-0.6851,-0.8045,0.0,0.0,0.0,0.0,0.0,0.0,0.0,0.0,0.0,0.0,0.0,0.0,-1.6773,-1.6959,-2.1014,-2.3218,-2.3525,-2.392,-2.4278,-2.4892,-2.5106,-2.5073,-2.493,0.0,0.0,0.0,0.0,0.0,0.0,0.0,0.0,0.0,0.0,0.0,0.0,0.0,0.0,0.0,0.0,0.0,0.0,0.0,0.0,0.0,0.0,0.0,0.0,0.0,-2.5068,0.0,0.0,0.0,0.0,0.0,0.0,0.0,0.0,0.0,0.0,0.0,-3.2735,-3.3688,-3.4385,-3.5064,-3.5724,-3.5577,-3.5449,0.0,0.0,0.0,0.0,0.0,0.0,0.0,0.0,0.0,0.0,0.0,0.0,0.0,0.0,-4.5076,-4.3931,-4.3794,-4.3818,-4.3818,0.0,0.0,0.0,0.0,0.0,0.0,0.0,0.0,0.0,0.0,0.0,0.0,0.0,0.0,0.2666,0.1739,0.1746,0.0,0.0,0.0,0.0,0.0,0.0,0.0,0.0,-0.7859,-0.8618,-0.8526,-0.973,-0.9625,0.0,-0.8499,-0.8398,0.0,0.0,0.0,0.0,0.0,0.0,0.0,0.0,-1.7142,-1.8122,-2.1521,-2.3344,-2.3655,-2.3897,-2.4414,-2.4726,-2.5347,-2.5577,-2.5531,-2.4877,-2.4369,0.0,0.0,0.0,0.0,0.0,0.0,0.0,0.0,0.0,0.0,0.0,0.0,0.0,0.0,0.0,0.0,0.0,0.0,0.0,0.0,0.0,0.0,0.0,-2.5923,0.0,0.0,0.0,0.0,0.0,0.0,0.0,0.0,0.0,-3.1634,-3.29,-3.4018,-3.4587,-3.532,-3.5925,-3.6164,0.0,0.0,0.0,0.0,0.0,0.0,0.0,-3.434,-3.5711,-3.5295,-3.5124,-3.6073,-3.9044,-4.1817,-4.3265,0.0,0.0,-4.5446,-4.5309,-4.5501,-4.5669,-4.6559,-4.7209,-4.7196,-4.8415,-4.9242,0.0,0.0,0.0,0.0,0.0,0.0,0.0,0.0,0.1808,0.1666,0.0,0.1412,0.0,0.0,0.0,0.0,0.0,-0.5874,0.0,0.0,-1.0607,-1.147,-1.1462,-1.1606,-1.1619,-1.1626,-1.1482,-1.1558,-1.1281,-0.9876,0.0,0.0,0.0,0.0,0.0,0.0,-1.8112,-2.0113,-2.2257,-2.3466,-2.3478,-2.3707,-2.4,-2.4639,-2.5422,-2.6056,-2.6346,-2.5571,-2.497,-2.4649,-2.3554,0.0,0.0,0.0,0.0,0.0,0.0,0.0,0.0,0.0,0.0,0.0,0.0,0.0,0.0,0.0,0.0,0.0,0.0,0.0,0.0,-2.647,0.0,0.0,0.0,0.0,0.0,0.0,0.0,0.0,0.0,0.0,-3.334,-3.3651,-3.4458,-3.5981,0.0,0.0,0.0,0.0,-3.521,-3.5595,-3.466,-3.3963,-3.3945,-3.5238,-3.6039,-3.5838,0.0,0.0,-3.8633,-4.169,-4.3959,-4.339,-4.6243,-4.8803,-4.8387,-4.781,-4.7666,-4.8171,-4.8291,-4.8643,-4.9607,-5.0636,-5.1624,0.4354,0.0,0.0,0.0,0.0,0.2757,0.173,0.041,0.0406,-0.0135,-0.1207,-0.2286,0.0,0.0,0.0,0.0,0.0,0.0,-0.7664,-0.9198,-0.966,-1.0463,-1.1619,-1.1619,-1.1674,-1.1775,-1.1884,-1.1972,-1.2033,-1.1639,-1.1266,-1.0907,0.0,0.0,0.0,0.0,-1.9854,-2.056,-2.2525,-2.3891,-2.4221,-2.4614,-2.497,-2.5435,-2.5911,-2.607,-2.607,-2.5989,-2.5678,-2.4983,-2.4623,0.0,0.0,0.0,0.0,0.0,0.0,0.0,0.0,0.0,0.0,0.0,0.0,0.0,0.0,0.0,0.0,0.0,0.0,0.0,-2.2046,-2.574,-2.7931,0.0,0.0,0.0,0.0,0.0,0.0,0.0,0.0,0.0,-3.4513,-3.51,-3.5687,0.0,0.0,-3.6201,-3.6201,-3.6017,-3.5907,-3.6036,-3.5999,0.0,-3.6014,-3.6066,-3.6469,-3.7544,-3.8883,-3.9453,-3.8691,-3.9997,-4.1706,-4.336,-4.5057,-4.6991,-4.9006,-4.8988,-4.882,-4.9277,-4.9421,-4.9728,-5.0537,-5.1345,-5.196,0.0975,0.0557,0.2317,0.2434,0.1219,0.1216,0.0411,-0.0981,-0.0972,-0.18,-0.3184,-0.4169,-0.4815,-0.5393,-0.6464,0.0,0.0,0.0,-0.8645,-1.0185,-1.0239,-1.0743,-1.1708,-1.183,-1.1932,-1.202,-1.2162,-1.2284,-1.2379,-1.2522,-1.2216,-1.1518,0.0,0.0,-1.6585,-1.8522,-2.0307,-2.1859,-2.3111,-2.4012,-2.4172,-2.4492,-2.4798,-2.5276,-2.5753,-2.5911,-2.5753,-2.6228,-2.6146,-2.5625,-2.5371,-2.4957,0.0,0.0,0.0,0.0,0.0,0.0,0.0,0.0,0.0,0.0,0.0,-2.4372,-2.2243,0.0,0.0,0.0,-2.4477,-2.4701,-2.5468,-2.834,0.0,0.0,0.0,0.0,0.0,0.0,0.0,-3.4312,-3.4825,-3.521,-3.5485,-3.6201,-3.6567,-3.6256,-3.6201,-3.6201,-3.6201,0.0,-3.6201,-3.6201,-3.6421,-3.6494,-3.6553,-3.646,-3.7032,-3.8609,-3.9406,-3.9805,-3.9473,-4.0097,-4.1494,-4.3616,-4.5091,-4.666,-4.9125,-4.9277,-4.9325,-5.0022,-5.0331,-5.0707,-5.1327,-5.1796,-5.2149,-0.0999,-0.1997,0.0556,0.0963,-0.0138,-0.0279,-0.1121,-0.2388,-0.2388,-0.3369,-0.4774,-0.4973,-0.5817,-0.7287,-0.7287,0.0,-0.9405,-0.9417,-1.0215,-1.166,-1.1796,-1.187,-1.1898,-1.2169,-1.2311,-1.2332,-1.2467,-1.2542,-1.2562,-1.2712,-1.2644,-1.2532,-1.2525,-1.5242,-1.9992,-1.9141,-2.0263,-2.3668,-2.384,-2.384,-2.384,-2.384,-2.4012,-2.4492,-2.497,-2.5289,-2.5753,-2.607,-2.6386,-2.6373,-2.5865,-2.5464,-2.5184,0.0,0.0,0.0,0.0,0.0,0.0,0.0,0.0,0.0,0.0,0.0,0.0,0.0,0.0,-2.4106,-2.768,0.0,-3.2159,-3.21,0.0,0.0,0.0,-3.1219,-3.1097,-3.348,-3.499,-3.4642,0.0,0.0,-3.6347,-3.6952,-3.7118,-3.6402,-3.6311,-3.6292,-3.6256,-3.6219,-3.6201,-3.6201,-3.6237,-3.6274,-3.6311,-3.6812,-3.754,-3.9105,-3.9639,-4.0137,-4.0312,-4.1254,-4.2606,-4.3961,-4.5729,-4.7235,-4.8791,-4.9163,-4.9517,-5.0503,-5.0833,-5.1066,-5.1558,-5.1976,-5.2402,-0.1832,-0.2115,-0.1556,-0.1409,-0.1676,-0.1681,-0.2537,-0.3978,-0.398,-0.4997,-0.6474,-0.7652,-0.9093,-1.0506,-1.0506,-1.0668,-1.0992,-1.1089,-1.151,-1.1959,-1.2115,-1.2237,-1.2345,-1.242,-1.2515,-1.263,-1.2779,-1.2908,-1.3017,-1.3166,-1.3846,-1.5054,-1.5054,-1.6324,-1.8648,-2.1188,-2.284,-2.384,-2.384,-2.4,-2.4332,-2.4332,-2.4332,-2.4492,-2.497,-2.513,-2.5289,-2.5753,-2.607,-2.6386,-2.6253,-2.6159,-2.6079,-2.4803,0.0,0.0,0.0,0.0,0.0,0.0,0.0,0.0,0.0,-2.6157,-2.3104,0.0,-2.6383,0.0,-2.81,-2.8837,-2.7844,-2.855,0.0,0.0,-3.2204,-3.2858,-3.4667,-3.5541,-3.6017,-3.6237,-3.6787,-3.7246,-3.7558,-3.7228,-3.7026,-3.7118,-3.7136,-3.7026,-3.6732,-3.6402,-3.6201,-3.6237,-3.6494,-3.6696,-3.6714,-3.7818,-3.8918,-3.96,-4.043,-4.0684,-4.0137,-4.0813,-4.1795,-4.3106,-4.4906,-4.6569,-4.8205,-4.9416,-5.0359,-5.06,-5.0186,-5.0004,-5.0921,-5.1319,-5.1866,-0.2324,-0.2326,-0.2328,-0.2753,-0.3307,-0.3288,-0.3863,-0.4749,-0.5323,-0.6494,-0.8126,-0.9723,-1.0743,-1.1619,-1.1687,-1.1714,-1.1721,-1.1864,-1.2013,-1.2169,-1.2318,-1.2461,-1.2603,-1.2739,-1.2847,-1.2929,-1.3085,-1.3193,-1.3275,-1.3356,-1.4217,-1.6008,-1.682,-1.7962,-1.9401,-2.1519,-2.2648,-2.2544,-2.346,-2.384,-2.4172,-2.4172,-2.4111,-2.4001,-2.4748,-2.5066,-2.4939,-2.5687,-2.6017,-2.5885,-2.5923,-2.5909,-2.5858,-2.4993,-2.4803,0.0,0.0,0.0,0.0,0.0,0.0,0.0,0.0,0.0,0.0,0.0,-2.71,-2.6716,-2.8172,-2.8842,-2.7773,-2.9194,-3.1276,-3.3702,-3.3988,-3.4854,-3.7056,-3.7301,-3.7301,-3.7356,-3.7558,-3.7704,-3.7741,-3.7686,-3.7631,-3.7686,-3.7851,-3.7686,-3.6989,-3.6769,-3.6751,-3.6751,-3.6952,-3.7099,-3.7099,-3.855,-3.9641,-3.9952,-4.0705,-4.1269,-4.084,-4.0957,-4.1828,-4.3844,-4.5147,-4.6677,-4.891,-4.9961,-5.0696,-5.0624,-5.0379,-5.0604,-5.1436,-5.1976,-5.269,-0.2424,-0.2421,-0.2695,-0.3421,-0.4744,-0.5131,-0.5244,-0.5383,-0.6684,-0.8126,-0.9723,-1.1038,-1.1633,-1.1653,-1.1775,-1.1843,-1.187,-1.204,-1.2203,-1.2352,-1.2515,-1.2671,-1.2827,-1.3078,-1.32,-1.3207,-1.3336,-1.3397,-1.3397,-1.3562,-1.4541,-1.6008,-1.7964,-1.9582,-2.0856,-2.1362,-2.1446,-2.1419,-2.2887,-2.3792,-2.3792,-2.3792,-2.3683,-2.3478,-2.4343,-2.4857,-2.4761,-2.578,-2.5964,-2.5544,-2.5295,-2.5281,-2.5518,-2.5242,-2.5198,0.0,-2.5144,0.0,0.0,0.0,0.0,0.0,0.0,0.0,0.0,-2.703,-2.7239,-2.5725,-2.7843,-2.9456,-2.953,-3.1371,-3.3369,-3.5468,-3.5697,-3.6532,-3.8158,-3.853,-3.842,-3.8053,-3.8053,-3.7961,-3.7778,-3.8218,-3.8401,-3.8163,-3.8291,-3.8108,-3.7264,-3.7228,-3.7356,-3.7429,-3.7521,-3.7631,-3.7841,-3.9074,-4.0072,-4.0268,-4.1226,-4.1953,-4.1953,-4.168,-4.2341,-4.4715,-4.5771,-4.7047,-4.984,-5.0485,-5.0936,-5.0984,-5.122,-5.1693,-5.2386,-5.3048,-5.3944,-0.2424,-0.2574,-0.392,-0.4491,-0.4895,-0.7534,-0.8504,-0.842,-0.8709,-0.9723,-1.1181,-1.1476,-1.1681,-1.1789,-1.1816,-1.1898,-1.2033,-1.2298,-1.2501,-1.2657,-1.2922,-1.3125,-1.3275,-1.3329,-1.3356,-1.3356,-1.339,-1.3397,-1.3397,-1.4863,-1.5679,-1.6164,-1.9105,-2.0149,-1.9183,0.0,0.0,0.0,-2.3452,-2.3526,-2.3526,-2.3526,-2.3502,-2.3466,-2.3866,0.0,-2.5053,-2.5263,-2.5581,-2.6148,-2.6095,0.0,0.0,0.0,0.0,0.0,0.0,0.0,0.0,0.0,0.0,0.0,-2.6189,-2.6202,-2.5585,-2.6905,-2.7203,-2.5999,-2.7027,-2.8172,-2.8933,-2.9685,-3.1337,-3.4193,-3.495,-3.5748,-3.734,-3.7961,-3.8108,-3.8034,-3.831,-3.8621,-3.8768,-3.8475,-3.8255,-3.8456,-3.831,-3.8053,-3.7851,-3.7613,-3.7448,-3.7466,-3.7998,-3.854,-3.9362,-4.0216,-4.1105,-4.1747,-4.2378,-4.2832,-4.2851,-4.2812,-4.2715,-4.3799,-4.5502,-4.7269,-4.8027,-5.0142,-5.2043,-5.1994,-5.2573,-5.2858,-5.2656,-5.3031,-5.3636,-0.2928,0.0,-0.4586,-0.5767,0.0,-0.8984,-0.9968,-1.0639,-1.051,-1.0925,-1.1721,-1.1721,-1.1803,-1.1945,-1.2026,-1.2101,-1.2189,-1.2481,-1.2698,-1.2854,-1.3071,-1.3254,-1.3397,-1.3397,-1.3397,-1.3397,-1.3397,-1.3887,-1.4706,-1.5514,-1.682,-1.8607,-2.0403,-2.1157,-2.106,-2.2957,-2.384,-2.384,-2.3707,-2.3647,-2.3647,-2.3647,-2.3587,-2.3466,-2.3866,0.0,0.0,0.0,0.0,0.0,0.0,0.0,0.0,0.0,0.0,-2.5932,-2.5644,-2.5564,-2.5718,-2.5852,-2.6119,-2.6573,-2.6867,-2.6907,-2.6613,-2.7148,-2.7428,-2.7295,-2.7549,-2.8027,-2.884,-2.9131,-3.0525,-3.3953,-3.4602,-3.5672,-3.8145,-3.8786,-3.8841,-3.8658,-3.8805,-3.8951,-3.8933,-3.8621,-3.842,-3.8603,-3.864,-3.8603,-3.8585,-3.8273,-3.8089,-3.8291,-3.8805,-3.9461,-4.0204,-4.1348,-4.2207,-4.2614,-4.3419,-4.4004,-4.4043,-4.4043,-4.419,-4.5143,-4.7174,-4.8934,-5.0009,-5.2084,-5.3822,-5.3972,-5.4421,-5.4942,-5.4598,-5.4419,-5.4502,-0.3454,-0.5011,-0.5269,-0.708,-0.9813,-1.0022,-1.0889,-1.2081,0.0,0.0,0.0,-1.187,-1.1952,-1.2108,-1.2237,-1.2305,-1.2345,-1.2637,-1.284,-1.2969,-1.3132,-1.3281,-1.3397,-1.3397,-1.3397,-1.3397,-1.3397,-1.4383,-1.6008,-1.6328,-1.8128,-2.0888,-2.1545,-2.2372,-2.368,-2.384,-2.384,-2.384,-2.3804,-2.378,-2.378,-2.378,-2.3671,-2.3454,-2.4038,-2.438,-2.4157,-2.5041,-2.5396,-2.485,-2.4997,-2.5309,-2.5544,-2.5557,-2.5924,-2.6867,-2.7134,-2.7268,-2.7268,-2.7308,-2.7388,-2.7495,-2.7669,-2.7749,-2.7709,-2.7575,-2.7762,-2.8404,-2.8257,-2.831,-2.8684,-2.8778,-3.0153,-3.3336,-3.3719,-3.5243,-3.8597,-3.9286,-3.9086,-3.912,-3.919,-3.9153,-3.8951,-3.8896,-3.886,-3.8896,-3.9135,-3.9392,-3.9392,-3.9098,-3.8988,-3.9355,-3.994,-4.0345,-4.0972,-4.2237,-4.3253,-4.3403,-4.4296,-4.5137,-4.5137,-4.5137,-4.5628,-4.6542,-4.8853,-5.0476,-5.1945,-5.3795,-5.5231,-5.5385,-5.6026,-5.6663,-5.654,-5.6203,-5.6043,-0.3452,-0.517,-0.6566,-0.822,-0.9976,-1.134,-1.2105,-1.2244,-1.2081,-1.2013,-1.2026,-1.2033,-1.2115,-1.2257,-1.2284,-1.2359,-1.2488,-1.2793,-1.2942,-1.2976,-1.3241,-1.3376,-1.3397,-1.3397,-1.3397,-1.3397,-1.3397,-1.4383,-1.6008,-1.7474,-1.9267,-2.1222,-2.2694,-2.3508,-2.384,-2.384,-2.384,-2.384,-2.3623,-2.3502,-2.3514,-2.3502,-2.349,-2.3466,-2.3707,-2.416,-2.4442,-2.4851,-2.5138,-2.5435,-2.5613,-2.5903,-2.6444,-2.6431,-2.6646,-2.7201,-2.7241,-2.7268,-2.7281,-2.7495,-2.7869,-2.835,-2.8217,-2.7976,-2.7736,-2.815,-2.8257,-2.7909,-2.803,-2.7949,-2.7615,-2.7802,-2.8813,-3.0748,-3.1271,-3.2732,-3.6234,-3.6754,-3.7523,-3.9065,-3.9226,-3.9392,-3.9575,-3.963,-3.9648,-3.9667,-3.9795,-3.9923,-4.018,-3.9942,-3.9868,-4.04,-4.0953,-4.1695,-4.2443,-4.3386,-4.4222,-4.4582,-4.5141,-4.5586,-4.5586,-4.5586,-4.5758,-4.6082,-4.8463,-5.0164,-5.0932,-5.3283,-5.5016,-5.5506,-5.6172,-5.6762,-5.6786,-5.7098,-5.7575,-0.4828,-0.6414,-0.8079,-0.98,-1.1436,-1.2304,-1.2657,-1.2651,-1.2583,-1.2454,-1.2305,-1.2305,-1.2338,-1.2413,-1.2488,-1.2562,-1.2644,-1.2935,-1.3078,-1.3091,-1.3302,-1.3397,-1.3397,-1.3397,-1.3397,-1.3403,-1.4383,-1.5687,-1.7483,-1.9105,-2.0899,-2.2533,-2.3348,-2.384,-2.384,-2.384,-2.384,-2.384,-2.3731,-2.3671,-2.3671,-2.3671,-2.3731,-2.3876,-2.3997,-2.413,-2.4588,-2.4886,-2.5275,-2.5778,-2.6057,-2.6449,-2.6954,-2.7086,-2.7344,-2.7509,-2.7816,-2.7989,-2.7989,-2.827,-2.8537,-2.8804,-2.8564,-2.827,-2.7963,-2.819,-2.831,-2.819,-2.8177,-2.8043,-2.7776,-2.8016,-2.8851,-3.0651,-3.111,-3.28,-3.5823,-3.6816,-3.7578,-3.9268,-3.9777,-3.9887,-3.985,-4.0033,-4.018,-4.0217,-4.051,-4.0987,-4.139,-4.1299,-4.1152,-4.117,-4.1634,-4.2363,-4.327,-4.403,-4.4798,-4.5203,-4.5705,-4.5996,-4.6016,-4.6016,-4.6343,-4.7339,-4.9491,-5.1191,-5.2153,-5.4461,-5.5936,-5.6275,-5.6902,-5.7393,-5.7573,-5.8365,-5.9106,-0.5874,-0.7631,-0.9305,-1.0969,-1.2793,-1.2942,-1.3003,-1.301,-1.3044,-1.2908,-1.2671,-1.2623,-1.2603,-1.2617,-1.2732,-1.2779,-1.282,-1.3051,-1.3173,-1.3186,-1.3329,-1.3397,-1.3397,-1.3397,-1.3397,-1.3562,-1.4871,-1.65,-1.8626,-1.9917,-2.1717,-2.352,-2.384,-2.384,-2.384,-2.39,-2.3937,-2.3937,-2.3985,-2.3997,-2.3937,-2.3925,-2.4057,-2.4299,-2.4323,-2.442,-2.4613,-2.5016,-2.5397,-2.5728,-2.6122,-2.6657,-2.7152,-2.7337,-2.7662,-2.7936,-2.8337,-2.8604,-2.8617,-2.8751,-2.8898,-2.9032,-2.8778,-2.8564,-2.8457,-2.8377,-2.8404,-2.8551,-2.8457,-2.8364,-2.8364,-2.8537,-2.9199,-3.0553,-3.0923,-3.2594,-3.5922,-3.6862,-3.8044,-3.9775,-4.0547,-4.0639,-4.051,-4.0675,-4.095,-4.1152,-4.1721,-4.2326,-4.2619,-4.2747,-4.2674,-4.2647,-4.2765,-4.305,-4.3984,-4.4636,-4.5354,-4.5763,-4.6094,-4.6269,-4.6269,-4.6289,-4.6967,-4.8442,-5.0315,-5.2094,-5.3975,-5.5644,-5.6765,-5.7059,-5.7692,-5.8237,-5.8525,-5.9217,-5.9935,-0.6002,-0.7723,-0.9438,-1.1189,-1.2949,-1.3091,-1.3152,-1.3173,-1.3295,-1.3268,-1.3091,-1.2976,-1.2915,-1.2922,-1.2929,-1.2942,-1.2949,-1.3098,-1.318,-1.3193,-1.3329,-1.3397,-1.3397,-1.3397,-1.3397,-1.3397,-1.3728,-1.5522,-1.8463,-1.8952,-2.0586,-2.352,-2.384,-2.3852,-2.3876,-2.4082,-2.4202,-2.4202,-2.4432,-2.4432,-2.4214,-2.4202,-2.4323,-2.4576,-2.4589,-2.4601,-2.4661,-2.4866,-2.5011,-2.5023,-2.5398,-2.5859,-2.6707,-2.6914,-2.7369,-2.8484,-2.8577,-2.8604,-2.8604,-2.8364,-2.8524,-2.8951,-2.8804,-2.8831,-2.9232,-2.9085,-2.8845,-2.8724,-2.8831,-2.8911,-2.8965,-2.8991,-2.9206,-2.942,-2.946,-3.0835,-3.4392,-3.528,-3.6908,-4.1105,-4.1348,-4.1684,-4.1867,-4.2032,-4.2252,-4.2546,-4.3169,-4.3664,-4.3774,-4.4013,-4.4377,-4.4609,-4.4623,-4.4485,-4.5121,-4.5744,-4.6074,-4.6211,-4.6328,-4.6406,-4.6445,-4.6387,-4.6813,-4.8777,-5.0505,-5.2182,-5.3997,-5.5668,-5.7021,-5.7473,-5.7971,-5.8467,-5.9198,-5.9633,-5.9633,-0.6866,-0.7855,-1.0459,-1.2224,-1.3091,-1.3247,-1.3308,-1.3315,-1.337,-1.3363,-1.3308,-1.3247,-1.3125,-1.2969,-1.3051,-1.3085,-1.3098,-1.3241,-1.3308,-1.3308,-1.3376,-1.3397,-1.3397,-1.3397,-1.3397,-1.3562,-1.4375,-1.6172,-1.8626,-2.0586,-2.2372,-2.3704,-2.3997,-2.4069,-2.4094,-2.4335,-2.4468,-2.4468,-2.4564,-2.4649,-2.4697,-2.4552,-2.4601,-2.4842,-2.4878,-2.4951,-2.5096,-2.5228,-2.5446,-2.5616,-2.5701,-2.6103,-2.6796,-2.6948,-2.7431,-2.8089,-2.8765,-2.9205,-2.9366,-2.9259,-2.9299,-2.9553,-2.9285,-2.9165,-2.9219,-2.9259,-2.9245,-2.9152,-2.9085,-2.9098,-2.9285,-2.9459,-2.9619,-2.9793,-2.9967,-3.118,-3.3754,-3.4484,-3.6095,-3.9564,-4.0649,-4.1426,-4.236,-4.3059,-4.3481,-4.3848,-4.427,-4.4435,-4.4453,-4.4581,-4.4819,-4.5349,-4.528,-4.5649,-4.6299,-4.6516,-4.6695,-4.7051,-4.7051,-4.7051,-4.6992,-4.6797,-4.7188,-4.9024,-5.0655,-5.2204,-5.3997,-5.5829,-5.7497,-5.7789,-5.8261,-5.8887,-5.9328,-5.9759,-5.9834,-0.7582,-0.8278,-1.1372,-1.2996,-1.3241,-1.3356,-1.3397,-1.3397,-1.3397,-1.3397,-1.3397,-1.3397,-1.3281,-1.3119,-1.3193,-1.3234,-1.3254,-1.3349,-1.3397,-1.3397,-1.3397,-1.3397,-1.3397,-1.3397,-1.3397,-1.3728,-1.5193,-1.7147,-1.944,-2.229,-2.3949,-2.3985,-2.4214,-2.4347,-2.4371,-2.4613,-2.4745,-2.4758,-2.4806,-2.4951,-2.5096,-2.4951,-2.4939,-2.5132,-2.5156,-2.524,-2.5421,-2.5433,-2.5604,-2.5933,-2.5933,-2.6103,-2.6626,-2.6879,-2.7279,-2.7978,-2.8706,-2.9389,-2.9601,-2.9726,-2.9713,-2.9766,-2.9593,-2.9432,-2.9366,-2.9553,-2.9713,-2.9726,-2.9673,-2.9753,-2.9713,-2.998,-3.0274,-3.0568,-3.0808,-3.1683,-3.3683,-3.4285,-3.5991,-3.9171,-4.0696,-4.1482,-4.2981,-4.3958,-4.4508,-4.4746,-4.4911,-4.5003,-4.5003,-4.5021,-4.5225,-4.574,-4.6107,-4.6523,-4.6934,-4.696,-4.7218,-4.7398,-4.7519,-4.75,-4.7578,-4.7266,-4.7504,-4.923,-5.0762,-5.2094,-5.3723,-5.5706,-5.7667,-5.8031,-5.8451,-5.8793,-5.9207,-5.9633,-5.9558,-0.764,-0.8309,-1.1726,-1.3234,-1.339,-1.3397,-1.3397,-1.3397,-1.3397,-1.3397,-1.3397,-1.3397,-1.339,-1.3363,-1.337,-1.3383,-1.339,-1.3397,-1.3397,-1.3397,-1.3397,-1.3397,-1.3397,-1.3397,-1.3397,-1.3562,-1.5028,-1.7474,-2.0758,-2.3086,-2.4226,-2.4238,-2.448,-2.4613,-2.4649,-2.489,-2.5023,-2.5047,-2.5228,-2.5385,-2.5409,-2.5385,-2.5373,-2.5421,-2.5409,-2.5409,-2.5433,-2.5433,-2.5433,-2.5433,-2.5433,-2.5604,-2.6116,-2.6376,-2.6935,-2.7915,-2.8561,-2.8942,-2.8942,-2.9136,-2.9272,-2.9486,-2.9566,-2.9606,-2.9873,-3.0114,-3.0287,-3.0314,-3.0728,-3.0822,-3.0461,-3.0635,-3.0915,-3.1183,-3.1223,-3.2418,-3.458,-3.4595,-3.7084,-4.0224,-4.1457,-4.2469,-4.438,-4.4966,-4.5168,-4.5333,-4.5572,-4.5755,-4.5718,-4.5755,-4.5924,-4.6299,-4.6802,-4.7227,-4.7049,-4.7315,-4.7476,-4.7637,-4.7676,-4.7617,-4.7598,-4.7679,-4.847,-4.9394,-5.0656,-5.2072,-5.3472,-5.5169,-5.7145,-5.7974,-5.8445,-5.8805,-5.8755,-5.8755,-5.8704,-0.9317,-1.1353,-1.2775,-1.3356,-1.3397,-1.3397,-1.3397,-1.3397,-1.3397,-1.3397,-1.3397,-1.3397,-1.3397,-1.3397,-1.3397,-1.3397,-1.3397,-1.3397,-1.3397,-1.3397,-1.3397,-1.3397,-1.3397,-1.3397,-1.3397,-1.3562,-1.4052,-1.6237,-1.9801,-2.2701,-2.4323,-2.4516,-2.4758,-2.4902,-2.4939,-2.5156,-2.5301,-2.5313,-2.5397,-2.5433,-2.5446,-2.5433,-2.5506,-2.5675,-2.5518,-2.5433,-2.5433,-2.5433,-2.5433,-2.5433,-2.5446,-2.5433,-2.5641,-2.6376,-2.6946,-2.7661,-2.8565,-2.8947,-2.8804,-2.9211,-2.9646,-2.9753,-2.994,-3.0154,-3.0421,-3.0581,-3.0715,-3.0929,-3.1263,-3.1356,-3.133,-3.145,-3.1744,-3.1998,-3.2064,-3.2502,-3.3271,-3.3519,-3.5087,-3.8986,-4.2021,-4.4389,-4.4979,-4.5572,-4.5663,-4.57,-4.581,-4.5883,-4.5883,-4.5883,-4.6072,-4.6447,-4.699,-4.7379,-4.7376,-4.7606,-4.7969,-4.7891,-4.7851,-4.7832,-4.7812,-4.7422,-4.78,-4.8682,-5.0141,-5.1971,-5.3378,-5.5368,-5.7287,-5.8445,-5.873,-5.8478,-5.8202,-5.8353,-5.8227,-1.0154,-1.3058,-1.3397,-1.3397,-1.3397,-1.3397,-1.3397,-1.3397,-1.3397,-1.3397,-1.3397,-1.3397,-1.3397,-1.3397,-1.3397,-1.3397,-1.3397,-1.3397,-1.3397,-1.3397,-1.3397,-1.3397,-1.3397,-1.3397,-1.3397,-1.3742,-1.4765,-1.6875,-2.011,-2.2985,-2.4471,-2.489,-2.5083,-2.518,-2.5216,-2.5433,-2.553,-2.547,-2.5518,-2.5566,-2.5566,-2.5566,-2.5687,-2.588,-2.5699,-2.5566,-2.5554,-2.5482,-2.5433,-2.5446,-2.5506,-2.5639,-2.5844,-2.6684,-2.7182,-2.7442,-2.8527,-2.9104,-2.8947,-2.9614,-2.9953,-3.0047,-3.0234,-3.0488,-3.0755,-3.0875,-3.1036,-3.1263,-3.1704,-3.1944,-3.2024,-3.2291,-3.2572,-3.2679,-3.2679,-3.2732,-3.2812,-3.2826,-3.4757,-3.8623,-4.2828,-4.5215,-4.5828,-4.5865,-4.5883,-4.5883,-4.5883,-4.5883,-4.5883,-4.6072,-4.6186,-4.6467,-4.6969,-4.7316,-4.7223,-4.7315,-4.7734,-4.7695,-4.7676,-4.7773,-4.7754,-4.7324,-4.7445,-4.835,-4.9791,-5.1791,-5.3655,-5.5731,-5.714,-5.8524,-5.873,-5.8504,-5.8252,-5.8052,-5.7926,-1.0055,-1.3231,-1.3397,-1.3397,-1.3397,-1.3397,-1.3397,-1.3397,-1.3397,-1.3397,-1.3397,-1.3397,-1.3397,-1.3397,-1.3397,-1.3397,-1.3397,-1.3397,-1.3397,-1.3397,-1.3397,-1.3397,-1.3397,-1.3417,-1.3437,-1.3617,-1.7199,-1.9815,-2.1874,-2.3775,-2.5108,-2.5373,-2.5421,-2.5433,-2.5433,-2.5663,-2.5687,-2.5566,-2.5687,-2.5808,-2.5832,-2.5832,-2.5965,-2.617,-2.5965,-2.5844,-2.5844,-2.5602,-2.547,-2.5494,-2.5699,-2.6073,-2.646,-2.6937,-2.7442,-2.782,-2.8629,-2.9182,-2.9195,-2.9581,-3.01,-3.0327,-3.0408,-3.0635,-3.0942,-3.1156,-3.1316,-3.1543,-3.2024,-3.2492,-3.2585,-3.2973,-3.32,-3.304,-3.2986,-3.308,-3.328,-3.3574,-3.5153,-3.9399,-4.3487,-4.5677,-4.5883,-4.5883,-4.5883,-4.5883,-4.5883,-4.5883,-4.5865,-4.6204,-4.6243,-4.6354,-4.6758,-4.7117,-4.7096,-4.6908,-4.7165,-4.7383,-4.7383,-4.7422,-4.7441,-4.7187,-4.7877,-4.8716,-5.0804,-5.2801,-5.5339,-5.7131,-5.7499,-5.8474,-5.8502,-5.8504,-5.8278,-5.8027,-5.7725,-1.0055,-1.3231,-1.3397,-1.3397,-1.3397,-1.3397,-1.3397,-1.3397,-1.3397,-1.3397,-1.3397,-1.3397,-1.3397,-1.3397,-1.3397,-1.3397,-1.3397,-1.3397,-1.3397,-1.3403,-1.3403,-1.3403,-1.3424,-1.3512,-1.3614,-1.4196,-1.744,-1.9625,-2.0887,-2.3506,-2.5252,-2.5627,-2.5699,-2.5711,-2.5711,-2.5784,-2.5771,-2.5735,-2.5784,-2.5904,-2.6073,-2.6097,-2.623,-2.6447,-2.6242,-2.6182,-2.6351,-2.5953,-2.5723,-2.5711,-2.5953,-2.6443,-2.6912,-2.7152,-2.7646,-2.8243,-2.8822,-2.9286,-2.9456,-2.9871,-3.0354,-3.0662,-3.1022,-3.1383,-3.1637,-3.1757,-3.1984,-3.2291,-3.2532,-3.2612,-3.2853,-3.3173,-3.336,-3.328,-3.328,-3.3293,-3.38,-3.5989,-3.8683,-4.1414,-4.4335,-4.5695,-4.5902,-4.592,-4.5957,-4.5957,-4.5957,-4.5938,-4.5865,-4.6056,-4.6392,-4.6408,-4.6896,-4.7076,-4.685,-4.6756,-4.6775,-4.6953,-4.6933,-4.7012,-4.7051,-4.7189,-4.7914,-4.9666,-5.1878,-5.4115,-5.6794,-5.795,-5.8161,-5.8245,-5.8401,-5.8378,-5.8202,-5.8027,-5.7851,-0.9721,-1.2395,-1.3065,-1.3397,-1.3397,-1.3397,-1.3397,-1.3397,-1.3397,-1.3397,-1.3397,-1.3397,-1.3397,-1.3397,-1.3397,-1.3397,-1.3397,-1.3397,-1.3431,-1.3478,-1.3485,-1.3485,-1.3505,-1.3634,-1.3783,-1.4414,-1.6991,-1.8831,-1.9942,-2.2663,-2.4761,-2.5706,-2.5784,-2.5796,-2.5953,-2.5965,-2.5965,-2.5989,-2.6073,-2.6206,-2.6339,-2.6375,-2.6508,-2.6701,-2.652,-2.6472,-2.6592,-2.6303,-2.6073,-2.6049,-2.623,-2.6674,-2.7096,-2.7504,-2.7975,-2.8563,-2.9196,-2.9845,-3.0096,-3.0438,-3.0808,-3.1129,-3.1557,-3.1944,-3.2185,-3.2265,-3.2465,-3.2706,-3.2759,-3.2786,-3.2986,-3.336,-3.3521,-3.3414,-3.34,-3.3467,-3.4136,-3.7427,-4.025,-4.2057,-4.4412,-4.5943,-4.6342,-4.6342,-4.6342,-4.6342,-4.6342,-4.6122,-4.6164,-4.6243,-4.6521,-4.6511,-4.66,-4.6772,-4.66,-4.6641,-4.6582,-4.6504,-4.6445,-4.6562,-4.6641,-4.6758,-4.7165,-5.0592,-5.3078,-5.5368,-5.7776,-5.7991,-5.8048,-5.837,-5.8654,-5.878,-5.878,-5.8453,-5.8278,-0.9054,-1.0893,-1.2561,-1.3397,-1.3397,-1.3397,-1.3397,-1.3397,-1.3397,-1.3397,-1.3397,-1.3397,-1.3397,-1.3397,-1.3397,-1.341,-1.3417,-1.3431,-1.3512,-1.3614,-1.3661,-1.3675,-1.3695,-1.3804,-1.3933,-1.4409,-1.6144,-1.8035,-1.9683,-2.1832,-2.376,-2.5512,-2.5598,-2.5723,-2.6109,-2.6218,-2.6242,-2.6278,-2.6472,-2.6592,-2.6653,-2.6665,-2.6761,-2.6979,-2.6785,-2.6665,-2.6677,-2.6677,-2.6544,-2.6351,-2.6532,-2.6773,-2.7172,-2.7958,-2.8614,-2.9064,-2.9834,-3.0345,-3.0795,-3.0996,-3.1303,-3.1623,-3.1931,-3.2251,-3.2505,-3.2572,-3.2625,-3.2746,-3.2893,-3.3026,-3.3173,-3.3574,-3.3748,-3.3534,-3.3521,-3.3614,-3.4476,-3.8089,-4.0546,-4.18,-4.4476,-4.7075,-4.6984,-4.7002,-4.7002,-4.7002,-4.6984,-4.6635,-4.6329,-4.6486,-4.6536,-4.6591,-4.6651,-4.6462,-4.6504,-4.6484,-4.6445,-4.6406,-4.6308,-4.6348,-4.6911,-4.7181,-4.8311,-5.1536,-5.4066,-5.6518,-5.7789,-5.8006,-5.8426,-5.8923,-5.9257,-5.9458,-5.9307,-5.8905,-5.8755,-0.9054,-1.0887,-1.2733,-1.3397,-1.3397,-1.3397,-1.3397,-1.3397,-1.3397,-1.3403,-1.3397,-1.3397,-1.3403,-1.3403,-1.341,-1.3458,-1.3546,-1.3573,-1.3648,-1.379,-1.3912,-1.3946,-1.3953,-1.3994,-1.4095,-1.4569,-1.5981,-1.7413,-1.8199,-2.0955,-2.2815,-2.3797,-2.5266,-2.5874,-2.623,-2.6423,-2.652,-2.6532,-2.658,-2.6737,-2.6894,-2.6906,-2.6954,-2.7003,-2.6954,-2.6918,-2.6954,-2.7123,-2.7087,-2.6846,-2.6882,-2.722,-2.7829,-2.8415,-2.909,-2.9702,-3.032,-3.0808,-3.1062,-3.1196,-3.1476,-3.1944,-3.2265,-3.2559,-3.2839,-3.2866,-3.2973,-3.312,-3.3267,-3.34,-3.3641,-3.3961,-3.4108,-3.4082,-3.4111,-3.4679,-3.6305,-3.8842,-4.1287,-4.2887,-4.5523,-4.6761,-4.7185,-4.7185,-4.7167,-4.7167,-4.7112,-4.7121,-4.693,-4.6691,-4.6922,-4.6638,-4.6497,-4.6445,-4.6348,-4.6328,-4.6328,-4.6328,-4.6308,-4.6464,-4.7528,-4.8675,-5.0674,-5.3505,-5.5044,-5.718,-5.7813,-5.8261,-5.8887,-5.9353,-5.9508,-5.9508,-5.9508,-5.9282,-5.9232,-0.8553,-0.9721,-1.2395,-1.3397,-1.3403,-1.3562,-1.3569,-1.3403,-1.3569,-1.3569,-1.3403,-1.3397,-1.3437,-1.3498,-1.3498,-1.358,-1.3702,-1.3715,-1.3804,-1.3946,-1.4089,-1.4156,-1.4177,-1.4217,-1.4306,-1.4373,-1.5439,-1.6495,-1.7362,-1.9388,-2.0735,-2.2215,-2.3886,-2.496,-2.5305,-2.6223,-2.6701,-2.6761,-2.6713,-2.6761,-2.7003,-2.6918,-2.6942,-2.6991,-2.7039,-2.7063,-2.7196,-2.7341,-2.7341,-2.7244,-2.7292,-2.7609,-2.7916,-2.8691,-2.9384,-2.9827,-3.0597,-3.1102,-3.137,-3.1517,-3.181,-3.2225,-3.2559,-3.2853,-3.312,-3.3267,-3.3467,-3.3574,-3.3708,-3.3881,-3.4042,-3.4229,-3.4429,-3.481,-3.5226,-3.6068,-3.7331,-3.9443,-4.1712,-4.3965,-4.6074,-4.7589,-4.7607,-4.7589,-4.7589,-4.7571,-4.7674,-4.7461,-4.7287,-4.7215,-4.7068,-4.6761,-4.6656,-4.6484,-4.6387,-4.6308,-4.6308,-4.6308,-4.7141,-4.7141,-4.8311,-4.9998,-5.1993,-5.4161,-5.6013,-5.7497,-5.7971,-5.8443,-5.8887,-5.9353,-5.9508,-5.9508,-5.9508,-5.9508,-5.9508,-0.8048,-0.8553,-1.2063,-1.3397,-1.3403,-1.3901,-1.3735,-1.3569,-1.3735,-1.3735,-1.3403,-1.3397,-1.3478,-1.3627,-1.36,-1.3709,-1.3858,-1.3865,-1.396,-1.4089,-1.4217,-1.4292,-1.4333,-1.4373,-1.4421,-1.4441,-1.4482,-1.537,-1.6572,-1.7185,-1.8363,-2.0187,-2.1924,-2.3062,-2.3784,-2.5297,-2.6269,-2.6375,-2.663,-2.6822,-2.6966,-2.687,-2.687,-2.7003,-2.7111,-2.7244,-2.7413,-2.7522,-2.7534,-2.751,-2.7703,-2.7787,-2.801,-2.8781,-2.9492,-2.9883,-3.0713,-3.1383,-3.1637,-3.1877,-3.2185,-3.2492,-3.2786,-3.3106,-3.3347,-3.3601,-3.3801,-3.3828,-3.4175,-3.4349,-3.4442,-3.4442,-3.4656,-3.516,-3.6702,-3.7651,-3.8305,-4.0062,-4.2504,-4.4323,-4.6662,-4.8033,-4.8286,-4.8286,-4.8231,-4.7736,-4.7997,-4.7784,-4.7608,-4.7553,-4.7309,-4.6806,-4.6636,-4.6758,-4.6523,-4.6308,-4.6308,-4.6483,-4.7814,-4.8482,-4.9488,-5.1157,-5.2823,-5.4673,-5.6494,-5.7655,-5.8286,-5.8756,-5.9043,-5.9353,-5.9508,-5.9508,-5.9508,-5.9508,-5.9508,-0.8887,-1.0388,-1.2561,-1.3397,-1.3397,-1.3569,-1.3569,-1.3397,-1.3569,-1.3569,-1.3403,-1.3403,-1.3498,-1.3641,-1.3668,-1.377,-1.4,-1.4027,-1.4109,-1.4238,-1.4272,-1.4367,-1.4414,-1.4407,-1.436,-1.438,-1.436,-1.4592,-1.5363,-1.6464,-1.7575,-1.8304,-2.0051,-2.1258,-2.1758,-2.3571,-2.474,-2.4967,-2.6025,-2.6749,-2.6809,-2.6954,-2.6942,-2.7063,-2.7232,-2.7473,-2.7715,-2.792,-2.8029,-2.8005,-2.792,-2.7956,-2.8278,-2.9055,-2.9746,-3.0127,-3.0975,-3.1597,-3.1704,-3.1944,-3.2238,-3.2532,-3.2812,-3.3106,-3.3387,-3.3721,-3.3881,-3.3988,-3.4349,-3.4736,-3.491,-3.499,-3.524,-3.5714,-3.7202,-3.8791,-4.0373,-4.2618,-4.4194,-4.5283,-4.6769,-4.8286,-4.8286,-4.8286,-4.8157,-4.7901,-4.7997,-4.8263,-4.8101,-4.8041,-4.7607,-4.7063,-4.697,-4.6933,-4.6484,-4.6308,-4.6308,-4.6638,-4.7986,-4.9509,-5.0674,-5.216,-5.3834,-5.5483,-5.7132,-5.7947,-5.8599,-5.8887,-5.9173,-5.9328,-5.9508,-5.9508,-5.9508,-5.9508,-5.9508,-0.9049,-1.0893,-1.2567,-1.3397,-1.3403,-1.3569,-1.3569,-1.3569,-1.3735,-1.361,-1.3498,-1.3505,-1.3627,-1.3831,-1.3844,-1.3973,-1.4136,-1.4183,-1.4217,-1.4285,-1.4306,-1.438,-1.4482,-1.4468,-1.4455,-1.4577,-1.4624,-1.4665,-1.5056,-1.5564,-1.6137,-1.6469,-1.8384,-1.9376,-1.9831,-2.1607,-2.2576,-2.3106,-2.4503,-2.5423,-2.5707,-2.6533,-2.7015,-2.7208,-2.7473,-2.7727,-2.798,-2.8113,-2.8258,-2.8318,-2.827,-2.8246,-2.8557,-2.9342,-2.9988,-3.028,-3.1093,-3.1677,-3.173,-3.1944,-3.2238,-3.2532,-3.2812,-3.3106,-3.344,-3.3814,-3.4068,-3.4215,-3.4589,-3.5044,-3.5177,-3.5191,-3.5401,-3.7026,-3.8531,-4.0654,-4.2481,-4.4143,-4.5361,-4.6012,-4.7527,-4.8051,-4.8286,-4.8267,-4.8066,-4.7791,-4.8182,-4.8441,-4.8216,-4.8171,-4.809,-4.7593,-4.7441,-4.707,-4.6523,-4.6308,-4.6308,-4.6813,-4.7814,-4.9658,-5.1179,-5.2988,-5.4812,-5.631,-5.7655,-5.8104,-5.8731,-5.8862,-5.9173,-5.9328,-5.9508,-5.9508,-5.9508,-5.9508,-5.9508,-0.9054,-1.0893,-1.2727,-1.3403,-1.3397,-1.3901,-1.3901,-1.3569,-1.3922,-1.3846,-1.3614,-1.3648,-1.3797,-1.4014,-1.4048,-1.415,-1.4258,-1.4292,-1.4292,-1.4292,-1.4346,-1.4441,-1.4543,-1.4611,-1.4726,-1.4977,-1.4889,-1.4896,-1.4896,-1.4855,-1.5222,-1.5341,-1.6649,-1.7451,-1.8119,-1.963,-2.0557,-2.0908,-2.2455,-2.3539,-2.386,-2.5252,-2.6359,-2.677,-2.6993,-2.7228,-2.7617,-2.7914,-2.8379,-2.8608,-2.862,-2.8644,-2.9053,-2.9567,-3.0128,-3.0319,-3.1284,-3.1717,-3.1824,-3.2038,-3.2332,-3.2585,-3.2893,-3.3187,-3.3534,-3.3961,-3.4255,-3.4523,-3.483,-3.5164,-3.5204,-3.5809,-3.6845,-3.8262,-4.0523,-4.2978,-4.4363,-4.4927,-4.6268,-4.7292,-4.7923,-4.8267,-4.8231,-4.8176,-4.7937,-4.7858,-4.8226,-4.8386,-4.8347,-4.8261,-4.8157,-4.7793,-4.7402,-4.7012,-4.6484,-4.6308,-4.6308,-4.6813,-4.7814,-4.9488,-5.1347,-5.3153,-5.4975,-5.6813,-5.8129,-5.8418,-5.8887,-5.9198,-5.9353,-5.9508,-5.9508,-5.9508,-5.9508,-5.9508,-5.9508,-0.9054,-1.0887,-1.3065,-1.3735,-1.3562,-1.4225,-1.4066,-1.359,-1.4034,-1.3937,-1.3654,-1.3756,-1.3905,-1.4048,-1.4075,-1.4163,-1.4278,-1.4299,-1.4306,-1.4333,-1.4407,-1.4536,-1.4692,-1.4801,-1.4964,-1.5031,-1.4957,-1.4896,-1.4964,-1.495,-1.4997,-1.53,-1.5501,-1.5903,-1.6471,-1.7592,-1.8524,-1.8896,-2.052,-2.1471,-2.2063,-2.3704,-2.5043,-2.5272,-2.5392,-2.5736,-2.65,-2.7553,-2.8584,-2.862,-2.862,-2.8934,-2.9418,-2.9884,-3.0395,-3.0752,-3.1323,-3.1797,-3.1984,-3.2305,-3.2599,-3.2893,-3.3146,-3.344,-3.3761,-3.4108,-3.4416,-3.471,-3.4963,-3.5204,-3.5204,-3.6635,-3.7861,-3.9285,-4.1738,-4.438,-4.5185,-4.6352,-4.7239,-4.7956,-4.8121,-4.8231,-4.8121,-4.7956,-4.7662,-4.772,-4.7907,-4.8083,-4.7873,-4.7973,-4.7982,-4.7676,-4.7246,-4.6836,-4.6387,-4.6328,-4.6308,-4.6638,-4.7641,-4.9338,-5.1179,-5.3176,-5.4998,-5.6973,-5.8129,-5.8599,-5.8887,-5.9353,-5.9508,-5.9508,-5.9508,-5.9508,-5.9508,-5.9508,-5.9508,-0.9216,-1.1214,-1.3224,-1.3901,-1.3915,-1.4311,-1.418,-1.3539,-1.3837,-1.3954,-1.3858,-1.3939,-1.4041,-1.4156,-1.419,-1.4238,-1.4285,-1.4299,-1.434,-1.4407,-1.4489,-1.4645,-1.4828,-1.4943,-1.5052,-1.5113,-1.5038,-1.4991,-1.5072,-1.5086,-1.512,-1.516,-1.5181,-1.5181,-1.5368,-1.6112,-1.6673,-1.7055,-1.8607,-1.9789,-2.0011,-2.1933,-2.3194,-2.3335,-2.3688,-2.4186,-2.5625,-2.6249,-2.7634,-2.8452,-2.8753,-2.9273,-2.9929,-3.0379,-3.0702,-3.1164,-3.1699,-3.1944,-3.2171,-3.2478,-3.2826,-3.2973,-3.3253,-3.3454,-3.3708,-3.4028,-3.4509,-3.4883,-3.5057,-3.5204,-3.5204,-3.7235,-3.8885,-4.0523,-4.3165,-4.5117,-4.6264,-4.7564,-4.7832,-4.7882,-4.8029,-4.8047,-4.7919,-4.7699,-4.7563,-4.7598,-4.7779,-4.7799,-4.7626,-4.7887,-4.7969,-4.7461,-4.7031,-4.668,-4.6367,-4.6328,-4.6308,-4.6638,-4.7314,-4.8997,-5.0843,-5.2658,-5.516,-5.7473,-5.8286,-5.8599,-5.9043,-5.9508,-5.9508,-5.9508,-5.9508,-5.9508,-5.9508,-5.9508,-5.9508,-0.8878,-1.1042,-1.2886,-1.3915,-1.413,-1.4572,-1.4308,-1.3865,-1.3995,-1.4119,-1.4068,-1.4109,-1.4183,-1.4272,-1.4299,-1.4312,-1.434,-1.4346,-1.4428,-1.455,-1.4618,-1.476,-1.4909,-1.5018,-1.5079,-1.516,-1.516,-1.5181,-1.516,-1.5167,-1.5174,-1.5181,-1.5181,-1.5181,-1.5368,-1.5368,-1.5187,-1.5828,-1.6837,-1.7876,-1.8972,-1.994,-2.1099,-2.132,-2.167,-2.2721,-2.4289,-2.5539,-2.6897,-2.8126,-2.8837,-2.9396,-3.0417,-3.084,-3.1099,-3.1542,-3.2031,-3.2211,-3.2398,-3.2652,-3.2973,-3.312,-3.3293,-3.3414,-3.3681,-3.4122,-3.4589,-3.495,-3.5164,-3.5545,-3.6119,-3.7817,-4.0096,-4.2131,-4.4312,-4.6029,-4.7059,-4.7791,-4.7644,-4.7644,-4.7864,-4.7791,-4.7571,-4.7314,-4.7158,-4.7338,-4.7535,-4.7911,-4.7903,-4.7916,-4.7773,-4.7226,-4.6797,-4.6504,-4.6308,-4.6328,-4.6308,-4.6464,-4.6967,-4.8159,-4.9998,-5.2015,-5.465,-5.7314,-5.8286,-5.8731,-5.9198,-5.9508,-5.9508,-5.9508,-5.9508,-5.9508,-5.9508,-5.9508,-5.9508,-0.7041,-0.9207,-1.1374,-1.2951,-1.4258,-1.5478,-1.5056,-1.4002,-1.4664,-1.4743,-1.4102,-1.4204,-1.4272,-1.4299,-1.4312,-1.4373,-1.4448,-1.4496,-1.457,-1.4713,-1.4821,-1.4896,-1.4991,-1.5106,-1.5133,-1.5181,-1.5181,-1.5181,-1.5181,-1.5181,-1.5181,-1.5181,-1.5181,-1.5181,-1.5181,-1.5208,-1.5255,-1.5357,-1.5786,-1.6877,-1.8254,-1.7584,-1.8066,-1.8946,-1.9585,-2.0782,-2.2945,-2.4608,-2.6449,-2.8307,-2.8886,-2.959,-3.0404,-3.0827,-3.1685,-3.2326,-3.2692,-3.2612,-3.2826,-3.2959,-3.3106,-3.3267,-3.3414,-3.3561,-3.3921,-3.4295,-3.4616,-3.4402,-3.5065,-3.6273,-3.7794,-3.9943,-4.2099,-4.4077,-4.576,-4.6807,-4.7644,-4.7479,-4.7332,-4.7112,-4.7222,-4.7222,-4.7094,-4.7011,-4.6734,-4.7138,-4.7347,-4.7721,-4.7915,-4.7703,-4.748,-4.6914,-4.666,-4.6387,-4.6308,-4.6308,-4.6308,-4.6308,-4.6638,-4.7468,-4.9488,-5.166,-5.4138,-5.647,-5.7765,-5.8887,-5.9353,-5.9508,-5.9508,-5.9508,-5.9508,-5.9508,-5.9508,-5.9508,-5.9508,-0.5422,-0.7953,-1.0808,-1.2577,-1.3402,-1.5368,-1.528,-1.434,-1.4821,-1.4899,-1.4386,-1.4265,-1.4299,-1.4319,-1.4373,-1.4455,-1.4523,-1.4604,-1.4726,-1.4841,-1.4943,-1.5018,-1.5092,-1.5147,-1.5181,-1.5181,-1.5181,-1.5181,-1.5181,-1.5181,-1.5181,-1.5181,-1.5181,-1.5181,-1.5215,-1.5269,-1.5337,-1.5438,-1.576,-1.6147,-1.6897,-1.6574,-1.6404,-1.7452,-1.7452,-1.9216,-2.179,-2.3189,-2.5669,-2.7856,-2.9091,-2.9984,-3.1049,-3.1752,-3.2436,-3.3492,-3.3641,-3.3467,-3.3267,-3.324,-3.332,-3.3427,-3.3587,-3.3895,-3.4295,-3.4563,-3.5333,-3.642,-3.6618,-3.7693,-3.9622,-4.1762,-4.3239,-4.4824,-4.6503,-4.6785,-4.7222,-4.7222,-4.7057,-4.6819,-4.6599,-4.6827,-4.7055,-4.7134,-4.7101,-4.731,-4.7515,-4.7883,-4.7771,-4.7495,-4.709,-4.6504,-4.6387,-4.6328,-4.6308,-4.6308,-4.6308,-4.6308,-4.6308,-4.7314,-4.9318,-5.1492,-5.3975,-5.6103,-5.7582,-5.855,-5.9328,-5.9508,-5.9508,-5.9508,-5.9508,-5.9508,-5.9508,-5.9508,-5.9508,-0.3938,-0.634,-0.9573,-1.1521,-1.2687,-1.4534,-1.4952,-1.4318,-1.4766,-1.4822,-1.4476,-1.4299,-1.4312,-1.4367,-1.4468,-1.455,-1.4645,-1.4746,-1.4882,-1.4977,-1.5031,-1.5086,-1.516,-1.5201,-1.5228,-1.5187,-1.5248,-1.5221,-1.5201,-1.5215,-1.5235,-1.5187,-1.5242,-1.5248,-1.5282,-1.5391,-1.5499,-1.5574,-1.5784,-1.6144,-1.6247,-1.6268,-1.6069,-1.6275,-1.6474,-1.8061,-2.163,-2.251,-2.4805,-2.8309,-2.9566,-3.0466,-3.1365,-3.2097,-3.2838,-3.393,-3.4202,-3.4162,-3.3895,-3.3748,-3.3614,-3.3641,-3.3801,-3.4148,-3.4482,-3.4683,-3.5431,-3.7083,-3.7533,-3.9109,-4.1208,-4.3206,-4.4316,-4.5287,-4.659,-4.658,-4.6654,-4.6672,-4.6827,-4.6796,-4.6611,-4.6744,-4.697,-4.7215,-4.7479,-4.7664,-4.7845,-4.8042,-4.7683,-4.7383,-4.6894,-4.6367,-4.6308,-4.6308,-4.6308,-4.6308,-4.6308,-4.6308,-4.6308,-4.7468,-4.9658,-5.1638,-5.3788,-5.5758,-5.7582,-5.8706,-5.9508,-5.9508,-5.9508,-5.9508,-5.9508,-5.9508,-5.9508,-5.9508,-5.9663,-0.3098,-0.3995,-0.6237,-0.9221,-1.2463,-1.3172,-1.3793,-1.4082,-1.4632,-1.4646,-1.4299,-1.4312,-1.4387,-1.4475,-1.4557,-1.4692,-1.4923,-1.4943,-1.5045,-1.5126,-1.5167,-1.5187,-1.5242,-1.5296,-1.5309,-1.5221,-1.5262,-1.5262,-1.5248,-1.5323,-1.5282,-1.5221,-1.5343,-1.5384,-1.5438,-1.554,-1.5689,-1.5784,-1.5961,-1.6029,-1.6076,-1.6083,-1.6083,-1.6083,-1.6488,-1.8114,-2.2237,-2.2794,-2.4937,-2.9033,-3.0093,-3.0739,-3.1845,-3.257,-3.3534,-3.4223,-3.4643,-3.4616,-3.4456,-3.4215,-3.4095,-3.4028,-3.4108,-3.4349,-3.4576,-3.4904,-3.5733,-3.7446,-3.8597,-4.0341,-4.2311,-4.3895,-4.5273,-4.6002,-4.6725,-4.659,-4.6434,-4.6177,-4.6293,-4.6521,-4.6672,-4.6897,-4.729,-4.7572,-4.7778,-4.7793,-4.7761,-4.7935,-4.7632,-4.7207,-4.6797,-4.6426,-4.6328,-4.6308,-4.6308,-4.6308,-4.6308,-4.6308,-4.6308,-4.8159,-5.0505,-5.2304,-5.3788,-5.6079,-5.8055,-5.8862,-5.9508,-5.9508,-5.9508,-5.9508,-5.9508,-5.9508,-5.9508,-5.9508,-5.9663,-0.313,-0.3513,-0.4414,-0.6381,-0.8884,-1.0646,-1.1737,-1.2503,-1.3034,-1.3748,-1.4306,-1.4387,-1.4462,-1.4543,-1.4733,-1.4848,-1.4977,-1.5072,-1.5187,-1.5282,-1.5323,-1.5323,-1.5357,-1.5343,-1.533,-1.5228,-1.5255,-1.5323,-1.5343,-1.5411,-1.5459,-1.5466,-1.5527,-1.554,-1.5601,-1.5696,-1.5839,-1.5954,-1.6042,-1.6076,-1.6083,-1.6083,-1.6083,-1.6083,-1.6198,-1.8421,-2.1904,-2.2992,-2.5819,-2.8883,-3.0558,-3.1604,-3.2264,-3.3201,-3.3862,-3.475,-3.495,-3.491,-3.475,-3.4536,-3.4349,-3.4482,-3.4549,-3.4643,-3.4971,-3.619,-3.7869,-3.9312,-4.0822,-4.2791,-4.5182,-4.6163,-4.6644,-4.6973,-4.6874,-4.658,-4.6287,-4.5993,-4.6296,-4.6635,-4.6822,-4.6841,-4.7401,-4.7979,-4.7979,-4.8088,-4.7849,-4.7768,-4.748,-4.7051,-4.6641,-4.6426,-4.6328,-4.6308,-4.6308,-4.6308,-4.6308,-4.6308,-4.6308,-4.8482,-5.0484,-5.2116,-5.3765,-5.6239,-5.8261,-5.9117,-5.9583,-5.9533,-5.9508,-5.9508,-5.9508,-5.9508,-5.9508,-5.9508,-5.9663,-0.2975,-0.3359,-0.3394,-0.4483,-0.6442,-0.8222,-0.9646,-1.0545,-1.0895,-1.1965,-1.342,-1.4123,-1.4584,-1.4658,-1.4835,-1.5038,-1.512,-1.5221,-1.5343,-1.5404,-1.5432,-1.5418,-1.5411,-1.5391,-1.5337,-1.5228,-1.5296,-1.5391,-1.5398,-1.5493,-1.5594,-1.5683,-1.5744,-1.5757,-1.5737,-1.5845,-1.5974,-1.6056,-1.6083,-1.6083,-1.6083,-1.6083,-1.613,-1.6344,-1.6848,-1.942,-2.2379,-2.4283,-2.6788,-2.9518,-3.1458,-3.2376,-3.307,-3.3941,-3.4504,-3.4873,-3.5177,-3.5084,-3.4883,-3.467,-3.4603,-3.4803,-3.487,-3.5409,-3.6356,-3.7638,-3.9061,-4.1835,-4.3623,-4.5247,-4.7216,-4.7211,-4.6816,-4.6892,-4.6819,-4.6544,-4.6195,-4.5902,-4.6466,-4.6822,-4.7009,-4.7196,-4.7845,-4.8177,-4.8022,-4.8129,-4.778,-4.7515,-4.7266,-4.6855,-4.6484,-4.6328,-4.6308,-4.6308,-4.6308,-4.6308,-4.6308,-4.6638,-4.6967,-4.8482,-5.0315,-5.1993,-5.4138,-5.6789,-5.8492,-5.9373,-5.9859,-6.0035,-5.9834,-5.9533,-5.9508,-5.9508,-5.9508,-5.9508,-5.9817,-0.2801,-0.2831,-0.2861,-0.4305,-0.6091,-0.6445,-0.7338,-0.8587,-0.8952,-0.9843,-1.1649,-1.3487,-1.4348,-1.4571,-1.4705,-1.5092,-1.5296,-1.5357,-1.5445,-1.554,-1.5466,-1.5425,-1.5411,-1.5391,-1.535,-1.5296,-1.5384,-1.5466,-1.5459,-1.5662,-1.5791,-1.5872,-1.5934,-1.5954,-1.5872,-1.5995,-1.6076,-1.6083,-1.6083,-1.6083,-1.6083,-1.6083,-1.6144,-1.6613,-1.8134,-2.0562,-2.3062,-2.5656,-2.8219,-3.1036,-3.2232,-3.3083,-3.3719,-3.4399,-3.495,-3.5164,-3.5191,-3.5177,-3.5137,-3.4883,-3.4897,-3.5057,-3.5084,-3.5965,-3.7638,-3.8856,-4.0225,-4.3206,-4.4755,-4.5572,-4.6572,-4.7204,-4.7057,-4.6819,-4.6764,-4.6507,-4.6158,-4.6072,-4.6447,-4.7009,-4.7401,-4.7736,-4.8158,-4.8555,-4.832,-4.8105,-4.7812,-4.7441,-4.7051,-4.6719,-4.6348,-4.6308,-4.6308,-4.6308,-4.6308,-4.6308,-4.6464,-4.6813,-4.7721,-4.9142,-5.1205,-5.3611,-5.5717,-5.7777,-5.897,-6.0104,-6.0487,-6.0688,-6.0261,-5.9809,-5.9558,-5.9508,-5.9508,-5.9508,-5.9817,-0.28,-0.2831,-0.2861,-0.3411,-0.4126,-0.4126,-0.502,-0.6812,-0.7918,-0.8999,-0.9885,-1.187,-1.2712,-1.3126,-1.4171,-1.4946,-1.5167,-1.5289,-1.5364,-1.5601,-1.5479,-1.5432,-1.5411,-1.5411,-1.5384,-1.5371,-1.5472,-1.5622,-1.5723,-1.5839,-1.592,-1.6001,-1.6035,-1.6049,-1.6022,-1.6069,-1.6083,-1.6083,-1.6083,-1.6083,-1.6083,-1.6083,-1.611,-1.6385,-1.8823,-2.1325,-2.3875,-2.6741,-2.948,-3.1856,-3.3027,-3.3836,-3.4163,-3.4807,-3.5084,-3.5191,-3.5191,-3.5097,-3.4977,-3.4817,-3.491,-3.507,-3.5348,-3.6147,-3.8054,-3.9905,-4.2066,-4.4412,-4.5889,-4.6807,-4.7741,-4.7901,-4.7717,-4.713,-4.6874,-4.6525,-4.6195,-4.637,-4.6635,-4.7196,-4.7588,-4.805,-4.8488,-4.8359,-4.8086,-4.7754,-4.7461,-4.7246,-4.6894,-4.6621,-4.6308,-4.6308,-4.6308,-4.6308,-4.6308,-4.6406,-4.6484,-4.6699,-4.8157,-4.999,-5.2228,-5.4756,-5.6956,-5.8851,-5.9871,-6.0889,-6.0914,-6.0839,-6.0487,-6.0111,-5.9759,-5.9533,-5.9508,-5.9508,-5.9663,-0.28,-0.2831,-0.2861,-0.2874,-0.2874,-0.2874,-0.3595,-0.5056,-0.675,-0.7681,-0.8046,-0.9838,-1.0865,-1.1253,-1.2218,-1.3688,-1.4291,-1.4191,-1.5174,-1.5401,-1.5479,-1.5466,-1.5472,-1.5438,-1.5452,-1.5472,-1.556,-1.5683,-1.5825,-1.59,-1.5981,-1.6049,-1.6083,-1.6076,-1.6069,-1.6076,-1.6083,-1.6083,-1.6083,-1.6083,-1.6083,-1.6289,-1.6508,-1.7836,-1.9872,-2.2451,-2.5039,-2.7797,-3.0692,-3.2549,-3.3569,-3.4346,-3.4557,-3.498,-3.5191,-3.5191,-3.507,-3.491,-3.4683,-3.4603,-3.467,-3.4803,-3.4883,-3.6315,-3.8545,-4.0295,-4.2738,-4.5153,-4.7095,-4.7489,-4.7882,-4.7919,-4.7662,-4.7057,-4.6654,-4.6287,-4.6296,-4.6243,-4.6671,-4.7079,-4.7596,-4.7945,-4.8332,-4.8183,-4.7851,-4.748,-4.709,-4.6953,-4.6797,-4.6523,-4.6348,-4.6367,-4.6406,-4.6445,-4.6504,-4.6601,-4.668,-4.6738,-4.881,-5.1251,-5.3189,-5.5597,-5.7758,-5.9624,-6.0229,-6.0788,-6.0989,-6.0914,-6.0613,-6.0236,-5.9809,-5.9633,-5.9533,-5.9508,-5.9663,-0.2804,-0.2833,-0.2864,-0.2881,-0.2879,-0.2883,-0.2896,-0.3104,-0.5022,-0.5808,-0.5997,-0.8182,-0.8988,-0.9008,-0.9146,-1.0535,-1.201,-1.2335,-1.3543,-1.4758,-1.4878,-1.5116,-1.5328,-1.5499,-1.554,-1.5655,-1.5744,-1.5791,-1.5879,-1.5974,-1.6056,-1.6076,-1.6083,-1.6083,-1.6083,-1.6083,-1.6083,-1.6083,-1.6083,-1.6083,-1.6083,-1.6083,-1.7142,-1.8883,-2.1353,-2.3983,-2.6862,-2.9874,-3.1979,-3.3294,-3.4121,-3.4557,-3.498,-3.5177,-3.5177,-3.5084,-3.4857,-3.4616,-3.4376,-3.4322,-3.4255,-3.4295,-3.4282,-3.6693,-3.9195,-4.0896,-4.294,-4.5344,-4.7174,-4.7083,-4.7222,-4.7167,-4.7094,-4.6635,-4.6232,-4.6016,-4.5983,-4.613,-4.6366,-4.6858,-4.7126,-4.7509,-4.7904,-4.7891,-4.7773,-4.7793,-4.7461,-4.7031,-4.6836,-4.6504,-4.6387,-4.6484,-4.6543,-4.6621,-4.6719,-4.6914,-4.7012,-4.7129,-5.0485,-5.2908,-5.4839,-5.6511,-5.8844,-6.0354,-6.0288,-6.0688,-6.0989,-6.0989,-6.0788,-6.0362,-5.9859,-5.9633,-5.9508,-5.9508,-5.9663,-0.2871,-0.2868,-0.2938,-0.2957,-0.2938,-0.2936,-0.2942,-0.314,-0.3762,-0.3973,-0.3947,-0.5889,-0.6896,-0.7062,-0.8312,-0.934,-0.9772,-1.0372,-1.1528,-1.2505,-1.3686,-1.4285,-1.5103,-1.5554,-1.5649,-1.5757,-1.5852,-1.592,-1.5995,-1.6083,-1.6083,-1.6083,-1.6083,-1.6083,-1.6083,-1.6083,-1.6083,-1.6083,-1.6083,-1.6083,-1.6275,-1.6275,-1.7754,-1.9908,-2.2498,-2.5154,-2.8242,-3.1167,-3.3058,-3.3819,-3.4544,-3.498,-3.5191,-3.5004,-3.4843,-3.4589,-3.4456,-3.4322,-3.4082,-3.4015,-3.3948,-3.3788,-3.3734,-3.6349,-3.9105,-4.1238,-4.2623,-4.5151,-4.6929,-4.6892,-4.6874,-4.6837,-4.6654,-4.6324,-4.5902,-4.5871,-4.5833,-4.6064,-4.6314,-4.6715,-4.698,-4.7392,-4.791,-4.7793,-4.7715,-4.7969,-4.7871,-4.7344,-4.6933,-4.6601,-4.6484,-4.6601,-4.6699,-4.6797,-4.7148,-4.7363,-4.7441,-4.8057,-5.1295,-5.3928,-5.5086,-5.6996,-5.968,-6.0899,-6.0597,-6.0864,-6.1115,-6.0964,-6.0613,-6.0311,-5.9885,-5.9659,-5.9508,-5.9508,-5.9792,-0.2906,-0.2901,-0.2961,-0.2984,-0.298,-0.2979,-0.2984,-0.3005,-0.305,-0.3058,-0.3237,-0.4226,-0.4817,-0.5005,-0.59,-0.7037,-0.7897,-0.8226,-0.956,-1.2112,-1.2292,-1.3932,-1.4969,-1.5628,-1.5757,-1.5866,-1.5947,-1.6001,-1.6062,-1.6083,-1.6083,-1.6083,-1.6083,-1.6083,-1.6083,-1.6083,-1.6083,-1.6083,-1.6083,-1.6083,-1.6282,-1.6878,-1.8742,-2.0733,-2.3422,-2.6444,-2.9318,-3.2324,-3.3416,-3.4033,-3.4648,-3.4696,-3.4576,-3.4282,-3.4309,-3.4082,-3.3988,-3.3881,-3.3721,-3.3694,-3.3574,-3.3467,-3.3414,-3.5949,-3.8295,-4.0394,-4.2969,-4.5514,-4.6161,-4.6599,-4.6617,-4.658,-4.6305,-4.603,-4.5814,-4.5779,-4.5718,-4.5848,-4.637,-4.6806,-4.734,-4.7793,-4.7832,-4.7656,-4.7539,-4.7598,-4.7617,-4.7441,-4.709,-4.6816,-4.6738,-4.6797,-4.6894,-4.7012,-4.7402,-4.7793,-4.793,-4.8932,-5.1799,-5.4062,-5.5453,-5.7257,-5.9756,-6.0576,-6.0881,-6.0914,-6.0688,-6.0588,-6.0337,-6.0035,-5.9809,-5.9633,-5.9508,-5.9508,-5.9817,-0.2927,-0.2927,-0.2956,-0.299,-0.3009,-0.301,-0.3025,-0.3055,-0.3081,-0.3096,-0.3099,-0.3123,-0.3323,-0.3689,-0.4025,-0.4783,-0.5579,-0.5942,-0.766,-1.175,-1.1719,-1.2752,-1.4435,-1.5535,-1.5811,-1.5974,-1.6069,-1.6049,-1.6069,-1.6083,-1.6083,-1.6083,-1.6083,-1.6083,-1.6083,-1.6123,-1.6123,-1.609,-1.6117,-1.6137,-1.6715,-1.8092,-2.0312,-2.2528,-2.5312,-2.7964,-3.0684,-3.2338,-3.3278,-3.3524,-3.3778,-3.3975,-3.3681,-3.3574,-3.3681,-3.3681,-3.3601,-3.3574,-3.3507,-3.3494,-3.3467,-3.3427,-3.3414,-3.6004,-3.8264,-3.9699,-4.2067,-4.5,-4.6024,-4.6232,-4.6232,-4.6085,-4.5828,-4.5703,-4.5501,-4.5793,-4.6076,-4.6133,-4.6613,-4.7048,-4.7165,-4.7578,-4.7598,-4.7441,-4.7539,-4.7363,-4.7344,-4.7383,-4.7266,-4.7031,-4.7012,-4.7031,-4.7129,-4.7344,-4.7812,-4.8183,-4.8418,-4.9853,-5.224,-5.4062,-5.5235,-5.7191,-5.9601,-6.0188,-6.0588,-6.0261,-6.0035,-6.001,-5.9985,-5.9759,-5.9583,-5.9533,-5.9508,-5.9508,-5.9971,-0.3006,-0.2988,-0.3018,-0.3036,-0.3041,-0.3041,-0.3044,-0.3055,-0.3084,-0.3096,-0.3099,-0.3104,-0.3108,-0.31,-0.3071,-0.3642,-0.3852,-0.4432,-0.5399,-0.7924,-0.9461,-1.1589,-1.3433,-1.51,-1.5616,-1.5913,-1.6001,-1.6083,-1.6083,-1.6083,-1.6083,-1.609,-1.6083,-1.6083,-1.611,-1.6171,-1.6171,-1.6096,-1.6157,-1.6405,-1.6827,-1.8444,-2.0699,-2.3079,-2.5798,-2.8577,-3.095,-3.2338,-3.2872,-3.3439,-3.3452,-3.344,-3.312,-3.328,-3.3307,-3.3253,-3.336,-3.3374,-3.3414,-3.3414,-3.3414,-3.3414,-3.4,-3.6144,-3.8111,-3.9089,-4.1045,-4.4145,-4.5883,-4.5883,-4.5828,-4.5627,-4.5556,-4.5409,-4.546,-4.5875,-4.6466,-4.6709,-4.6951,-4.7168,-4.7226,-4.7246,-4.7285,-4.7363,-4.7461,-4.75,-4.7519,-4.7519,-4.7461,-4.7305,-4.7324,-4.7363,-4.7422,-4.7695,-4.8144,-4.8476,-4.8652,-4.9406,-5.1203,-5.2982,-5.4996,-5.7621,-6.0014,-5.9922,-6.006,-5.9834,-5.9709,-5.9633,-5.9558,-5.9508,-5.9508,-5.9508,-5.9508,-5.9508,-5.9971,-0.3043,-0.3029,-0.3044,-0.3052,-0.3052,-0.3052,-0.3052,-0.3055,-0.307,-0.3077,-0.308,-0.3089,-0.3091,-0.308,-0.3059,-0.3059,-0.3081,-0.3092,-0.483,-0.6387,-0.8339,-1.0477,-1.2659,-1.4648,-1.5542,-1.5845,-1.5995,-1.6083,-1.6083,-1.609,-1.609,-1.6137,-1.613,-1.611,-1.6157,-1.6212,-1.6185,-1.609,-1.6185,-1.6834,-1.7673,-1.9642,-2.2029,-2.4615,-2.7225,-2.961,-3.1064,-3.2216,-3.2602,-3.2802,-3.2786,-3.2839,-3.2679,-3.2759,-3.2959,-3.312,-3.324,-3.328,-3.336,-3.3387,-3.3387,-3.3387,-3.3387,-3.5338,-3.8698,-3.9867,-4.1624,-4.4335,-4.5695,-4.5883,-4.6149,-4.5982,-4.5964,-4.5793,-4.5989,-4.6419,-4.6922,-4.7262,-4.7363,-4.7383,-4.7305,-4.7051,-4.709,-4.709,-4.7148,-4.6992,-4.7129,-4.7207,-4.7226,-4.7422,-4.75,-4.7637,-4.7695,-4.7851,-4.8183,-4.8516,-4.8789,-4.9688,-5.0318,-5.2906,-5.5348,-5.8151,-6.0261,-5.9985,-5.9784,-5.9659,-5.9508,-5.9508,-5.9508,-5.9508,-5.9508,-5.9508,-5.9508,-5.9508,-5.9971,-0.2851,-0.3041,-0.3039,-0.304,-0.3041,-0.3044,-0.3046,-0.3047,-0.3055,-0.3061,-0.3067,-0.3093,-0.3082,-0.3061,-0.3052,-0.3055,-0.3069,-0.31,-0.4459,-0.5802,-0.8128,-0.9863,-1.1994,-1.4161,-1.5308,-1.5866,-1.6022,-1.6069,-1.6083,-1.609,-1.613,-1.6225,-1.6205,-1.6144,-1.6205,-1.6198,-1.6123,-1.6302,-1.6736,-1.7961,-1.9536,-2.1497,-2.373,-2.6256,-2.9003,-3.0834,-3.1853,-3.2314,-3.2419,-3.235,-3.2104,-3.2158,-3.2318,-3.2412,-3.2652,-3.2879,-3.3146,-3.32,-3.328,-3.3293,-3.3307,-3.3334,-3.3347,-3.4871,-3.8169,-4.0287,-4.2031,-4.3761,-4.493,-4.6075,-4.615,-4.6261,-4.6032,-4.6208,-4.6657,-4.7057,-4.7456,-4.7637,-4.7617,-4.7578,-4.7266,-4.6973,-4.6855,-4.6855,-4.6758,-4.6601,-4.6562,-4.6601,-4.6738,-4.7129,-4.7363,-4.7637,-4.7871,-4.8047,-4.832,-4.8535,-4.8848,-4.9098,-4.9975,-5.3018,-5.5689,-5.7958,-5.9423,-5.9709,-5.9508,-5.9508,-5.9508,-5.9508,-5.9508,-5.9533,-5.9508,-5.9508,-5.9508,-5.9663,-5.9946,-0.1499,-0.2979,-0.2979,-0.298,-0.2984,-0.3006,-0.3016,-0.3025,-0.307,-0.3089,-0.3096,-0.3114,-0.3107,-0.3054,-0.3052,-0.3063,-0.3093,-0.3119,-0.3112,-0.4068,-0.7203,-0.8896,-1.0998,-1.4006,-1.538,-1.5934,-1.6042,-1.6069,-1.6056,-1.6062,-1.609,-1.613,-1.6123,-1.6103,-1.613,-1.6137,-1.6178,-1.6536,-1.7923,-1.937,-2.1273,-2.2875,-2.438,-2.6822,-2.942,-3.0522,-3.1255,-3.16,-3.1739,-3.1824,-3.177,-3.181,-3.1971,-3.2225,-3.2465,-3.2719,-3.2973,-3.312,-3.3173,-3.3146,-3.3133,-3.304,-3.3184,-3.3794,-3.6654,-3.891,-4.0807,-4.2907,-4.4263,-4.5871,-4.6107,-4.5932,-4.5754,-4.6466,-4.6825,-4.7373,-4.793,-4.7891,-4.7832,-4.7539,-4.7129,-4.6816,-4.6504,-4.6504,-4.6504,-4.6387,-4.6387,-4.6426,-4.6484,-4.6836,-4.7207,-4.7539,-4.7891,-4.8359,-4.8672,-4.8672,-4.8828,-4.8895,-4.9593,-5.2261,-5.4825,-5.7169,-5.8359,-5.9253,-5.9508,-5.9508,-5.9508,-5.9508,-5.9583,-5.9583,-5.9533,-5.9508,-5.9508,-5.9663,-5.9971]},{"header":{"parameterUnit":"m.s-1","parameterCategory":1,"la1":31.0,"la2":29.5877,"lo1":-88.7671,"lo2":-86.6584,"dx":0.0162,"dy":0.0185,"nx":115,"ny":88,"refTime":"2022-11-27T18:00:00:Z","depth":0,"parameterNumber":3,"parameterNumberName":"V-component_of_WINDS"},"data":[0.0,0.0,0.0,0.0,0.0,0.0,0.0,0.0,0.0,0.0,0.0,0.0,0.0,0.0,0.0,0.0,0.0,0.0,0.0,0.0,0.0,0.0,0.0,0.0,0.0,0.0,0.0,0.0,0.0,0.0,0.0,0.0,0.0,0.0,0.0,0.0,0.0,0.0,0.0,0.0,0.0,0.0,0.0,0.0,0.0,0.0,0.0,0.0,0.0,0.0,0.0,0.0,0.0,0.0,0.0,0.0,0.0,0.0,0.0,0.0,0.0,0.0,0.0,0.0,0.0,0.0,0.0,0.0,0.0,0.0,0.0,0.0,0.0,0.0,0.0,0.0,0.0,0.0,0.0,0.0,0.0,0.0,0.0,0.0,0.0,0.0,0.0,0.0,0.0,0.0,0.0,0.0,0.0,0.0,0.0,0.0,0.0,0.0,0.0,0.0,0.0,0.0,0.0,0.0,0.0,0.0,0.0,0.0,0.0,0.0,0.0,0.0,0.0,0.0,0.0,0.0,0.0,0.0,0.0,0.0,0.0,0.0,0.0,0.0,0.0,0.0,0.0,0.0,0.0,0.0,0.0,0.0,0.0,0.0,0.0,0.0,0.0,0.0,0.0,0.0,0.0,0.0,0.0,0.0,0.0,0.0,0.0,0.0,0.0,0.0,0.0,0.0,0.0,0.0,0.0,0.0,0.0,0.0,0.0,0.0,0.0,0.0,0.0,0.0,0.0,0.0,0.0,0.0,0.0,0.0,0.0,0.0,0.0,0.0,0.0,0.0,0.0,0.0,0.0,0.0,0.0,0.0,0.0,0.0,0.0,0.0,0.0,0.0,0.0,0.0,0.0,0.0,0.0,0.0,0.0,0.0,0.0,0.0,0.0,0.0,0.0,0.0,0.0,0.0,0.0,0.0,0.0,0.0,0.0,0.0,0.0,0.0,0.0,0.0,0.0,0.0,0.0,0.0,0.0,0.0,0.0,0.0,0.0,0.0,0.0,0.0,0.0,0.0,0.0,0.0,0.0,0.0,0.0,0.0,0.0,0.0,0.0,0.0,0.0,0.0,0.0,0.0,0.0,0.0,0.0,0.0,0.0,0.0,0.0,0.0,0.0,0.0,0.0,0.0,0.0,0.0,0.0,0.0,0.0,0.0,0.0,0.0,0.0,0.0,0.0,0.0,0.0,0.0,0.0,0.0,0.0,0.0,0.0,0.0,0.0,0.0,0.0,0.0,0.0,0.0,0.0,0.0,0.0,0.0,0.0,0.0,0.0,0.0,0.0,0.0,0.0,0.0,0.0,0.0,0.0,0.0,0.0,0.0,0.0,0.0,0.0,0.0,0.0,0.0,0.0,0.0,0.0,0.0,0.0,0.0,0.0,0.0,0.0,0.0,0.0,0.0,0.0,0.0,0.0,0.0,0.0,0.0,0.0,0.0,0.0,0.0,0.0,0.0,0.0,0.0,0.0,0.0,0.0,0.0,0.0,0.0,0.0,0.0,0.0,0.0,0.0,0.0,0.0,0.0,0.0,0.0,0.0,0.0,0.0,0.0,0.0,0.0,0.0,0.0,0.0,0.0,0.0,0.0,0.0,0.0,0.0,0.0,0.0,0.0,0.0,0.0,0.0,0.0,0.0,0.0,0.0,0.0,0.0,0.0,0.0,0.0,0.0,0.0,0.0,0.0,0.0,0.0,0.0,0.0,0.0,0.0,0.0,0.0,0.0,0.0,0.0,0.0,0.0,0.0,0.0,0.0,0.0,0.0,0.0,0.0,0.0,0.0,0.0,0.0,0.0,0.0,0.0,0.0,0.0,0.0,0.0,0.0,0.0,0.0,0.0,0.0,0.0,0.0,0.0,0.0,0.0,0.0,0.0,0.0,0.0,0.0,0.0,0.0,0.0,0.0,0.0,0.0,0.0,0.0,0.0,0.0,0.0,0.0,0.0,0.0,0.0,0.0,0.0,0.0,0.0,0.0,0.0,0.0,0.0,0.0,0.0,0.0,0.0,0.0,0.0,0.0,0.0,0.0,0.0,0.0,0.0,0.0,0.0,0.0,0.0,0.0,0.0,0.0,0.0,0.0,0.0,0.0,0.0,0.0,0.0,0.0,0.0,0.0,0.0,0.0,0.0,0.0,0.0,0.0,0.0,0.0,0.0,0.0,0.0,0.0,0.0,0.0,0.0,0.0,0.0,0.0,0.0,0.0,0.0,0.0,0.0,0.0,0.0,0.0,0.0,0.0,0.0,0.0,0.0,0.0,0.0,0.0,0.0,0.0,0.0,0.0,0.0,0.0,0.0,0.0,0.0,0.0,0.0,0.0,0.0,0.0,0.0,0.0,0.0,0.0,0.0,0.0,0.0,0.0,0.0,0.0,0.0,0.0,0.0,0.0,0.0,0.0,0.0,0.0,0.0,0.0,0.0,0.0,0.0,0.0,0.0,0.0,0.0,0.0,0.0,0.0,0.0,0.0,0.0,0.0,0.0,0.0,0.0,0.0,0.0,0.0,0.0,0.0,0.0,0.0,0.0,0.0,0.0,0.0,0.0,0.0,0.0,0.0,0.0,0.0,0.0,0.0,0.0,0.0,0.0,0.0,0.0,0.0,0.0,0.0,0.0,0.0,0.0,0.0,0.0,0.0,0.0,0.0,0.0,0.0,0.0,0.0,0.0,0.0,0.0,0.0,0.0,0.0,0.0,0.0,0.0,0.0,0.0,0.0,0.0,0.0,0.0,0.0,0.0,0.0,0.0,0.0,0.0,0.0,0.0,0.0,0.0,0.0,0.0,0.0,0.0,0.0,0.0,0.0,0.0,0.0,0.0,0.0,0.0,0.0,0.0,0.0,0.0,0.0,0.0,0.0,0.0,0.0,0.0,0.0,0.0,0.0,0.0,0.0,0.0,0.0,0.0,0.0,0.0,0.0,0.0,0.0,0.0,0.0,0.0,0.0,0.0,0.0,0.0,0.0,0.0,0.0,0.0,0.0,0.0,0.0,0.0,0.0,0.0,0.0,0.0,0.0,0.0,0.0,0.0,0.0,0.0,0.0,0.0,0.0,0.0,0.0,0.0,0.0,0.0,0.0,0.0,0.0,0.0,0.0,0.0,0.0,0.0,0.0,0.0,0.0,0.0,0.0,0.0,0.0,0.0,0.0,0.0,0.0,0.0,0.0,0.0,0.0,0.0,0.0,0.0,0.0,0.0,0.0,0.0,0.0,0.0,0.0,0.0,0.0,0.0,0.0,0.0,0.0,0.0,0.0,0.0,0.0,0.0,0.0,0.0,0.0,0.0,0.0,0.0,0.0,0.0,0.0,0.0,0.0,0.0,0.0,0.0,0.0,0.0,0.0,0.0,0.0,0.0,0.0,0.0,0.0,0.0,0.0,0.0,0.0,0.0,0.0,0.0,0.0,0.0,0.0,0.0,0.0,0.0,0.0,0.0,0.0,0.0,0.0,0.0,0.0,0.0,0.0,0.0,0.0,0.0,0.0,0.0,0.0,0.0,0.0,0.0,0.0,0.0,0.0,0.0,0.0,0.0,0.0,0.0,0.0,0.0,0.0,0.0,0.0,0.0,0.0,0.0,0.0,0.0,0.0,0.0,0.0,0.0,0.0,0.0,0.0,0.0,0.0,0.0,0.0,0.0,0.0,0.0,0.0,0.0,0.0,0.0,0.0,0.0,0.0,0.0,0.0,0.0,0.0,0.0,0.0,0.0,0.0,0.0,0.0,0.0,0.0,0.0,0.0,0.0,0.0,0.0,0.0,0.0,0.0,0.0,0.0,0.0,0.0,0.0,0.0,0.0,0.0,0.0,0.0,0.0,0.0,0.0,0.0,0.0,0.0,0.0,0.0,0.0,0.0,0.0,0.0,0.0,0.0,0.0,0.0,0.0,0.0,0.0,0.0,0.0,0.0,0.0,0.0,0.0,0.0,0.0,0.0,0.0,0.0,0.0,0.0,0.0,0.0,0.0,0.0,0.0,0.0,0.0,0.0,0.0,0.0,0.0,0.0,0.0,0.0,0.0,0.0,0.0,0.0,0.0,0.0,0.0,0.0,0.0,0.0,0.0,0.0,0.0,0.0,0.0,0.0,0.0,0.0,0.0,0.0,0.0,0.0,0.0,0.0,0.0,0.0,0.0,0.0,0.0,0.0,0.0,0.0,0.0,0.0,0.0,0.0,0.0,0.0,0.0,0.0,0.0,0.0,0.0,0.0,0.0,0.0,0.0,0.0,0.0,0.0,0.0,0.0,0.0,0.0,-5.994,0.0,0.0,0.0,-5.8763,0.0,0.0,0.0,0.0,0.0,0.0,0.0,0.0,0.0,0.0,0.0,0.0,0.0,0.0,0.0,0.0,0.0,0.0,0.0,0.0,0.0,0.0,0.0,0.0,0.0,0.0,0.0,0.0,0.0,0.0,0.0,0.0,0.0,0.0,0.0,0.0,0.0,0.0,0.0,0.0,0.0,0.0,0.0,0.0,0.0,0.0,0.0,0.0,0.0,0.0,0.0,0.0,0.0,0.0,0.0,0.0,0.0,0.0,0.0,0.0,0.0,0.0,0.0,0.0,0.0,0.0,0.0,0.0,0.0,0.0,0.0,0.0,0.0,0.0,0.0,0.0,0.0,0.0,0.0,0.0,0.0,0.0,0.0,0.0,0.0,0.0,0.0,0.0,0.0,0.0,0.0,0.0,0.0,0.0,0.0,0.0,0.0,0.0,0.0,0.0,0.0,0.0,0.0,0.0,0.0,0.0,0.0,0.0,0.0,0.0,-6.0167,-5.9708,-5.839,-5.8334,-5.962,0.0,0.0,0.0,0.0,0.0,0.0,0.0,0.0,0.0,0.0,0.0,0.0,0.0,0.0,0.0,0.0,0.0,0.0,0.0,0.0,0.0,0.0,0.0,0.0,0.0,0.0,0.0,0.0,0.0,0.0,0.0,0.0,0.0,0.0,0.0,0.0,0.0,0.0,0.0,0.0,0.0,0.0,0.0,0.0,0.0,0.0,0.0,0.0,0.0,0.0,0.0,0.0,0.0,0.0,0.0,0.0,0.0,0.0,0.0,0.0,0.0,0.0,0.0,0.0,0.0,0.0,0.0,0.0,0.0,0.0,0.0,0.0,0.0,0.0,0.0,0.0,0.0,0.0,0.0,0.0,0.0,0.0,0.0,0.0,0.0,0.0,0.0,0.0,0.0,0.0,0.0,0.0,0.0,0.0,0.0,0.0,0.0,0.0,0.0,0.0,0.0,0.0,0.0,0.0,0.0,0.0,0.0,0.0,0.0,0.0,0.0,0.0,-5.8802,-5.8529,-5.9659,0.0,0.0,0.0,0.0,0.0,0.0,0.0,0.0,0.0,0.0,0.0,0.0,0.0,0.0,0.0,0.0,0.0,0.0,0.0,0.0,0.0,0.0,0.0,0.0,0.0,0.0,0.0,0.0,0.0,0.0,0.0,0.0,0.0,0.0,0.0,0.0,0.0,0.0,0.0,0.0,0.0,0.0,0.0,0.0,0.0,0.0,0.0,0.0,0.0,0.0,0.0,0.0,0.0,0.0,0.0,0.0,0.0,0.0,0.0,0.0,0.0,0.0,0.0,0.0,0.0,0.0,0.0,0.0,0.0,0.0,0.0,0.0,0.0,0.0,0.0,0.0,0.0,0.0,0.0,0.0,0.0,0.0,0.0,0.0,0.0,0.0,0.0,0.0,0.0,0.0,0.0,0.0,0.0,0.0,0.0,0.0,0.0,0.0,0.0,0.0,0.0,0.0,0.0,0.0,0.0,0.0,0.0,0.0,0.0,0.0,-6.1095,-6.0321,-5.9386,0.0,-5.8013,0.0,0.0,0.0,0.0,0.0,0.0,0.0,0.0,0.0,0.0,0.0,0.0,0.0,0.0,0.0,0.0,0.0,0.0,0.0,0.0,0.0,0.0,0.0,0.0,0.0,0.0,0.0,0.0,0.0,0.0,0.0,0.0,0.0,0.0,0.0,0.0,0.0,0.0,0.0,0.0,0.0,0.0,0.0,0.0,0.0,0.0,0.0,0.0,0.0,0.0,0.0,0.0,0.0,0.0,0.0,0.0,0.0,0.0,0.0,0.0,0.0,0.0,0.0,0.0,0.0,0.0,0.0,0.0,0.0,0.0,0.0,0.0,0.0,0.0,0.0,0.0,0.0,0.0,0.0,0.0,0.0,0.0,0.0,0.0,0.0,0.0,0.0,0.0,0.0,0.0,0.0,0.0,0.0,0.0,0.0,0.0,0.0,0.0,0.0,0.0,0.0,0.0,0.0,0.0,0.0,0.0,0.0,0.0,0.0,0.0,-6.1205,-6.0321,-5.9932,-5.9319,0.0,0.0,0.0,0.0,0.0,0.0,0.0,0.0,0.0,0.0,0.0,0.0,0.0,0.0,0.0,0.0,0.0,0.0,0.0,0.0,0.0,0.0,0.0,0.0,0.0,0.0,0.0,0.0,0.0,0.0,0.0,0.0,0.0,0.0,0.0,0.0,0.0,0.0,0.0,0.0,0.0,0.0,0.0,0.0,0.0,0.0,0.0,0.0,0.0,0.0,0.0,0.0,0.0,0.0,0.0,0.0,0.0,0.0,0.0,0.0,0.0,0.0,0.0,0.0,0.0,0.0,0.0,0.0,0.0,0.0,0.0,0.0,0.0,0.0,0.0,0.0,0.0,0.0,0.0,0.0,0.0,0.0,0.0,0.0,0.0,0.0,0.0,0.0,0.0,0.0,0.0,0.0,0.0,0.0,0.0,0.0,0.0,0.0,0.0,0.0,0.0,0.0,0.0,0.0,0.0,0.0,0.0,0.0,0.0,0.0,-6.147,-6.119,-6.0369,-6.0321,-5.9688,-5.8402,0.0,0.0,0.0,0.0,0.0,0.0,0.0,0.0,0.0,0.0,0.0,0.0,0.0,0.0,0.0,0.0,0.0,0.0,0.0,0.0,0.0,0.0,0.0,0.0,0.0,0.0,0.0,0.0,0.0,0.0,0.0,0.0,0.0,0.0,0.0,0.0,0.0,0.0,0.0,0.0,0.0,0.0,0.0,0.0,0.0,0.0,0.0,0.0,0.0,0.0,0.0,0.0,0.0,0.0,0.0,0.0,0.0,0.0,0.0,0.0,0.0,0.0,0.0,0.0,0.0,0.0,0.0,0.0,0.0,0.0,0.0,0.0,0.0,0.0,0.0,0.0,0.0,0.0,0.0,0.0,0.0,0.0,0.0,0.0,0.0,0.0,0.0,0.0,0.0,0.0,0.0,0.0,0.0,0.0,0.0,0.0,0.0,0.0,0.0,0.0,0.0,0.0,0.0,0.0,0.0,0.0,0.0,0.0,-6.0417,-6.1144,-6.114,-6.0321,-6.0282,-5.9454,0.0,0.0,0.0,0.0,0.0,0.0,0.0,0.0,0.0,0.0,0.0,0.0,0.0,0.0,0.0,0.0,0.0,0.0,0.0,0.0,0.0,0.0,0.0,0.0,0.0,0.0,0.0,0.0,0.0,0.0,0.0,0.0,0.0,0.0,0.0,0.0,0.0,0.0,0.0,0.0,0.0,0.0,0.0,0.0,0.0,0.0,0.0,0.0,0.0,0.0,0.0,0.0,0.0,0.0,0.0,0.0,0.0,0.0,0.0,0.0,0.0,0.0,0.0,0.0,0.0,0.0,0.0,0.0,0.0,0.0,0.0,0.0,0.0,0.0,0.0,0.0,0.0,0.0,0.0,0.0,0.0,0.0,0.0,0.0,0.0,0.0,0.0,0.0,0.0,0.0,0.0,0.0,0.0,0.0,0.0,0.0,0.0,0.0,0.0,0.0,0.0,0.0,0.0,0.0,0.0,0.0,0.0,0.0,0.0,-6.0333,-5.9537,-5.9503,-6.0204,-5.923,-5.8448,0.0,0.0,0.0,0.0,0.0,0.0,0.0,0.0,0.0,0.0,0.0,0.0,0.0,0.0,0.0,0.0,0.0,0.0,0.0,0.0,0.0,0.0,0.0,0.0,0.0,0.0,0.0,0.0,0.0,0.0,0.0,0.0,0.0,0.0,0.0,0.0,0.0,0.0,0.0,0.0,0.0,0.0,0.0,0.0,0.0,0.0,0.0,0.0,0.0,0.0,0.0,0.0,0.0,0.0,0.0,0.0,0.0,0.0,0.0,0.0,0.0,0.0,0.0,0.0,0.0,0.0,0.0,0.0,0.0,0.0,0.0,0.0,0.0,0.0,0.0,0.0,0.0,0.0,0.0,0.0,0.0,0.0,0.0,0.0,0.0,0.0,0.0,0.0,0.0,0.0,0.0,0.0,0.0,0.0,0.0,0.0,0.0,0.0,0.0,0.0,0.0,0.0,0.0,0.0,0.0,0.0,0.0,0.0,0.0,-6.1127,-5.9997,-5.9815,-6.0594,-5.9241,-5.8311,0.0,0.0,0.0,0.0,0.0,0.0,0.0,0.0,0.0,0.0,0.0,0.0,0.0,0.0,0.0,0.0,0.0,0.0,0.0,0.0,0.0,0.0,0.0,0.0,0.0,0.0,0.0,0.0,0.0,0.0,0.0,0.0,0.0,0.0,0.0,0.0,0.0,0.0,0.0,0.0,0.0,0.0,0.0,0.0,0.0,0.0,0.0,0.0,0.0,0.0,0.0,0.0,0.0,0.0,0.0,0.0,0.0,0.0,0.0,0.0,0.0,0.0,0.0,0.0,0.0,0.0,0.0,0.0,0.0,0.0,0.0,0.0,0.0,0.0,0.0,0.0,0.0,0.0,0.0,0.0,0.0,0.0,0.0,0.0,0.0,0.0,0.0,0.0,0.0,0.0,0.0,0.0,0.0,0.0,0.0,0.0,0.0,0.0,0.0,0.0,0.0,0.0,0.0,0.0,0.0,0.0,0.0,0.0,-6.2024,-6.2747,-6.2737,-6.227,-6.1607,-6.0487,-5.911,0.0,0.0,0.0,0.0,0.0,0.0,0.0,0.0,0.0,0.0,0.0,0.0,0.0,0.0,0.0,0.0,0.0,0.0,0.0,0.0,0.0,0.0,0.0,0.0,0.0,0.0,0.0,0.0,0.0,0.0,0.0,0.0,0.0,0.0,0.0,0.0,0.0,0.0,0.0,0.0,0.0,0.0,0.0,0.0,0.0,0.0,0.0,0.0,0.0,0.0,0.0,0.0,0.0,0.0,0.0,0.0,0.0,0.0,0.0,0.0,0.0,0.0,0.0,0.0,0.0,0.0,0.0,0.0,0.0,0.0,0.0,0.0,0.0,0.0,0.0,0.0,0.0,0.0,0.0,0.0,0.0,0.0,0.0,0.0,0.0,0.0,0.0,0.0,0.0,0.0,0.0,0.0,0.0,0.0,0.0,0.0,0.0,0.0,0.0,0.0,0.0,0.0,0.0,0.0,0.0,0.0,0.0,0.0,0.0,-6.0282,-6.1373,-6.1528,-6.0553,-6.0203,-5.9591,0.0,0.0,0.0,0.0,0.0,0.0,0.0,0.0,0.0,0.0,0.0,0.0,0.0,0.0,0.0,0.0,0.0,0.0,0.0,0.0,0.0,0.0,0.0,0.0,0.0,0.0,0.0,0.0,0.0,0.0,0.0,0.0,0.0,0.0,0.0,0.0,0.0,0.0,0.0,0.0,0.0,0.0,0.0,0.0,0.0,0.0,0.0,0.0,0.0,0.0,0.0,0.0,0.0,0.0,0.0,0.0,0.0,0.0,0.0,0.0,0.0,0.0,0.0,0.0,0.0,0.0,0.0,0.0,0.0,0.0,0.0,0.0,0.0,0.0,0.0,0.0,0.0,0.0,0.0,0.0,0.0,0.0,0.0,0.0,0.0,0.0,0.0,0.0,0.0,0.0,0.0,0.0,0.0,0.0,0.0,0.0,0.0,0.0,0.0,0.0,0.0,0.0,0.0,0.0,0.0,0.0,0.0,0.0,0.0,-6.0411,-6.2199,-6.2663,-6.1352,-6.0954,-6.0307,-5.9419,0.0,0.0,0.0,0.0,0.0,0.0,0.0,0.0,0.0,0.0,0.0,0.0,0.0,0.0,0.0,0.0,0.0,0.0,0.0,0.0,0.0,0.0,0.0,0.0,0.0,0.0,0.0,0.0,0.0,0.0,0.0,0.0,0.0,0.0,0.0,0.0,0.0,0.0,0.0,0.0,0.0,0.0,0.0,0.0,0.0,0.0,0.0,0.0,0.0,0.0,0.0,0.0,0.0,0.0,0.0,0.0,0.0,0.0,0.0,0.0,0.0,0.0,0.0,0.0,0.0,0.0,0.0,0.0,0.0,0.0,0.0,0.0,0.0,0.0,0.0,0.0,0.0,0.0,0.0,0.0,0.0,0.0,0.0,0.0,0.0,0.0,0.0,0.0,0.0,0.0,0.0,0.0,0.0,0.0,0.0,0.0,0.0,0.0,0.0,0.0,0.0,0.0,0.0,0.0,0.0,0.0,0.0,0.0,-6.2258,-6.4752,-6.5178,-6.3477,-6.2497,-6.1204,0.0,0.0,0.0,0.0,0.0,0.0,0.0,0.0,0.0,0.0,0.0,0.0,0.0,0.0,0.0,0.0,0.0,0.0,0.0,0.0,0.0,0.0,0.0,0.0,0.0,0.0,0.0,0.0,0.0,0.0,0.0,0.0,0.0,0.0,0.0,0.0,0.0,0.0,0.0,0.0,0.0,0.0,0.0,0.0,0.0,0.0,0.0,0.0,0.0,0.0,0.0,0.0,0.0,0.0,0.0,0.0,0.0,0.0,0.0,0.0,0.0,0.0,0.0,0.0,0.0,0.0,0.0,0.0,0.0,0.0,0.0,0.0,0.0,0.0,0.0,0.0,0.0,0.0,0.0,0.0,0.0,0.0,0.0,0.0,0.0,0.0,0.0,0.0,0.0,0.0,0.0,0.0,0.0,0.0,0.0,0.0,0.0,0.0,0.0,0.0,0.0,0.0,0.0,0.0,0.0,0.0,0.0,0.0,0.0,-6.3045,-6.468,-6.4845,-6.333,-6.2421,-6.1709,0.0,0.0,0.0,0.0,0.0,0.0,0.0,0.0,0.0,0.0,0.0,0.0,0.0,0.0,0.0,0.0,0.0,0.0,0.0,0.0,0.0,0.0,0.0,0.0,0.0,0.0,0.0,0.0,0.0,0.0,0.0,0.0,0.0,0.0,0.0,0.0,0.0,0.0,0.0,0.0,0.0,0.0,0.0,0.0,0.0,0.0,0.0,0.0,0.0,0.0,0.0,0.0,0.0,0.0,0.0,0.0,0.0,0.0,0.0,0.0,0.0,0.0,0.0,0.0,0.0,0.0,0.0,0.0,0.0,0.0,0.0,0.0,0.0,0.0,0.0,0.0,0.0,0.0,0.0,0.0,0.0,0.0,0.0,0.0,0.0,0.0,0.0,0.0,0.0,0.0,0.0,0.0,0.0,0.0,0.0,0.0,0.0,0.0,0.0,0.0,0.0,0.0,0.0,0.0,0.0,0.0,0.0,0.0,-6.4084,-6.4112,-6.4967,-6.5006,-6.4151,-6.3334,-6.2705,0.0,0.0,0.0,0.0,0.0,0.0,0.0,0.0,0.0,0.0,0.0,0.0,0.0,0.0,0.0,0.0,0.0,0.0,0.0,0.0,0.0,0.0,0.0,0.0,0.0,0.0,0.0,0.0,0.0,0.0,0.0,0.0,0.0,0.0,0.0,0.0,0.0,0.0,0.0,0.0,0.0,0.0,0.0,0.0,0.0,0.0,0.0,0.0,0.0,0.0,0.0,0.0,0.0,0.0,0.0,0.0,0.0,0.0,0.0,0.0,0.0,0.0,0.0,0.0,0.0,0.0,0.0,0.0,0.0,0.0,0.0,0.0,0.0,0.0,0.0,0.0,0.0,0.0,0.0,0.0,0.0,0.0,0.0,0.0,0.0,0.0,0.0,0.0,0.0,0.0,0.0,0.0,0.0,0.0,0.0,0.0,0.0,0.0,0.0,0.0,0.0,0.0,0.0,0.0,0.0,0.0,0.0,0.0,-6.5149,-6.5635,-6.5681,-6.5681,-6.5643,-6.4611,-6.3694,0.0,0.0,0.0,0.0,0.0,0.0,0.0,0.0,0.0,0.0,0.0,0.0,0.0,0.0,0.0,0.0,0.0,0.0,0.0,0.0,0.0,0.0,0.0,0.0,0.0,0.0,0.0,0.0,0.0,0.0,0.0,0.0,0.0,0.0,0.0,0.0,0.0,0.0,0.0,0.0,0.0,0.0,0.0,0.0,0.0,0.0,0.0,0.0,0.0,0.0,0.0,0.0,0.0,0.0,0.0,0.0,0.0,0.0,0.0,0.0,0.0,0.0,0.0,0.0,0.0,0.0,0.0,0.0,0.0,0.0,0.0,0.0,0.0,0.0,0.0,0.0,0.0,0.0,0.0,0.0,0.0,0.0,0.0,0.0,0.0,0.0,0.0,0.0,0.0,0.0,0.0,0.0,0.0,0.0,0.0,0.0,0.0,0.0,0.0,0.0,0.0,0.0,0.0,0.0,0.0,0.0,0.0,0.0,-6.6101,-6.7355,-6.7362,-6.7362,-6.7362,-6.4649,-6.3083,0.0,0.0,0.0,0.0,0.0,0.0,0.0,0.0,0.0,0.0,0.0,0.0,0.0,0.0,0.0,0.0,0.0,0.0,0.0,0.0,0.0,0.0,0.0,0.0,0.0,0.0,0.0,0.0,0.0,0.0,0.0,0.0,0.0,0.0,0.0,0.0,0.0,0.0,0.0,0.0,0.0,0.0,0.0,0.0,0.0,0.0,0.0,0.0,-5.1831,0.0,0.0,0.0,0.0,0.0,0.0,0.0,0.0,0.0,0.0,0.0,0.0,0.0,0.0,0.0,0.0,0.0,0.0,0.0,0.0,0.0,0.0,0.0,0.0,0.0,0.0,0.0,0.0,0.0,0.0,0.0,0.0,0.0,0.0,0.0,0.0,0.0,0.0,0.0,0.0,0.0,0.0,0.0,0.0,0.0,0.0,0.0,0.0,0.0,0.0,0.0,0.0,0.0,0.0,0.0,0.0,0.0,0.0,0.0,-6.6814,-6.7852,-6.7897,-6.7897,-6.7821,-6.6178,-6.4688,0.0,0.0,0.0,0.0,0.0,0.0,0.0,0.0,0.0,0.0,0.0,0.0,0.0,0.0,0.0,0.0,0.0,0.0,0.0,0.0,0.0,0.0,0.0,0.0,0.0,0.0,0.0,0.0,0.0,0.0,0.0,0.0,0.0,0.0,0.0,0.0,0.0,0.0,0.0,0.0,0.0,0.0,0.0,0.0,0.0,0.0,0.0,0.0,0.0,0.0,0.0,0.0,0.0,0.0,0.0,0.0,0.0,0.0,0.0,0.0,0.0,0.0,0.0,0.0,0.0,0.0,0.0,0.0,0.0,0.0,0.0,0.0,0.0,0.0,0.0,0.0,0.0,0.0,0.0,0.0,0.0,0.0,0.0,0.0,0.0,0.0,0.0,0.0,0.0,0.0,0.0,0.0,0.0,0.0,0.0,0.0,0.0,0.0,0.0,0.0,0.0,0.0,0.0,0.0,0.0,0.0,0.0,-6.6409,-6.7515,-6.8272,-6.8547,-6.8623,-6.847,-6.847,-6.7171,-6.4496,0.0,0.0,0.0,0.0,0.0,0.0,0.0,0.0,0.0,0.0,0.0,0.0,0.0,0.0,0.0,0.0,0.0,0.0,0.0,0.0,0.0,0.0,0.0,0.0,0.0,0.0,0.0,0.0,0.0,0.0,0.0,0.0,0.0,0.0,0.0,0.0,0.0,0.0,-5.3432,-5.2941,0.0,0.0,0.0,0.0,0.0,0.0,0.0,0.0,-5.0991,0.0,0.0,0.0,0.0,0.0,0.0,0.0,0.0,0.0,0.0,0.0,0.0,0.0,0.0,0.0,0.0,0.0,0.0,0.0,0.0,0.0,0.0,0.0,0.0,0.0,0.0,0.0,0.0,0.0,0.0,0.0,0.0,0.0,0.0,0.0,0.0,0.0,0.0,0.0,0.0,0.0,0.0,0.0,0.0,0.0,0.0,0.0,0.0,0.0,0.0,0.0,0.0,0.0,0.0,0.0,0.0,-6.5558,-6.7044,-6.8526,-6.996,-7.1412,-7.1794,-7.1107,-7.1068,-6.9234,-6.5452,0.0,0.0,0.0,0.0,0.0,0.0,0.0,0.0,0.0,0.0,0.0,0.0,0.0,0.0,0.0,0.0,0.0,0.0,0.0,0.0,0.0,0.0,0.0,0.0,0.0,0.0,0.0,0.0,0.0,0.0,0.0,0.0,0.0,0.0,0.0,0.0,0.0,0.0,0.0,-5.2432,-5.2289,0.0,0.0,0.0,0.0,0.0,0.0,0.0,0.0,-5.0994,0.0,0.0,0.0,0.0,0.0,0.0,0.0,0.0,0.0,0.0,0.0,0.0,0.0,0.0,0.0,0.0,0.0,0.0,0.0,0.0,0.0,0.0,0.0,0.0,0.0,0.0,0.0,0.0,0.0,0.0,0.0,0.0,0.0,0.0,0.0,0.0,0.0,0.0,0.0,0.0,0.0,0.0,0.0,0.0,0.0,0.0,0.0,0.0,0.0,0.0,0.0,0.0,0.0,0.0,0.0,-6.5163,-6.696,-6.8311,-6.912,-7.0381,-7.0839,-7.0419,-7.0801,-6.9273,0.0,0.0,0.0,0.0,0.0,0.0,0.0,0.0,0.0,0.0,0.0,0.0,0.0,0.0,0.0,0.0,0.0,0.0,0.0,0.0,0.0,0.0,0.0,0.0,0.0,0.0,0.0,0.0,0.0,0.0,0.0,0.0,0.0,0.0,0.0,0.0,0.0,0.0,0.0,0.0,-5.2695,-5.2523,-5.3905,0.0,0.0,0.0,0.0,0.0,0.0,-5.1902,-5.1425,0.0,0.0,0.0,0.0,0.0,0.0,0.0,0.0,0.0,0.0,0.0,0.0,0.0,0.0,0.0,0.0,0.0,0.0,0.0,0.0,0.0,0.0,0.0,0.0,0.0,0.0,0.0,0.0,0.0,0.0,0.0,0.0,0.0,0.0,0.0,0.0,0.0,0.0,0.0,0.0,0.0,0.0,0.0,0.0,0.0,0.0,0.0,0.0,0.0,0.0,0.0,0.0,0.0,0.0,0.0,-6.4686,-6.6806,-6.8081,-6.8394,-6.9425,-6.9807,-6.9464,-7.0228,-6.8929,0.0,0.0,0.0,0.0,0.0,0.0,0.0,0.0,0.0,0.0,0.0,0.0,0.0,0.0,0.0,0.0,0.0,0.0,0.0,0.0,0.0,0.0,0.0,0.0,0.0,0.0,0.0,0.0,0.0,0.0,0.0,0.0,0.0,0.0,0.0,0.0,0.0,0.0,0.0,0.0,0.0,-5.3415,-5.4826,-5.4342,0.0,0.0,0.0,0.0,-5.3038,-5.2814,0.0,0.0,0.0,0.0,0.0,0.0,0.0,0.0,0.0,0.0,0.0,0.0,0.0,0.0,0.0,0.0,0.0,0.0,0.0,0.0,0.0,0.0,0.0,0.0,0.0,0.0,0.0,0.0,0.0,0.0,0.0,0.0,0.0,0.0,0.0,0.0,0.0,0.0,0.0,0.0,0.0,0.0,0.0,0.0,0.0,0.0,0.0,0.0,0.0,0.0,0.0,0.0,0.0,0.0,0.0,0.0,-6.4617,-6.6825,-6.8686,-7.0113,-7.1718,-7.1833,-7.0342,-7.1107,-6.9273,0.0,0.0,0.0,0.0,0.0,0.0,0.0,0.0,0.0,0.0,0.0,0.0,0.0,0.0,0.0,0.0,0.0,0.0,0.0,0.0,0.0,0.0,0.0,0.0,0.0,0.0,0.0,0.0,0.0,0.0,0.0,0.0,0.0,0.0,0.0,0.0,0.0,0.0,0.0,0.0,0.0,-5.5512,-5.4254,-5.5241,-5.6162,0.0,0.0,-5.6848,-5.6093,-5.6269,0.0,0.0,0.0,0.0,0.0,0.0,0.0,0.0,0.0,0.0,0.0,0.0,0.0,0.0,0.0,0.0,0.0,0.0,0.0,0.0,0.0,0.0,0.0,0.0,0.0,0.0,0.0,0.0,0.0,0.0,0.0,0.0,0.0,0.0,0.0,0.0,0.0,0.0,0.0,0.0,0.0,0.0,0.0,0.0,0.0,0.0,0.0,0.0,0.0,0.0,0.0,0.0,0.0,0.0,0.0,-6.3433,-6.4501,-6.6318,-6.7719,-6.859,-6.9807,-6.9965,-6.8944,-6.9323,-6.7846,0.0,0.0,0.0,0.0,0.0,0.0,0.0,0.0,0.0,0.0,0.0,0.0,0.0,0.0,0.0,0.0,0.0,0.0,0.0,0.0,0.0,0.0,0.0,0.0,0.0,0.0,0.0,0.0,0.0,0.0,0.0,0.0,0.0,0.0,0.0,0.0,0.0,0.0,0.0,0.0,0.0,0.0,-5.7192,-5.6472,0.0,0.0,0.0,-5.6747,-5.6539,0.0,0.0,0.0,0.0,0.0,0.0,0.0,0.0,0.0,0.0,0.0,0.0,0.0,0.0,0.0,0.0,0.0,0.0,0.0,0.0,0.0,0.0,0.0,0.0,0.0,0.0,0.0,0.0,0.0,0.0,0.0,0.0,0.0,0.0,0.0,0.0,0.0,0.0,0.0,0.0,0.0,0.0,0.0,0.0,0.0,0.0,0.0,0.0,0.0,0.0,0.0,0.0,0.0,0.0,0.0,0.0,0.0,-6.4575,-6.6167,-6.723,-6.7733,-6.8376,-6.8409,-6.7814,-6.7851,0.0,0.0,0.0,0.0,0.0,0.0,0.0,0.0,0.0,0.0,0.0,0.0,0.0,0.0,0.0,0.0,0.0,0.0,0.0,0.0,0.0,0.0,0.0,0.0,0.0,0.0,0.0,-5.3906,0.0,0.0,0.0,0.0,0.0,0.0,0.0,0.0,0.0,0.0,0.0,0.0,0.0,0.0,-5.8944,-5.9553,-5.8187,-5.7775,0.0,0.0,-5.7638,-5.7981,-5.8114,-5.7769,0.0,0.0,0.0,0.0,0.0,0.0,0.0,0.0,0.0,0.0,0.0,0.0,0.0,0.0,0.0,0.0,0.0,0.0,0.0,0.0,0.0,0.0,0.0,0.0,0.0,0.0,0.0,0.0,-5.7351,0.0,0.0,0.0,0.0,0.0,0.0,0.0,0.0,0.0,0.0,0.0,0.0,0.0,0.0,0.0,0.0,0.0,0.0,0.0,0.0,0.0,0.0,0.0,0.0,0.0,-6.4211,-6.5067,-6.6938,-6.8326,-6.9114,-6.9227,-6.8767,-6.7851,-6.7851,-6.6349,0.0,0.0,0.0,0.0,0.0,0.0,0.0,0.0,0.0,0.0,0.0,0.0,0.0,0.0,0.0,0.0,0.0,0.0,0.0,0.0,0.0,0.0,0.0,0.0,0.0,0.0,0.0,0.0,0.0,0.0,0.0,0.0,0.0,0.0,0.0,0.0,0.0,0.0,0.0,0.0,0.0,-5.8462,-5.9732,-6.0492,-6.1424,0.0,-6.1903,-6.1254,-6.1979,-6.1753,-6.0203,-5.6326,0.0,0.0,0.0,0.0,0.0,0.0,0.0,0.0,0.0,0.0,0.0,0.0,0.0,0.0,0.0,0.0,0.0,0.0,0.0,0.0,0.0,0.0,0.0,0.0,0.0,-5.8256,-5.7486,0.0,-5.6048,0.0,0.0,0.0,0.0,0.0,0.0,0.0,0.0,0.0,0.0,0.0,0.0,0.0,0.0,0.0,0.0,0.0,0.0,0.0,0.0,0.0,0.0,0.0,0.0,-6.3757,-6.5073,-6.7127,-6.8391,-6.8959,-6.8908,-6.8576,-6.79,-6.7321,-6.6197,0.0,0.0,0.0,0.0,0.0,0.0,0.0,0.0,0.0,0.0,0.0,0.0,0.0,0.0,0.0,0.0,0.0,0.0,0.0,0.0,0.0,0.0,0.0,0.0,0.0,0.0,0.0,0.0,-5.6859,-5.6219,-5.6322,0.0,0.0,0.0,0.0,0.0,0.0,0.0,0.0,0.0,0.0,-6.2802,-6.2684,-6.2695,0.0,0.0,-6.3405,-6.293,-6.3981,-6.2084,-6.0062,-5.8905,-5.7121,0.0,0.0,0.0,0.0,0.0,0.0,0.0,0.0,0.0,0.0,0.0,0.0,0.0,0.0,0.0,0.0,0.0,0.0,0.0,0.0,0.0,0.0,0.0,0.0,0.0,0.0,0.0,0.0,0.0,0.0,0.0,0.0,0.0,0.0,0.0,0.0,0.0,0.0,0.0,0.0,0.0,0.0,0.0,0.0,0.0,0.0,0.0,0.0,0.0,0.0,0.0,0.0,-6.3731,-6.4942,-6.7349,-6.8728,-6.9005,-6.9171,-6.9026,-6.8599,-6.772,-6.6896,0.0,0.0,0.0,0.0,0.0,0.0,0.0,0.0,0.0,0.0,0.0,0.0,0.0,0.0,0.0,0.0,0.0,0.0,0.0,0.0,0.0,0.0,0.0,0.0,0.0,0.0,0.0,0.0,-5.8237,-5.7391,-5.6874,0.0,0.0,0.0,0.0,0.0,0.0,0.0,0.0,0.0,0.0,-6.4835,-6.4786,-6.4146,-6.3974,-6.4941,-6.3748,-6.2993,-6.3871,-6.2118,-6.0506,-6.0203,0.0,0.0,0.0,0.0,0.0,0.0,0.0,0.0,0.0,0.0,0.0,0.0,0.0,0.0,0.0,0.0,0.0,0.0,0.0,0.0,0.0,0.0,0.0,0.0,0.0,0.0,0.0,-5.4971,0.0,0.0,-5.2508,0.0,0.0,0.0,0.0,0.0,0.0,0.0,0.0,0.0,0.0,0.0,0.0,0.0,0.0,0.0,0.0,0.0,0.0,0.0,0.0,0.0,0.0,-6.4443,-6.4668,-6.7838,-6.9471,-6.9545,-7.0249,-7.0502,-7.0182,-6.9446,-6.8583,-6.765,0.0,0.0,0.0,0.0,0.0,0.0,0.0,0.0,0.0,0.0,0.0,0.0,0.0,0.0,0.0,0.0,0.0,0.0,0.0,0.0,0.0,0.0,0.0,0.0,0.0,0.0,-5.7947,-5.7161,-5.684,0.0,0.0,0.0,0.0,0.0,0.0,0.0,0.0,0.0,-6.2737,-6.2944,-6.3393,-6.5566,-6.46,-6.4014,-6.4703,-6.2944,-6.1461,-6.1562,-6.2267,-6.1941,0.0,0.0,0.0,0.0,0.0,0.0,0.0,0.0,0.0,0.0,0.0,0.0,0.0,0.0,0.0,0.0,0.0,0.0,0.0,0.0,0.0,0.0,0.0,0.0,0.0,0.0,0.0,-5.7449,-5.5964,0.0,0.0,0.0,0.0,0.0,0.0,0.0,0.0,0.0,0.0,0.0,-6.2556,-6.324,0.0,0.0,0.0,0.0,0.0,0.0,0.0,0.0,0.0,0.0,0.0,0.0,-6.4858,-6.5577,-6.8734,-7.0411,-7.0309,-7.0465,-7.0507,-7.0293,-6.9926,-6.9357,-6.8495,0.0,0.0,0.0,0.0,0.0,0.0,0.0,0.0,0.0,0.0,0.0,0.0,0.0,0.0,0.0,0.0,0.0,0.0,0.0,0.0,0.0,0.0,0.0,0.0,0.0,-5.8699,0.0,0.0,0.0,0.0,0.0,0.0,0.0,0.0,0.0,0.0,0.0,-6.1565,-6.3358,-6.4669,-6.5945,-6.7187,-6.6911,-6.6669,0.0,0.0,0.0,0.0,0.0,0.0,0.0,0.0,0.0,0.0,0.0,0.0,0.0,0.0,-6.009,-5.6738,-5.6053,-5.6084,-5.6084,0.0,0.0,0.0,0.0,0.0,0.0,0.0,0.0,0.0,0.0,0.0,0.0,0.0,0.0,-5.8142,-5.6926,-5.7161,0.0,0.0,0.0,0.0,0.0,0.0,0.0,0.0,-6.287,-6.3322,-6.3689,-6.4149,-6.4402,0.0,-6.456,-6.3785,0.0,0.0,0.0,0.0,0.0,0.0,0.0,0.0,-6.5691,-6.7047,-6.9845,-7.1315,-7.1213,-7.142,-7.141,-7.1303,-7.1085,-7.0753,-7.0146,-6.8348,-6.6953,0.0,0.0,0.0,0.0,0.0,0.0,0.0,0.0,0.0,0.0,0.0,0.0,0.0,0.0,0.0,0.0,0.0,0.0,0.0,0.0,0.0,0.0,0.0,-5.9266,0.0,0.0,0.0,0.0,0.0,0.0,0.0,0.0,0.0,-5.9495,-6.1875,-6.3979,-6.5048,-6.6428,-6.7566,-6.8014,0.0,0.0,0.0,0.0,0.0,0.0,0.0,-6.2918,-6.3767,-6.2702,-6.2081,-6.3114,-6.3715,-6.348,-6.1788,0.0,0.0,-5.843,-5.7993,-5.8239,-5.8454,-5.9593,-6.0424,-6.0137,-6.0866,-6.1355,0.0,0.0,0.0,0.0,0.0,0.0,0.0,0.0,-5.9191,-5.8726,0.0,-5.8811,0.0,0.0,0.0,0.0,0.0,-6.1007,0.0,0.0,-6.4247,-6.5051,-6.5846,-6.582,-6.5897,-6.5936,-6.5961,-6.5551,-6.4806,-6.4166,0.0,0.0,0.0,0.0,0.0,0.0,-6.7009,-6.9003,-7.113,-7.2221,-7.2258,-7.2964,-7.332,-7.3108,-7.2798,-7.2573,-7.2386,-7.0257,-6.8605,-6.7724,-6.4714,0.0,0.0,0.0,0.0,0.0,0.0,0.0,0.0,0.0,0.0,0.0,0.0,0.0,0.0,0.0,0.0,0.0,0.0,0.0,0.0,-6.1243,0.0,0.0,0.0,0.0,0.0,0.0,0.0,0.0,0.0,0.0,-6.2703,-6.3289,-6.4807,-6.7669,0.0,0.0,0.0,0.0,-6.6221,-6.6945,-6.5186,-6.3876,-6.3841,-6.4564,-6.5016,-6.4323,0.0,0.0,-6.6914,-6.6395,-6.548,-6.4026,-6.3356,-6.2747,-6.1933,-6.1194,-6.1009,-6.1656,-6.1809,-6.1981,-6.2364,-6.3091,-6.375,-6.227,0.0,0.0,0.0,0.0,-6.0132,-6.0991,-6.2655,-6.2069,-6.1679,-6.1472,-6.1598,0.0,0.0,0.0,0.0,0.0,0.0,-6.3563,-6.4425,-6.4634,-6.5141,-6.5897,-6.5897,-6.6205,-6.6782,-6.7398,-6.7898,-6.8244,-6.8629,-6.6434,-6.1858,0.0,0.0,0.0,0.0,-6.9241,-6.9971,-7.1988,-7.2986,-7.2918,-7.3034,-7.3037,-7.2835,-7.2667,-7.261,-7.261,-7.1892,-7.055,-6.8641,-6.765,0.0,0.0,0.0,0.0,0.0,0.0,0.0,0.0,0.0,0.0,0.0,0.0,0.0,0.0,0.0,0.0,0.0,0.0,0.0,-5.819,-6.1384,-6.2735,0.0,0.0,0.0,0.0,0.0,0.0,0.0,0.0,0.0,-6.491,-6.6014,-6.7118,0.0,0.0,-6.8083,-6.8083,-6.7738,-6.7532,-6.7773,-6.7704,0.0,-6.6676,-6.6426,-6.6474,-6.7039,-6.8031,-6.8335,-6.7015,-6.7564,-6.7397,-6.4893,-6.5252,-6.5274,-6.3578,-6.2702,-6.2487,-6.3071,-6.3256,-6.3363,-6.3819,-6.3975,-6.388,-6.386,-6.3786,-6.2457,-6.1944,-6.2058,-6.1902,-6.2772,-6.4211,-6.3664,-6.3451,-6.3397,-6.3613,-6.2941,-6.1639,-6.1497,0.0,0.0,0.0,-6.458,-6.5225,-6.5572,-6.5967,-6.6397,-6.709,-6.7667,-6.8167,-6.8975,-6.9667,-7.0206,-7.1014,-6.9283,-6.532,0.0,0.0,-6.6518,-6.9124,-7.0818,-7.1499,-7.2745,-7.3357,-7.3305,-7.3199,-7.3054,-7.289,-7.2723,-7.2667,-7.2723,-7.2553,-7.1835,-7.0403,-6.9706,-6.8568,0.0,0.0,0.0,0.0,0.0,0.0,0.0,0.0,0.0,0.0,0.0,-6.1478,-6.0701,0.0,0.0,0.0,-6.1352,-6.0756,-6.0735,-6.328,0.0,0.0,0.0,0.0,0.0,0.0,0.0,-6.4531,-6.5497,-6.6221,-6.6738,-6.8083,-6.8773,-6.8187,-6.8083,-6.8083,-6.8083,0.0,-6.8083,-6.8083,-6.8497,-6.8635,-6.8028,-6.7501,-6.7501,-6.8591,-6.8947,-6.8944,-6.8368,-6.8412,-6.7711,-6.5896,-6.5608,-6.5415,-6.3733,-6.3071,-6.3133,-6.4026,-6.4132,-6.4034,-6.4239,-6.3963,-6.3827,-6.5422,-6.536,-6.3708,-6.3039,-6.3086,-6.3866,-6.4248,-6.437,-6.437,-6.4287,-6.4237,-6.5005,-6.4857,-6.3961,-6.3961,0.0,-6.4868,-6.4946,-6.5418,-6.6128,-6.6898,-6.7321,-6.7475,-6.9013,-6.9821,-6.9937,-7.0706,-7.1129,-7.1245,-7.2091,-7.1706,-7.0179,-7.014,-7.02,-7.0298,-7.0818,-7.1846,-7.3387,-7.3372,-7.3372,-7.3372,-7.3372,-7.3357,-7.3199,-7.3037,-7.2927,-7.2723,-7.261,-7.2496,-7.2459,-7.1064,-6.9963,-6.9192,0.0,0.0,0.0,0.0,0.0,0.0,0.0,0.0,0.0,0.0,0.0,0.0,0.0,0.0,-6.5343,-6.6416,0.0,-6.6673,-6.6181,0.0,0.0,0.0,-6.3306,-6.2713,-6.4659,-6.5807,-6.5152,0.0,0.0,-6.8359,-6.9497,-6.9808,-6.8463,-6.829,-6.8256,-6.8187,-6.8118,-6.8083,-6.8083,-6.8152,-6.8221,-6.829,-6.8154,-6.8426,-6.9118,-6.9354,-6.9519,-6.9823,-6.8998,-6.7526,-6.6418,-6.5308,-6.4421,-6.33,-6.321,-6.3379,-6.4641,-6.4482,-6.4198,-6.3954,-6.3615,-6.3568,-6.4583,-6.4614,-6.4825,-6.4555,-6.4001,-6.4197,-6.4559,-6.5035,-6.5074,-6.5317,-6.5736,-6.5885,-6.5741,-6.5411,-6.5411,-6.5504,-6.5688,-6.6266,-6.6987,-6.7821,-6.8706,-6.9398,-7.0014,-7.0437,-7.0975,-7.1629,-7.2476,-7.3206,-7.3822,-7.4668,-7.4704,-7.3992,-7.3992,-7.2881,-7.0828,-7.2108,-7.2994,-7.3372,-7.3372,-7.332,-7.3252,-7.3252,-7.3252,-7.3199,-7.3037,-7.2982,-7.2927,-7.2723,-7.261,-7.2496,-7.2129,-7.1872,-7.1651,-6.9081,0.0,0.0,0.0,0.0,0.0,0.0,0.0,0.0,0.0,-6.5981,-6.3048,0.0,-6.5301,0.0,-6.9115,-6.8769,-6.5202,-6.6854,0.0,0.0,-6.5303,-6.5545,-6.6595,-6.7195,-6.7738,-6.8152,-6.9187,-7.0049,-7.0636,-7.0015,-6.9635,-6.9808,-6.9842,-6.9635,-6.9084,-6.8463,-6.8083,-6.8152,-6.8635,-6.9015,-6.9049,-6.9653,-6.9851,-6.9286,-7.0026,-7.0466,-6.9519,-6.9984,-6.9903,-6.8319,-6.7525,-6.6818,-6.5744,-6.4986,-6.4457,-6.4764,-6.3947,-6.3146,-6.3163,-6.3092,-6.3199,-6.6561,-6.66,-6.6678,-6.6388,-6.5854,-6.5464,-6.5511,-6.5844,-6.5801,-6.5931,-6.6183,-6.6046,-6.5967,-6.5897,-6.6282,-6.6436,-6.6474,-6.7282,-6.8129,-6.9013,-6.986,-7.0667,-7.1475,-7.2245,-7.286,-7.3322,-7.4207,-7.4822,-7.5284,-7.5745,-7.5787,-7.531,-7.5092,-7.4104,-7.2407,-7.3232,-7.3504,-7.3168,-7.329,-7.3372,-7.3305,-7.3305,-7.3119,-7.2785,-7.2906,-7.2797,-7.2428,-7.2539,-7.2463,-7.2095,-7.1708,-7.1671,-7.2022,-7.0091,-6.9081,0.0,0.0,0.0,0.0,0.0,0.0,0.0,0.0,0.0,0.0,0.0,-6.7497,-6.8699,-7.1065,-7.1386,-6.8742,-7.0482,-7.1079,-6.9484,-6.9302,-6.9526,-7.0061,-7.0153,-7.0153,-7.0256,-7.0636,-7.0912,-7.0981,-7.0877,-7.0774,-7.0877,-7.1187,-7.0877,-6.9566,-6.9153,-6.9118,-6.9118,-6.9497,-6.9773,-6.9773,-7.0633,-7.1147,-7.0614,-7.1219,-7.1481,-7.0737,-7.0939,-7.0657,-6.8822,-6.8209,-6.7599,-6.6098,-6.5406,-6.4888,-6.4795,-6.4193,-6.3617,-6.3802,-6.3615,-6.3635,-6.9411,-6.9333,-6.858,-6.8117,-6.7842,-6.7069,-6.663,-6.654,-6.6383,-6.6183,-6.6046,-6.5958,-6.5974,-6.609,-6.6782,-6.7167,-6.7321,-6.8282,-6.9206,-7.0052,-7.0975,-7.186,-7.2745,-7.4168,-7.4861,-7.4899,-7.563,-7.5976,-7.5976,-7.5947,-7.5686,-7.531,-7.4827,-7.4379,-7.3951,-7.3888,-7.3579,-7.2895,-7.3143,-7.3224,-7.3224,-7.3224,-7.2889,-7.2258,-7.2754,-7.2704,-7.1911,-7.2299,-7.2316,-7.1637,-7.0938,-7.0901,-7.1563,-7.079,-7.0184,0.0,-6.9082,0.0,0.0,0.0,0.0,0.0,0.0,0.0,0.0,-6.996,-7.0046,-7.0201,-7.2535,-7.3833,-7.3551,-7.4356,-7.451,-7.3533,-7.3596,-7.3273,-7.2527,-7.2464,-7.2257,-7.1567,-7.1567,-7.1394,-7.105,-7.1877,-7.2222,-7.1774,-7.2015,-7.167,-7.0084,-7.0015,-7.0256,-7.0394,-7.0567,-7.0774,-7.0795,-7.1593,-7.2293,-7.2273,-7.2496,-7.2665,-7.2665,-7.2191,-7.1169,-6.9517,-6.8826,-6.7818,-6.5841,-6.5496,-6.5195,-6.5257,-6.4973,-6.4697,-6.4691,-6.4352,-6.4573,-6.9411,-6.9366,-6.9029,-6.8525,-6.787,-6.7432,-6.6844,-6.6185,-6.6148,-6.6046,-6.5933,-6.5923,-6.6244,-6.6859,-6.7013,-6.7475,-6.8244,-6.9744,-7.0898,-7.1783,-7.3283,-7.4437,-7.5284,-7.5592,-7.5745,-7.5745,-7.5938,-7.5976,-7.5976,-7.5584,-7.5379,-7.5236,-7.4544,-7.3904,-7.3515,0.0,0.0,0.0,-7.2718,-7.2406,-7.2406,-7.2406,-7.2332,-7.2221,-7.2912,0.0,-7.276,-7.2853,-7.2742,-7.2333,-7.2186,0.0,0.0,0.0,0.0,0.0,0.0,0.0,0.0,0.0,0.0,0.0,-7.0987,-7.1024,-7.0293,-7.293,-7.3736,-7.1431,-7.3259,-7.3873,-7.2065,-7.2561,-7.2502,-7.1286,-7.1658,-7.1699,-7.0972,-7.1394,-7.167,-7.1532,-7.205,-7.2636,-7.2912,-7.236,-7.1946,-7.2326,-7.205,-7.1567,-7.1187,-7.0739,-7.0429,-7.0463,-7.1463,-7.2104,-7.1748,-7.2927,-7.3775,-7.3413,-7.3772,-7.4187,-7.4221,-7.4153,-7.3984,-7.3256,-7.1425,-6.975,-6.923,-6.7762,-6.6611,-6.655,-6.6094,-6.5566,-6.5025,-6.4619,-6.4778,-7.0603,0.0,-6.9967,-6.9409,0.0,-6.8239,-6.7708,-6.717,-6.636,-6.6174,-6.6474,-6.6474,-6.6936,-6.7744,-6.8205,-6.8629,-6.9129,-7.0783,-7.2014,-7.2899,-7.413,-7.5168,-7.5976,-7.5976,-7.5976,-7.5976,-7.5976,-7.5848,-7.5654,-7.5413,-7.5092,-7.4629,-7.4199,-7.3784,-7.3446,-7.3367,-7.3372,-7.3372,-7.2964,-7.2778,-7.2778,-7.2778,-7.2592,-7.2221,-7.2912,0.0,0.0,0.0,0.0,0.0,0.0,0.0,0.0,0.0,0.0,-7.1248,-7.0937,-7.0716,-7.066,-7.1027,-7.1762,-7.301,-7.3817,-7.3927,-7.312,-7.4588,-7.5359,-7.4992,-7.5689,-7.5971,-7.5625,-7.589,-7.5551,-7.4074,-7.4204,-7.3956,-7.2887,-7.2946,-7.305,-7.2705,-7.2981,-7.3257,-7.3222,-7.2636,-7.2257,-7.2602,-7.2671,-7.2602,-7.2567,-7.1981,-7.1636,-7.2015,-7.2981,-7.3826,-7.4047,-7.498,-7.5754,-7.5705,-7.5967,-7.6217,-7.6284,-7.6284,-7.6154,-7.5502,-7.3694,-7.2207,-7.142,-7.0067,-6.8889,-6.8772,-6.8417,-6.7848,-6.7423,-6.631,-6.5532,-7.1909,-7.1661,-7.0898,-7.0308,-6.9821,-6.9121,-6.8752,-6.8513,0.0,0.0,0.0,-6.7321,-6.7782,-6.8667,-6.9398,-6.9783,-7.0014,-7.1668,-7.2822,-7.3553,-7.4476,-7.5322,-7.5976,-7.5976,-7.5976,-7.5976,-7.5976,-7.5756,-7.531,-7.5201,-7.4787,-7.4064,-7.3916,-7.3752,-7.3424,-7.3372,-7.3372,-7.3372,-7.3261,-7.3187,-7.3187,-7.3187,-7.2852,-7.2184,-7.2897,-7.2865,-7.2198,-7.2724,-7.2724,-7.2169,-7.1581,-7.1471,-7.2134,-7.2171,-7.2704,-7.3817,-7.4551,-7.4918,-7.4918,-7.5028,-7.5249,-7.5542,-7.6019,-7.624,-7.613,-7.5763,-7.6276,-7.8038,-7.7635,-7.7781,-7.8809,-7.9066,-7.8552,-7.7127,-7.7088,-7.6447,-7.4941,-7.4671,-7.429,-7.3963,-7.3705,-7.3636,-7.3257,-7.3153,-7.3084,-7.3153,-7.3602,-7.4085,-7.4085,-7.3533,-7.3326,-7.4016,-7.4722,-7.548,-7.6252,-7.6987,-7.7631,-7.7502,-7.7895,-7.8179,-7.8179,-7.8179,-7.7848,-7.7077,-7.5587,-7.4135,-7.3161,-7.1714,-7.1011,-7.089,-7.0435,-6.9973,-6.9822,-6.818,-6.6789,-7.187,-7.1689,-7.1457,-7.0774,-6.9877,-6.9629,-6.954,-6.9436,-6.8513,-6.8129,-6.8205,-6.8244,-6.8706,-6.9513,-6.9667,-7.009,-7.0821,-7.2552,-7.3399,-7.3591,-7.5091,-7.5861,-7.5976,-7.5976,-7.5976,-7.5976,-7.5976,-7.5756,-7.531,-7.4943,-7.4502,-7.4009,-7.3653,-7.3438,-7.3372,-7.3372,-7.3372,-7.3372,-7.2704,-7.2332,-7.2369,-7.2332,-7.2295,-7.2221,-7.2964,-7.3268,-7.305,-7.3737,-7.4053,-7.3868,-7.4386,-7.4699,-7.4675,-7.4638,-7.4727,-7.4735,-7.4845,-7.4918,-7.4955,-7.5542,-7.657,-7.7892,-7.7524,-7.6864,-7.6203,-7.7341,-7.7635,-7.668,-7.7011,-7.679,-7.5873,-7.6387,-7.6554,-7.5629,-7.5963,-7.5729,-7.4291,-7.4122,-7.4042,-7.386,-7.3774,-7.4085,-7.443,-7.4533,-7.4568,-7.4602,-7.4843,-7.5085,-7.5568,-7.5119,-7.4981,-7.5583,-7.6218,-7.6793,-7.7364,-7.7869,-7.8162,-7.8002,-7.8582,-7.8957,-7.8957,-7.8957,-7.8857,-7.8623,-7.6439,-7.4723,-7.4107,-7.2338,-7.1375,-7.1044,-7.0618,-7.0095,-7.0125,-6.9265,-6.8615,-7.1282,-7.151,-7.0908,-7.0849,-7.1197,-7.1607,-7.1783,-7.1745,-7.136,-7.0629,-6.9783,-6.9783,-6.9975,-7.0398,-7.0821,-7.1245,-7.1706,-7.336,-7.4168,-7.4245,-7.5438,-7.5976,-7.5976,-7.5976,-7.5976,-7.6015,-7.5756,-7.5417,-7.4981,-7.4544,-7.4101,-7.3703,-7.349,-7.3372,-7.3372,-7.3372,-7.3372,-7.3372,-7.3038,-7.2852,-7.2852,-7.2852,-7.3038,-7.3484,-7.3855,-7.4264,-7.4566,-7.492,-7.4996,-7.4866,-7.5141,-7.5211,-7.5073,-7.5441,-7.5639,-7.5579,-7.6423,-7.69,-7.69,-7.7671,-7.8405,-7.914,-7.8479,-7.7671,-7.6827,-7.7451,-7.7781,-7.7451,-7.7414,-7.7047,-7.6313,-7.6974,-7.7166,-7.6342,-7.7,-7.6805,-7.5529,-7.5484,-7.537,-7.4636,-7.4809,-7.5016,-7.4947,-7.5292,-7.5568,-7.5637,-7.6189,-7.7085,-7.7844,-7.7672,-7.7396,-7.743,-7.7891,-7.8431,-7.8871,-7.9433,-7.9586,-7.9491,-7.9564,-7.9667,-7.9701,-7.9701,-7.9466,-7.8786,-7.6942,-7.5538,-7.4829,-7.3265,-7.2243,-7.2029,-7.1535,-7.1192,-7.1097,-7.0802,-7.044,-7.0694,-7.1115,-7.0679,-7.127,-7.2552,-7.3399,-7.3745,-7.3783,-7.3976,-7.3206,-7.186,-7.1591,-7.1475,-7.1552,-7.2206,-7.2476,-7.2706,-7.4014,-7.4707,-7.4784,-7.5592,-7.5976,-7.5976,-7.5976,-7.5976,-7.5947,-7.5622,-7.5203,-7.4705,-7.4331,-7.3906,-7.3476,-7.3372,-7.3372,-7.3372,-7.3558,-7.367,-7.367,-7.3818,-7.3855,-7.367,-7.3632,-7.4041,-7.4784,-7.4858,-7.5156,-7.575,-7.5864,-7.5903,-7.5791,-7.5863,-7.5801,-7.5625,-7.6139,-7.652,-7.6754,-7.7855,-7.8589,-7.8626,-7.8993,-7.9396,-7.9764,-7.9066,-7.8479,-7.8185,-7.7965,-7.8038,-7.8442,-7.8185,-7.7928,-7.7928,-7.8405,-7.862,-7.8062,-7.8504,-7.8206,-7.7036,-7.7284,-7.7145,-7.6002,-7.6258,-7.643,-7.6189,-7.6499,-7.7016,-7.7396,-7.8465,-7.9603,-8.0155,-8.0396,-8.0258,-7.9786,-7.959,-7.9702,-8.0172,-8.0526,-8.0573,-8.0476,-8.0242,-8.0141,-8.0141,-8.0175,-7.9734,-7.8664,-7.7479,-7.6152,-7.4975,-7.3842,-7.2984,-7.2705,-7.2204,-7.1916,-7.1631,-7.1517,-7.1427,-7.0369,-7.0516,-7.1686,-7.2698,-7.3437,-7.4245,-7.4591,-7.4707,-7.5399,-7.5245,-7.4245,-7.3591,-7.3245,-7.3283,-7.3322,-7.3399,-7.3437,-7.4284,-7.4745,-7.4822,-7.5592,-7.5976,-7.5976,-7.5976,-7.5976,-7.5976,-7.5917,-7.5451,-7.4745,-7.4623,-7.4229,-7.3476,-7.3372,-7.341,-7.3484,-7.4115,-7.4487,-7.4487,-7.5193,-7.5193,-7.4524,-7.4487,-7.4858,-7.5639,-7.5676,-7.5713,-7.5899,-7.653,-7.6976,-7.7013,-7.7589,-7.7849,-7.7562,-7.7614,-7.7828,-7.8259,-7.8516,-7.8589,-7.8589,-7.7928,-7.8369,-7.9543,-7.914,-7.9213,-8.0314,-7.991,-7.925,-7.8919,-7.9213,-7.9433,-7.958,-7.9653,-7.97,-7.9746,-7.9856,-7.9293,-7.8627,-7.8319,-7.8256,-7.8128,-7.8176,-7.8396,-7.8741,-7.9051,-7.9465,-8.0017,-8.119,-8.2121,-8.2328,-8.2776,-8.3024,-8.2589,-8.1337,-8.0253,-8.0569,-8.0442,-8.0613,-8.0445,-8.0242,-8.0378,-8.0445,-8.0344,-7.987,-7.8823,-7.7401,-7.6281,-7.5007,-7.3874,-7.2983,-7.2578,-7.2231,-7.188,-7.1178,-7.1068,-7.1068,-7.1311,-7.1719,-7.2136,-7.3047,-7.4245,-7.513,-7.5476,-7.5515,-7.5822,-7.5784,-7.5476,-7.513,-7.4437,-7.3553,-7.4014,-7.4207,-7.4284,-7.5091,-7.5476,-7.5476,-7.5861,-7.5976,-7.5976,-7.5976,-7.5976,-7.5947,-7.5718,-7.5274,-7.4705,-7.4229,-7.3752,-7.3499,-7.3855,-7.4078,-7.4153,-7.4896,-7.5304,-7.5304,-7.5601,-7.5861,-7.601,-7.5564,-7.5713,-7.6456,-7.6567,-7.679,-7.7236,-7.7645,-7.7738,-7.7682,-7.7942,-7.8014,-7.782,-7.8264,-7.8551,-7.8774,-7.957,-8.0241,-8.0681,-8.0388,-8.0498,-8.1195,-8.0461,-8.0131,-8.0277,-8.0388,-8.0351,-8.0094,-7.991,-7.9947,-8.0461,-8.0938,-8.1379,-8.1856,-8.2333,-8.2299,-8.1489,-8.1734,-8.1548,-8.0228,-8.0647,-8.0866,-8.0513,-8.0983,-8.1776,-8.2466,-8.3259,-8.3569,-8.3604,-8.3845,-8.3851,-8.3522,-8.2535,-8.193,-8.1834,-8.18,-8.1699,-8.1494,-8.1494,-8.1494,-8.1393,-8.1054,-8.051,-7.9222,-7.763,-7.6313,-7.5007,-7.3752,-7.2608,-7.2326,-7.1947,-7.1435,-7.1018,-7.1218,-7.1308,-7.2142,-7.2655,-7.2828,-7.3707,-7.5091,-7.5745,-7.5976,-7.5976,-7.5976,-7.5976,-7.5976,-7.5976,-7.5322,-7.4399,-7.4822,-7.5053,-7.5168,-7.5707,-7.5976,-7.5976,-7.5976,-7.5976,-7.5976,-7.5976,-7.5976,-7.5917,-7.5518,-7.5018,-7.4497,-7.4062,-7.3707,-7.3818,-7.4524,-7.4933,-7.5007,-7.575,-7.6159,-7.6196,-7.6344,-7.679,-7.7236,-7.679,-7.6753,-7.7347,-7.7422,-7.7682,-7.8239,-7.8276,-7.8221,-7.8071,-7.8071,-7.8014,-7.7879,-7.8618,-7.9224,-7.956,-8.0504,-8.1296,-8.1884,-8.1672,-8.1636,-8.1782,-8.1305,-8.0865,-8.0681,-8.1195,-8.1636,-8.1672,-8.1525,-8.1746,-8.1636,-8.237,-8.3177,-8.3985,-8.4646,-8.4739,-8.4427,-8.4859,-8.4277,-8.2587,-8.2979,-8.3201,-8.2128,-8.2673,-8.3707,-8.4156,-8.4466,-8.4639,-8.4639,-8.4673,-8.4609,-8.4243,-8.4042,-8.35,-8.2956,-8.2581,-8.2614,-8.2511,-8.2306,-8.2272,-8.2408,-8.1866,-8.105,-7.9554,-7.7794,-7.6152,-7.4627,-7.3257,-7.2174,-7.1982,-7.154,-7.1006,-7.056,-7.1068,-7.0979,-7.2685,-7.2926,-7.4038,-7.5053,-7.5938,-7.5976,-7.5976,-7.5976,-7.5976,-7.5976,-7.5976,-7.5976,-7.5938,-7.5784,-7.5822,-7.5899,-7.5938,-7.5976,-7.5976,-7.5976,-7.5976,-7.5976,-7.5976,-7.5976,-7.5976,-7.5947,-7.5551,-7.4943,-7.4222,-7.435,-7.4561,-7.4598,-7.5341,-7.575,-7.5861,-7.6604,-7.7013,-7.7087,-7.7645,-7.8128,-7.8202,-7.8128,-7.809,-7.8239,-7.8202,-7.8202,-7.8276,-7.8276,-7.8276,-7.8276,-7.8276,-7.8221,-7.8051,-7.8829,-7.9919,-8.1071,-8.1218,-8.1166,-8.1166,-8.0598,-8.0424,-8.1012,-8.1232,-8.1342,-8.2076,-8.2737,-8.3214,-8.3287,-8.4425,-8.4682,-8.3691,-8.4168,-8.4939,-8.5673,-8.5783,-8.6132,-8.6677,-8.6713,-8.6316,-8.5287,-8.4999,-8.4716,-8.3908,-8.457,-8.4949,-8.5259,-8.5708,-8.6053,-8.5984,-8.6053,-8.5918,-8.5717,-8.5309,-8.4762,-8.316,-8.2784,-8.2647,-8.2509,-8.2577,-8.2475,-8.2441,-8.2168,-8.1068,-7.982,-7.8003,-7.612,-7.4278,-7.288,-7.1841,-7.1274,-7.0585,-7.0081,-7.0021,-7.0021,-6.9961,-7.4537,-7.4847,-7.5331,-7.5745,-7.5976,-7.5976,-7.5976,-7.5976,-7.5976,-7.5976,-7.5976,-7.5976,-7.5976,-7.5976,-7.5976,-7.5976,-7.5976,-7.5976,-7.5976,-7.5976,-7.5976,-7.5976,-7.5976,-7.5976,-7.5976,-7.5947,-7.5818,-7.558,-7.521,-7.4836,-7.4858,-7.5453,-7.6196,-7.6642,-7.6753,-7.7422,-7.7868,-7.7905,-7.8165,-7.8276,-7.8313,-7.8276,-7.8499,-7.9019,-7.8536,-7.8276,-7.8276,-7.8276,-7.8276,-7.8276,-7.8313,-7.8276,-7.8332,-7.9406,-8.0533,-8.1488,-8.1796,-8.1745,-8.1339,-8.136,-8.1452,-8.1746,-8.226,-8.2847,-8.3581,-8.4022,-8.4389,-8.4976,-8.5894,-8.6151,-8.6077,-8.6407,-8.7215,-8.7912,-8.8096,-8.8102,-8.8399,-8.8472,-8.7946,-8.6546,-8.568,-8.5271,-8.5491,-8.5708,-8.588,-8.5949,-8.6156,-8.6294,-8.6294,-8.6294,-8.6194,-8.5992,-8.5652,-8.5035,-8.3738,-8.3293,-8.3084,-8.2949,-8.2881,-8.2847,-8.2813,-8.2137,-8.1148,-8.0622,-7.8705,-7.633,-7.449,-7.2483,-7.1378,-7.0585,-6.9991,-6.9692,-6.9363,-6.9542,-6.9393,-7.5847,-7.5995,-7.5976,-7.5976,-7.5976,-7.5976,-7.5976,-7.5976,-7.5976,-7.5976,-7.5976,-7.5976,-7.5976,-7.5976,-7.5976,-7.5976,-7.5976,-7.5976,-7.5976,-7.5976,-7.5976,-7.5976,-7.5976,-7.5976,-7.5976,-7.5994,-7.5961,-7.612,-7.6381,-7.577,-7.5878,-7.6604,-7.7199,-7.7496,-7.7608,-7.8276,-7.8573,-7.8388,-7.8536,-7.8685,-7.8685,-7.8685,-7.9056,-7.9651,-7.9094,-7.8685,-7.8648,-7.8425,-7.8276,-7.8313,-7.8499,-7.8908,-7.9539,-8.0332,-8.1237,-8.2015,-8.2264,-8.2186,-8.1745,-8.1921,-8.2296,-8.2553,-8.3067,-8.3765,-8.4499,-8.4829,-8.527,-8.5894,-8.7105,-8.7766,-8.7986,-8.872,-8.9491,-8.9784,-8.9784,-8.9931,-9.0152,-9.0188,-8.9378,-8.7777,-8.6371,-8.594,-8.6191,-8.626,-8.6294,-8.6294,-8.6294,-8.6294,-8.6294,-8.6194,-8.5955,-8.5581,-8.5173,-8.4489,-8.3466,-8.2784,-8.2678,-8.2611,-8.2577,-8.2746,-8.2712,-8.1968,-8.1356,-8.0867,-7.9297,-7.6783,-7.4531,-7.2303,-7.1195,-7.0367,-6.9991,-6.9722,-6.9423,-6.9183,-6.9034,-7.6372,-7.6005,-7.5976,-7.5976,-7.5976,-7.5976,-7.5976,-7.5976,-7.5976,-7.5976,-7.5976,-7.5976,-7.5976,-7.5976,-7.5976,-7.5976,-7.5976,-7.5976,-7.5976,-7.5976,-7.5976,-7.5976,-7.5976,-7.6092,-7.6207,-7.6254,-7.6008,-7.662,-7.756,-7.7162,-7.7273,-7.809,-7.8239,-7.8276,-7.8276,-7.8982,-7.9056,-7.8685,-7.9056,-7.9428,-7.9502,-7.9502,-7.9911,-8.0542,-7.9911,-7.9539,-7.9539,-7.8796,-7.8388,-7.8462,-7.9094,-8.0245,-8.1434,-8.1689,-8.2015,-8.2547,-8.256,-8.2407,-8.2444,-8.2389,-8.27,-8.3324,-8.3544,-8.4168,-8.5013,-8.56,-8.604,-8.6664,-8.7986,-8.9271,-8.9528,-9.0592,-9.1216,-9.0776,-9.0629,-9.0886,-9.1436,-9.162,-9.0984,-8.9014,-8.7221,-8.6359,-8.6294,-8.6294,-8.6294,-8.6294,-8.6294,-8.6294,-8.626,-8.599,-8.5614,-8.4931,-8.4353,-8.3705,-8.2819,-8.2072,-8.2105,-8.2069,-8.2069,-8.2137,-8.2171,-8.1731,-8.0875,-8.0281,-7.8232,-7.5759,-7.3437,-7.1502,-7.1005,-7.0307,-7.0029,-6.9722,-6.9453,-6.9153,-6.8794,-7.6372,-7.6005,-7.5976,-7.5976,-7.5976,-7.5976,-7.5976,-7.5976,-7.5976,-7.5976,-7.5976,-7.5976,-7.5976,-7.5976,-7.5976,-7.5976,-7.5976,-7.5976,-7.5976,-7.6015,-7.6015,-7.6015,-7.613,-7.663,-7.7207,-7.7539,-7.7075,-7.7273,-7.7953,-7.749,-7.7719,-7.8871,-7.9094,-7.9131,-7.9131,-7.9354,-7.9316,-7.9205,-7.9354,-7.9725,-8.0245,-8.032,-8.0728,-8.1397,-8.0765,-8.058,-8.11,-7.9874,-7.9168,-7.9131,-7.9874,-8.0782,-8.1615,-8.1741,-8.2029,-8.261,-8.2534,-8.2702,-8.3181,-8.3198,-8.3398,-8.4242,-8.5233,-8.6224,-8.6921,-8.7252,-8.7876,-8.872,-8.9381,-8.9601,-9.0262,-9.1143,-9.1657,-9.1436,-9.1436,-9.1473,-9.162,-9.0783,-8.9498,-8.831,-8.7012,-8.6394,-8.6329,-8.6363,-8.6432,-8.6432,-8.6432,-8.6398,-8.626,-8.5715,-8.5,-8.459,-8.3739,-8.2785,-8.197,-8.1393,-8.1427,-8.1325,-8.1291,-8.1426,-8.1494,-8.1324,-8.0536,-7.9098,-7.6912,-7.4826,-7.2367,-7.1244,-7.0869,-7.0344,-6.9909,-6.9572,-6.9363,-6.9153,-6.8944,-7.6415,-7.6106,-7.6034,-7.5976,-7.5976,-7.5976,-7.5976,-7.5976,-7.5976,-7.5976,-7.5976,-7.5976,-7.5976,-7.5976,-7.5976,-7.5976,-7.5976,-7.5976,-7.6169,-7.6438,-7.6476,-7.6476,-7.6592,-7.7323,-7.8169,-7.873,-7.8255,-7.8435,-7.9248,-7.8391,-7.8532,-7.9707,-7.9354,-7.9391,-7.9874,-7.9911,-7.9911,-7.9985,-8.0245,-8.0654,-8.1063,-8.1174,-8.1583,-8.2177,-8.162,-8.1471,-8.1843,-8.0951,-8.0245,-8.0171,-8.0728,-8.1487,-8.2171,-8.22,-8.2412,-8.2954,-8.3024,-8.3125,-8.3823,-8.4198,-8.4646,-8.5527,-8.6701,-8.7766,-8.8426,-8.8647,-8.9197,-8.9858,-9.0005,-9.0078,-9.0629,-9.1657,-9.2097,-9.1803,-9.1767,-9.195,-9.1912,-9.0918,-8.9875,-8.9173,-8.8112,-8.7323,-8.7156,-8.7156,-8.7156,-8.7156,-8.7156,-8.6742,-8.6366,-8.5614,-8.4796,-8.3909,-8.2785,-8.1834,-8.1122,-8.0784,-8.0682,-8.0547,-8.0445,-8.0648,-8.0784,-8.058,-8.0071,-7.7904,-7.5803,-7.4147,-7.1987,-7.1613,-7.1365,-7.0494,-6.9901,-7.0051,-7.0051,-6.9662,-6.9453,-7.6497,-7.6297,-7.6079,-7.5976,-7.5976,-7.5976,-7.5976,-7.5976,-7.5976,-7.5976,-7.5976,-7.5976,-7.5976,-7.5976,-7.5976,-7.6053,-7.6092,-7.6169,-7.663,-7.7207,-7.7476,-7.7553,-7.7669,-7.8284,-7.9015,-7.9684,-7.9351,-7.9704,-8.0439,-7.9397,-7.9575,-8.0302,-7.9372,-7.9168,-8.0357,-8.0691,-8.0765,-8.0877,-8.1471,-8.1843,-8.2028,-8.2066,-8.2363,-8.3032,-8.2437,-8.2066,-8.2103,-8.2103,-8.1694,-8.11,-8.1657,-8.24,-8.301,-8.2954,-8.3102,-8.3814,-8.3668,-8.3941,-8.4609,-8.5159,-8.6004,-8.6885,-8.7729,-8.861,-8.9307,-8.9491,-8.9638,-8.9968,-9.0372,-9.0739,-9.1143,-9.2244,-9.2721,-9.2134,-9.2097,-9.2354,-9.2828,-9.1955,-9.1069,-9.0672,-8.9695,-8.8536,-8.8364,-8.8398,-8.8398,-8.8398,-8.8364,-8.7708,-8.6676,-8.5616,-8.4386,-8.3194,-8.2038,-8.1292,-8.0547,-8.0513,-8.0445,-8.0378,-8.0209,-8.0276,-8.0039,-7.9699,-7.8836,-7.6766,-7.5102,-7.3324,-7.2326,-7.1952,-7.151,-7.0847,-7.062,-7.0859,-7.0679,-7.0201,-7.0021,-7.6497,-7.6258,-7.609,-7.5976,-7.5976,-7.5976,-7.5976,-7.5976,-7.5976,-7.6015,-7.5976,-7.5976,-7.6015,-7.6015,-7.6053,-7.6322,-7.6823,-7.6976,-7.74,-7.8207,-7.89,-7.9092,-7.9131,-7.9361,-7.9939,-8.0568,-8.034,-8.0201,-8.0427,-7.9592,-7.9567,-8.0338,-8.0134,-8.0228,-8.0728,-8.1323,-8.162,-8.1657,-8.1806,-8.2288,-8.2771,-8.2809,-8.2957,-8.3106,-8.2957,-8.2846,-8.2957,-8.3477,-8.3366,-8.2623,-8.2734,-8.3158,-8.378,-8.3707,-8.3888,-8.4461,-8.4448,-8.4646,-8.5343,-8.571,-8.6481,-8.7766,-8.8647,-8.9454,-9.0225,-9.0298,-9.0592,-9.0996,-9.14,-9.1767,-9.2427,-9.3308,-9.3712,-9.3639,-9.3087,-9.2752,-9.2758,-9.2063,-9.1122,-9.0423,-8.9344,-8.8879,-8.8743,-8.8743,-8.8708,-8.8708,-8.8605,-8.8157,-8.6886,-8.5548,-8.4216,-8.2854,-8.1766,-8.0851,-8.0276,-8.0242,-8.0242,-8.0242,-8.0209,-8.0074,-7.9492,-7.8657,-7.7291,-7.5359,-7.4388,-7.2859,-7.2357,-7.1947,-7.1435,-7.1048,-7.0919,-7.0919,-7.0919,-7.0649,-7.059,-7.6555,-7.6415,-7.6106,-7.5976,-7.6015,-7.5947,-7.5985,-7.6015,-7.5985,-7.5985,-7.6015,-7.5976,-7.6207,-7.6553,-7.6553,-7.7015,-7.7707,-7.7784,-7.8284,-7.9092,-7.99,-8.0285,-8.04,-8.0631,-8.1131,-8.1516,-8.1321,-8.1073,-8.0812,-7.9988,-8.0175,-8.079,-8.0638,-8.1007,-8.2127,-8.1921,-8.2177,-8.2363,-8.2214,-8.2363,-8.3106,-8.2846,-8.292,-8.3069,-8.3217,-8.3292,-8.37,-8.4146,-8.4146,-8.3849,-8.3997,-8.4346,-8.4657,-8.4521,-8.4737,-8.541,-8.522,-8.5453,-8.6187,-8.6591,-8.7399,-8.8536,-8.9454,-9.0262,-9.0996,-9.14,-9.195,-9.2244,-9.2611,-9.3088,-9.3529,-9.4042,-9.4593,-9.4995,-9.4216,-9.3352,-9.2981,-9.236,-9.1529,-9.0642,-8.994,-8.9502,-8.9536,-8.9502,-8.9502,-8.9467,-8.9191,-8.833,-8.7092,-8.5618,-8.4046,-8.265,-8.1631,-8.0919,-8.0344,-8.0209,-8.0209,-8.0209,-7.9632,-7.9632,-7.8836,-7.773,-7.6363,-7.4889,-7.3661,-7.2608,-7.2231,-7.185,-7.1435,-7.1048,-7.0919,-7.0919,-7.0919,-7.0919,-7.0919,-7.657,-7.6555,-7.616,-7.5976,-7.6015,-7.5925,-7.5955,-7.5985,-7.5955,-7.5955,-7.6015,-7.5976,-7.6438,-7.7284,-7.713,-7.7746,-7.8592,-7.8631,-7.9169,-7.99,-8.0631,-8.1054,-8.1285,-8.1516,-8.1785,-8.19,-8.2131,-8.193,-8.1456,-8.085,-8.1151,-8.1723,-8.1113,-8.1771,-8.2946,-8.2743,-8.2685,-8.302,-8.257,-8.2549,-8.2994,-8.2697,-8.2697,-8.3106,-8.344,-8.3849,-8.4369,-8.4703,-8.474,-8.4666,-8.5261,-8.5521,-8.5571,-8.5397,-8.565,-8.6176,-8.6133,-8.6224,-8.6921,-8.7582,-8.8426,-8.9271,-9.0078,-9.0959,-9.162,-9.2317,-9.2868,-9.2941,-9.3896,-9.4373,-9.463,-9.463,-9.5217,-9.5948,-9.4992,-9.3778,-9.3049,-9.2689,-9.2198,-9.138,-9.1087,-9.0814,-9.0812,-9.0812,-9.0709,-8.9778,-8.9328,-8.8467,-8.7229,-8.5788,-8.4045,-8.231,-8.1597,-8.0987,-8.0581,-8.0209,-8.0209,-8.0107,-7.9184,-7.873,-7.8056,-7.6925,-7.5791,-7.4564,-7.3293,-7.2483,-7.1977,-7.1594,-7.1307,-7.1048,-7.0919,-7.0919,-7.0919,-7.0919,-7.0919,-7.6517,-7.6327,-7.6079,-7.5976,-7.5976,-7.5985,-7.5985,-7.5976,-7.5985,-7.5985,-7.6015,-7.6015,-7.6553,-7.7361,-7.7515,-7.8092,-7.94,-7.9554,-8.0015,-8.0746,-8.0939,-8.1477,-8.1747,-8.1708,-8.1439,-8.1554,-8.1439,-8.1715,-8.1892,-8.1837,-8.1805,-8.2565,-8.2722,-8.2944,-8.338,-8.3576,-8.3522,-8.3618,-8.3172,-8.2941,-8.3127,-8.2957,-8.292,-8.3292,-8.3812,-8.4555,-8.5298,-8.5929,-8.6264,-8.6189,-8.5929,-8.6041,-8.6388,-8.6212,-8.6389,-8.6878,-8.6869,-8.6811,-8.7105,-8.7766,-8.8573,-8.9381,-9.0152,-9.0959,-9.173,-9.2648,-9.3088,-9.3382,-9.4373,-9.5437,-9.5914,-9.6135,-9.6168,-9.616,-9.5049,-9.3651,-9.2852,-9.2446,-9.2137,-9.1824,-9.1296,-9.0812,-9.0812,-9.0812,-9.0571,-9.0088,-8.9328,-8.8429,-8.7225,-8.5784,-8.4146,-8.2343,-8.1766,-8.1291,-8.0513,-8.0209,-8.0209,-7.9972,-7.9079,-7.8089,-7.7291,-7.6249,-7.5125,-7.3964,-7.2797,-7.22,-7.1722,-7.1435,-7.1148,-7.1018,-7.0919,-7.0919,-7.0919,-7.0919,-7.0919,-7.6458,-7.6297,-7.6118,-7.5976,-7.6015,-7.5985,-7.5985,-7.5985,-7.5955,-7.6216,-7.6553,-7.6592,-7.7284,-7.8438,-7.8515,-7.9246,-8.0169,-8.0439,-8.0631,-8.1016,-8.1131,-8.1554,-8.2131,-8.2054,-8.1977,-8.267,-8.2939,-8.317,-8.3259,-8.2967,-8.3016,-8.3747,-8.3788,-8.3925,-8.422,-8.4306,-8.4254,-8.4029,-8.3388,-8.3153,-8.3434,-8.2888,-8.3143,-8.3737,-8.4555,-8.5335,-8.6115,-8.6524,-8.6969,-8.7155,-8.7007,-8.6932,-8.7242,-8.7063,-8.7091,-8.7321,-8.72,-8.7031,-8.7178,-8.7766,-8.8573,-8.9381,-9.0152,-9.0959,-9.1877,-9.2905,-9.3602,-9.4006,-9.5034,-9.6282,-9.6649,-9.6685,-9.6608,-9.583,-9.4771,-9.3497,-9.2681,-9.2031,-9.148,-9.1286,-9.0815,-9.0848,-9.0812,-9.0778,-9.0398,-8.9881,-8.874,-8.7841,-8.6983,-8.5577,-8.414,-8.285,-8.2171,-8.1528,-8.0581,-8.0209,-8.0209,-7.987,-7.9184,-7.7948,-7.6958,-7.5675,-7.4414,-7.3385,-7.2483,-7.2073,-7.1564,-7.1405,-7.1148,-7.1018,-7.0919,-7.0919,-7.0919,-7.0919,-7.0919,-7.6497,-7.6297,-7.6052,-7.6015,-7.5976,-7.5925,-7.5925,-7.5985,-7.6041,-7.657,-7.7207,-7.74,-7.8246,-7.9477,-7.9669,-8.0246,-8.0862,-8.1054,-8.1054,-8.1054,-8.1362,-8.19,-8.2477,-8.2862,-8.3516,-8.4939,-8.4439,-8.4478,-8.4478,-8.4247,-8.4181,-8.4835,-8.4667,-8.4825,-8.5244,-8.5029,-8.481,-8.4643,-8.3801,-8.3463,-8.39,-8.3246,-8.3599,-8.4903,-8.5611,-8.6356,-8.6929,-8.7204,-8.7341,-8.8047,-8.8084,-8.8158,-8.8107,-8.773,-8.7497,-8.7431,-8.7132,-8.7142,-8.7435,-8.8023,-8.883,-8.9528,-9.0372,-9.1179,-9.2134,-9.3308,-9.4116,-9.485,-9.5694,-9.6612,-9.6722,-9.6416,-9.5984,-9.5301,-9.4319,-9.3226,-9.2489,-9.1607,-9.0806,-9.0365,-9.0607,-9.0778,-9.0709,-9.0605,-9.0157,-8.9535,-8.836,-8.7291,-8.6329,-8.5301,-8.3832,-8.278,-8.2103,-8.1426,-8.0513,-8.0209,-8.0209,-7.987,-7.9184,-7.8056,-7.6846,-7.556,-7.4294,-7.3046,-7.2104,-7.1819,-7.1435,-7.1178,-7.1048,-7.0919,-7.0919,-7.0919,-7.0919,-7.0919,-7.0919,-7.6497,-7.6258,-7.6034,-7.5955,-7.5947,-7.5826,-7.5895,-7.6101,-7.6655,-7.707,-7.7438,-7.8015,-7.8861,-7.9669,-7.9823,-8.0323,-8.0977,-8.1093,-8.1131,-8.1285,-8.1708,-8.2439,-8.3324,-8.3939,-8.4863,-8.5247,-8.4824,-8.4478,-8.4863,-8.4786,-8.5055,-8.5676,-8.5719,-8.5804,-8.5737,-8.5514,-8.5317,-8.5235,-8.4658,-8.4542,-8.4551,-8.4755,-8.5225,-8.6704,-8.7117,-8.7586,-8.8051,-8.8055,-8.7973,-8.8084,-8.8084,-8.8393,-8.8562,-8.8035,-8.7653,-8.7446,-8.7242,-8.7362,-8.7876,-8.8757,-8.9564,-9.0372,-9.1069,-9.1877,-9.2758,-9.3712,-9.4556,-9.5364,-9.6061,-9.6722,-9.6722,-9.6064,-9.5503,-9.4842,-9.3745,-9.2524,-9.2133,-9.1464,-9.0745,-9.0192,-9.0502,-9.0709,-9.0502,-9.0192,-8.964,-8.8811,-8.7777,-8.6744,-8.5923,-8.4791,-8.3527,-8.2577,-8.1832,-8.1122,-8.0344,-8.0242,-8.0209,-7.9972,-7.9288,-7.8197,-7.6958,-7.5592,-7.4325,-7.2922,-7.2104,-7.1722,-7.1435,-7.1048,-7.0919,-7.0919,-7.0919,-7.0919,-7.0919,-7.0919,-7.0919,-7.6438,-7.6171,-7.5967,-7.5925,-7.6002,-7.6286,-7.6509,-7.6784,-7.7485,-7.8139,-7.8592,-7.9054,-7.9631,-8.0285,-8.0477,-8.0746,-8.1016,-8.1093,-8.1323,-8.1708,-8.217,-8.3054,-8.4093,-8.4747,-8.5363,-8.5709,-8.5286,-8.5016,-8.5478,-8.5555,-8.5747,-8.5978,-8.6094,-8.6094,-8.606,-8.5884,-8.5777,-8.5742,-8.5698,-8.5714,-8.5823,-8.636,-8.7324,-8.7852,-8.8405,-8.8715,-8.8636,-8.8616,-8.8316,-8.8221,-8.8493,-8.8774,-8.8803,-8.8856,-8.8538,-8.8004,-8.7688,-8.7766,-8.839,-8.9234,-9.0188,-9.0592,-9.1363,-9.1913,-9.2611,-9.3492,-9.4813,-9.5841,-9.6318,-9.6722,-9.6722,-9.5749,-9.5048,-9.4319,-9.3097,-9.1993,-9.129,-9.0884,-9.0434,-9.0054,-9.0329,-9.0364,-9.0123,-8.9709,-8.8984,-8.8123,-8.709,-8.6232,-8.5479,-8.4211,-8.3084,-8.2205,-8.146,-8.0851,-8.031,-8.0242,-8.0209,-7.9972,-7.9528,-7.8411,-7.718,-7.5906,-7.4205,-7.2578,-7.1977,-7.1722,-7.1307,-7.0919,-7.0919,-7.0919,-7.0919,-7.0919,-7.0919,-7.0919,-7.0919,-7.6439,-7.6157,-7.5985,-7.6002,-7.624,-7.6754,-7.7201,-7.7639,-7.8369,-7.9062,-7.9785,-8.0015,-8.0439,-8.0939,-8.1093,-8.117,-8.1323,-8.1362,-8.1823,-8.2516,-8.2901,-8.3708,-8.4555,-8.517,-8.5517,-8.5978,-8.5978,-8.6094,-8.5978,-8.6017,-8.6055,-8.6094,-8.6094,-8.6094,-8.606,-8.606,-8.6132,-8.6453,-8.6621,-8.6891,-8.7378,-8.8124,-8.8737,-8.8805,-8.9403,-8.9464,-8.9092,-8.9067,-8.8666,-8.853,-8.8753,-8.9145,-8.8967,-8.9566,-8.9683,-8.9072,-8.8607,-8.85,-8.9014,-8.9711,-9.0592,-9.0996,-9.1473,-9.1803,-9.2537,-9.3749,-9.5034,-9.6025,-9.6612,-9.6348,-9.5967,-9.5394,-9.4459,-9.3527,-9.2383,-9.1321,-9.0399,-8.9881,-8.9605,-8.9605,-9.0019,-8.9881,-8.9467,-8.8984,-8.8226,-8.7642,-8.6645,-8.5991,-8.51,-8.3835,-8.2746,-8.1799,-8.1054,-8.0547,-8.0209,-8.0242,-8.0209,-8.0074,-7.9734,-7.8974,-7.773,-7.6395,-7.4533,-7.2703,-7.1977,-7.1564,-7.1178,-7.0919,-7.0919,-7.0919,-7.0919,-7.0919,-7.0919,-7.0919,-7.0919,-7.663,-7.6361,-7.6108,-7.637,-7.6932,-7.6935,-7.7456,-7.8408,-7.9121,-7.9544,-7.9977,-8.0554,-8.0939,-8.1093,-8.117,-8.1516,-8.1939,-8.2208,-8.2631,-8.3439,-8.4055,-8.4478,-8.5016,-8.567,-8.5824,-8.6094,-8.6094,-8.6094,-8.6094,-8.6094,-8.6094,-8.6094,-8.6094,-8.6094,-8.6094,-8.6247,-8.6517,-8.7094,-8.7295,-8.7846,-8.8728,-8.942,-8.9802,-9.01,-9.0203,-9.0015,-8.9528,-8.9491,-8.929,-8.8431,-8.8901,-8.9081,-8.893,-8.9529,-9.0099,-9.0037,-8.9821,-8.9601,-9.0188,-9.0555,-9.0959,-9.14,-9.1803,-9.2207,-9.3198,-9.4226,-9.5107,-9.452,-9.5691,-9.5742,-9.4731,-9.41,-9.3455,-9.2409,-9.1281,-9.0397,-8.9605,-8.9295,-8.9019,-8.8605,-8.8812,-8.8812,-8.857,-8.7951,-8.7434,-8.6817,-8.6303,-8.565,-8.4689,-8.3462,-8.2238,-8.1257,-8.0818,-8.0344,-8.0209,-8.0209,-8.0209,-8.0209,-7.9972,-7.9392,-7.8056,-7.6589,-7.4857,-7.3262,-7.2296,-7.1435,-7.1048,-7.0919,-7.0919,-7.0919,-7.0919,-7.0919,-7.0919,-7.0919,-7.0919,-7.7545,-7.7287,-7.69,-7.7225,-7.7997,-7.8152,-7.8607,-7.93,-7.9966,-8.0389,-8.0561,-8.09,-8.1093,-8.1208,-8.1516,-8.1977,-8.2362,-8.2824,-8.3516,-8.417,-8.4747,-8.517,-8.5593,-8.5901,-8.6094,-8.6094,-8.6094,-8.6094,-8.6094,-8.6094,-8.6094,-8.6094,-8.6094,-8.6094,-8.6286,-8.6594,-8.6978,-8.7555,-8.8252,-8.9294,-9.0069,-9.0526,-9.0716,-9.0839,-9.0839,-9.0402,-8.9897,-8.9667,-8.9517,-8.9025,-8.9533,-9.0267,-9.0815,-9.1565,-9.2236,-9.2647,-9.2427,-9.195,-9.14,-9.1326,-9.1546,-9.184,-9.2281,-9.3125,-9.4226,-9.496,-9.5135,-9.4263,-9.4773,-9.4477,-9.3345,-9.2707,-9.22,-9.1397,-9.0291,-8.9396,-8.8812,-8.8812,-8.8501,-8.8053,-8.7639,-8.7606,-8.7573,-8.7264,-8.6749,-8.6234,-8.5719,-8.5066,-8.4008,-8.2681,-8.1562,-8.0547,-8.0344,-8.0242,-8.0209,-8.0209,-8.0209,-8.0209,-8.0209,-7.9528,-7.8164,-7.6701,-7.4975,-7.3446,-7.2391,-7.1661,-7.1018,-7.0919,-7.0919,-7.0919,-7.0919,-7.0919,-7.0919,-7.0919,-7.0919,-7.8417,-7.8377,-7.7969,-7.8258,-7.8987,-7.9383,-7.9703,-8.0177,-8.0651,-8.0959,-8.1061,-8.1093,-8.117,-8.1477,-8.2054,-8.2516,-8.3054,-8.3632,-8.4401,-8.4939,-8.5247,-8.5555,-8.5978,-8.6209,-8.6363,-8.6132,-8.6478,-8.6324,-8.6209,-8.6286,-8.6401,-8.6132,-8.644,-8.6478,-8.6671,-8.7286,-8.7902,-8.8325,-8.9517,-9.0406,-9.0982,-9.1098,-9.1133,-9.1136,-9.11,-9.0799,-9.0096,-9.0283,-9.0206,-8.9783,-9.0323,-9.1054,-9.1739,-9.2561,-9.3378,-9.386,-9.3969,-9.3859,-9.3125,-9.2721,-9.2354,-9.2427,-9.2868,-9.3822,-9.474,-9.529,-9.4765,-9.3542,-9.4078,-9.3265,-9.2014,-9.1093,-9.0862,-9.0339,-8.9498,-8.8533,-8.7743,-8.7777,-8.7606,-8.7091,-8.6747,-8.6542,-8.6508,-8.6509,-8.6096,-8.5547,-8.4998,-8.4483,-8.3428,-8.2069,-8.1224,-8.031,-8.0209,-8.0209,-8.0209,-8.0209,-8.0209,-8.0209,-8.0209,-7.9392,-7.7948,-7.6556,-7.5061,-7.3659,-7.2391,-7.1533,-7.0919,-7.0919,-7.0919,-7.0919,-7.0919,-7.0919,-7.0919,-7.0919,-7.0789,-7.8845,-7.9548,-7.9247,-7.9388,-7.9814,-7.9779,-8.0269,-8.0893,-8.0914,-8.0991,-8.1093,-8.117,-8.1593,-8.2093,-8.2554,-8.3324,-8.4632,-8.4747,-8.5324,-8.5786,-8.6017,-8.6132,-8.644,-8.6748,-8.6824,-8.6324,-8.6555,-8.6555,-8.6478,-8.6901,-8.6671,-8.6324,-8.7017,-8.7248,-8.7555,-8.8132,-8.8979,-8.9517,-9.0517,-9.0902,-9.1171,-9.121,-9.121,-9.121,-9.1177,-9.1067,-9.0873,-9.142,-9.1466,-9.0701,-9.126,-9.1869,-9.2483,-9.3265,-9.4044,-9.4668,-9.518,-9.5107,-9.4666,-9.4006,-9.3675,-9.3492,-9.3712,-9.4373,-9.4997,-9.5251,-9.4317,-9.2682,-9.3182,-9.2227,-9.0737,-8.9503,-8.9821,-8.9318,-8.881,-8.8086,-8.7329,-8.6846,-8.6607,-8.6129,-8.5959,-8.5926,-8.5754,-8.5822,-8.5752,-8.5341,-8.4418,-8.3869,-8.2918,-8.1765,-8.1054,-8.0412,-8.0242,-8.0209,-8.0209,-8.0209,-8.0209,-8.0209,-8.0209,-7.8974,-7.7401,-7.6103,-7.5061,-7.3415,-7.2013,-7.1405,-7.0919,-7.0919,-7.0919,-7.0919,-7.0919,-7.0919,-7.0919,-7.0919,-7.0789,-7.9665,-8.047,-8.0856,-8.1077,-8.1116,-8.0865,-8.095,-8.1231,-8.1147,-8.1069,-8.1131,-8.1593,-8.2016,-8.2477,-8.3555,-8.4209,-8.4939,-8.5478,-8.6132,-8.6671,-8.6901,-8.6901,-8.7094,-8.7017,-8.694,-8.6363,-8.6517,-8.6901,-8.7017,-8.7401,-8.7671,-8.7709,-8.8055,-8.8132,-8.8479,-8.9017,-8.9825,-9.0479,-9.0979,-9.1171,-9.121,-9.121,-9.121,-9.121,-9.1864,-9.1564,-9.1235,-9.2216,-9.2317,-9.2305,-9.267,-9.3102,-9.3702,-9.441,-9.4964,-9.5474,-9.6025,-9.5914,-9.5474,-9.4887,-9.4373,-9.474,-9.4923,-9.518,-9.5435,-9.5522,-9.4322,-9.3179,-9.2229,-9.1245,-9.0129,-8.9631,-8.9602,-8.8811,-8.8157,-8.7605,-8.7053,-8.6501,-8.6162,-8.589,-8.5788,-8.5823,-8.5514,-8.5236,-8.5236,-8.4995,-8.4143,-8.3155,-8.2238,-8.1494,-8.0784,-8.0412,-8.0242,-8.0209,-8.0209,-8.0209,-8.0209,-8.0209,-8.0209,-7.873,-7.7369,-7.6184,-7.5029,-7.3292,-7.1947,-7.1397,-7.1009,-7.0949,-7.0919,-7.0919,-7.0919,-7.0919,-7.0919,-7.0919,-7.0789,-8.0179,-8.0985,-8.1844,-8.2104,-8.1856,-8.1657,-8.1501,-8.1469,-8.1383,-8.1272,-8.1282,-8.2194,-8.2708,-8.3131,-8.4132,-8.5286,-8.5747,-8.6324,-8.7017,-8.7363,-8.7517,-8.744,-8.7401,-8.7286,-8.6978,-8.6363,-8.6748,-8.7286,-8.7325,-8.7863,-8.844,-8.894,-8.9286,-8.9363,-8.9248,-8.9863,-9.0594,-9.1056,-9.121,-9.121,-9.121,-9.121,-9.1479,-9.1521,-9.2025,-9.2355,-9.2326,-9.3056,-9.3422,-9.3621,-9.4017,-9.4696,-9.5366,-9.5847,-9.6103,-9.6468,-9.6649,-9.6392,-9.5841,-9.5254,-9.507,-9.5621,-9.5804,-9.5981,-9.5961,-9.5549,-9.43,-9.2331,-9.1457,-9.0752,-8.9743,-8.926,-8.8983,-8.8191,-8.8053,-8.7536,-8.688,-8.6329,-8.6026,-8.5788,-8.5686,-8.5583,-8.4998,-8.4721,-8.4449,-8.4208,-8.3598,-8.2714,-8.1866,-8.1156,-8.0513,-8.0242,-8.0209,-8.0209,-8.0209,-8.0209,-8.0209,-7.9972,-7.9734,-7.873,-7.7479,-7.6363,-7.4857,-7.3015,-7.191,-7.1388,-7.1338,-7.1547,-7.1308,-7.0949,-7.0919,-7.0919,-7.0919,-7.0919,-7.0658,-8.0224,-8.1083,-8.1942,-8.2153,-8.1961,-8.1895,-8.182,-8.1698,-8.1738,-8.1635,-8.1594,-8.2815,-8.3503,-8.3702,-8.4472,-8.5593,-8.6748,-8.7094,-8.7594,-8.8132,-8.7709,-8.7478,-8.7401,-8.7286,-8.7055,-8.6748,-8.7248,-8.7709,-8.7671,-8.8825,-8.9556,-9.0017,-9.0364,-9.0479,-9.0017,-9.071,-9.1171,-9.121,-9.121,-9.121,-9.121,-9.121,-9.1556,-9.1869,-9.2218,-9.2748,-9.3365,-9.4104,-9.451,-9.4815,-9.4952,-9.5403,-9.5884,-9.5809,-9.6025,-9.6612,-9.6685,-9.6649,-9.6539,-9.5841,-9.5878,-9.6318,-9.6392,-9.6192,-9.5549,-9.4976,-9.4192,-9.213,-9.1256,-9.0414,-8.9463,-8.8777,-8.8501,-8.8053,-8.795,-8.7467,-8.6811,-8.6194,-8.5992,-8.5686,-8.5514,-8.5239,-8.4687,-8.4099,-8.3693,-8.3321,-8.2813,-8.2171,-8.1494,-8.0919,-8.0276,-8.0209,-8.0209,-8.0209,-8.0209,-8.0209,-8.0074,-7.987,-7.9422,-7.8643,-7.7362,-7.5858,-7.4276,-7.2636,-7.2176,-7.1948,-7.2086,-7.2325,-7.1816,-7.1278,-7.0979,-7.0919,-7.0919,-7.0919,-7.0658,-8.0185,-8.1083,-8.1942,-8.2234,-8.2162,-8.2162,-8.2073,-8.1983,-8.2237,-8.2165,-8.1984,-8.3141,-8.3807,-8.4059,-8.4682,-8.5857,-8.7127,-8.6709,-8.7132,-8.8479,-8.7786,-8.7517,-8.7401,-8.7401,-8.7248,-8.7171,-8.7748,-8.8594,-8.9171,-8.9825,-9.0287,-9.0748,-9.0941,-9.1018,-9.0864,-9.1133,-9.121,-9.121,-9.121,-9.121,-9.121,-9.121,-9.1364,-9.1751,-9.2518,-9.3297,-9.4008,-9.4817,-9.5678,-9.5902,-9.5918,-9.6216,-9.6473,-9.6284,-9.6392,-9.6685,-9.6685,-9.6428,-9.6098,-9.5658,-9.5914,-9.6355,-9.6462,-9.604,-9.5384,-9.4583,-9.3384,-9.2075,-9.1042,-9.0397,-9.0261,-9.0088,-8.9743,-8.8639,-8.8157,-8.7501,-8.688,-8.63,-8.589,-8.5583,-8.5411,-8.4927,-8.4408,-8.3761,-8.3287,-8.2712,-8.2205,-8.1832,-8.1224,-8.075,-8.0209,-8.0209,-8.0209,-8.0209,-8.0209,-8.0378,-8.0513,-8.0479,-7.9752,-7.8848,-7.7431,-7.5712,-7.4563,-7.3327,-7.2953,-7.2565,-7.2595,-7.2505,-7.2086,-7.1637,-7.1218,-7.0949,-7.0919,-7.0919,-7.0789,-8.0185,-8.1083,-8.1942,-8.2293,-8.2293,-8.2293,-8.2343,-8.2658,-8.3438,-8.3593,-8.3559,-8.4704,-8.5405,-8.5473,-8.5577,-8.6423,-8.775,-8.7133,-8.7166,-8.8474,-8.7786,-8.7709,-8.7748,-8.7555,-8.7632,-8.7748,-8.8248,-8.894,-8.9748,-9.0171,-9.0633,-9.1018,-9.121,-9.1171,-9.1133,-9.1171,-9.121,-9.121,-9.121,-9.121,-9.121,-9.1213,-9.1293,-9.1759,-9.2499,-9.3514,-9.427,-9.5367,-9.6609,-9.6577,-9.6805,-9.6989,-9.6914,-9.6762,-9.6685,-9.6685,-9.6355,-9.5914,-9.529,-9.507,-9.5254,-9.5621,-9.5841,-9.5224,-9.4217,-9.3227,-9.2176,-9.106,-9.0468,-9.0262,-9.0054,-9.0123,-8.964,-8.8501,-8.7743,-8.7053,-8.6162,-8.5614,-8.507,-8.4934,-8.4556,-8.4313,-8.4137,-8.3456,-8.2881,-8.2238,-8.1562,-8.1325,-8.1054,-8.0581,-8.0276,-8.031,-8.0378,-8.0445,-8.0547,-8.0716,-8.0851,-8.0953,-8.0042,-7.892,-7.739,-7.5825,-7.4933,-7.3959,-7.3063,-7.2445,-7.2684,-7.2595,-7.2235,-7.1787,-7.1278,-7.1068,-7.0949,-7.0919,-7.0789,-8.0302,-8.1122,-8.202,-8.2489,-8.245,-8.2567,-8.2918,-8.3653,-8.5164,-8.5741,-8.5767,-8.6959,-8.7351,-8.7545,-8.702,-8.7375,-8.8249,-8.777,-8.7987,-8.8188,-8.7732,-8.7968,-8.8051,-8.7902,-8.8132,-8.8786,-8.9286,-8.9556,-9.0056,-9.0594,-9.1056,-9.1171,-9.121,-9.121,-9.121,-9.121,-9.121,-9.121,-9.121,-9.121,-9.121,-9.121,-9.1375,-9.1788,-9.2489,-9.3577,-9.4458,-9.5474,-9.6273,-9.6694,-9.7027,-9.6914,-9.6762,-9.6649,-9.6649,-9.6392,-9.5768,-9.5107,-9.4446,-9.4299,-9.4116,-9.4226,-9.4189,-9.3151,-9.2338,-9.1854,-9.1046,-8.996,-8.9191,-8.9018,-8.8812,-8.8708,-8.857,-8.7708,-8.6949,-8.609,-8.5133,-8.452,-8.4078,-8.3671,-8.3296,-8.3123,-8.3392,-8.2949,-8.2746,-8.278,-8.2205,-8.146,-8.1122,-8.0547,-8.0344,-8.0513,-8.0615,-8.075,-8.0919,-8.1257,-8.1426,-8.1629,-8.0014,-7.8809,-7.7238,-7.6023,-7.4979,-7.387,-7.2811,-7.2325,-7.2684,-7.2684,-7.2445,-7.1936,-7.1338,-7.1068,-7.0919,-7.0919,-7.0789,-8.2215,-8.2137,-8.4128,-8.4675,-8.4128,-8.4089,-8.4245,-8.4629,-8.6168,-8.6667,-8.6081,-8.6949,-8.7619,-8.7293,-8.6319,-8.7039,-8.7463,-8.763,-8.7565,-8.7588,-8.7649,-8.7711,-8.7891,-8.8209,-8.8748,-8.9363,-8.9902,-9.0287,-9.071,-9.121,-9.121,-9.121,-9.121,-9.121,-9.121,-9.121,-9.121,-9.121,-9.121,-9.121,-9.1136,-9.1136,-9.1337,-9.1692,-9.282,-9.3876,-9.4584,-9.5923,-9.6692,-9.6843,-9.6877,-9.6762,-9.6685,-9.6171,-9.5731,-9.5034,-9.4666,-9.4299,-9.3639,-9.3455,-9.3272,-9.2831,-9.2684,-9.2278,-9.157,-9.1015,-9.0375,-8.9095,-8.826,-8.8191,-8.8157,-8.8088,-8.7743,-8.7122,-8.6329,-8.5371,-8.4414,-8.3531,-8.3124,-8.299,-8.2615,-8.292,-8.2983,-8.278,-8.2644,-8.3084,-8.2915,-8.2002,-8.1291,-8.0716,-8.0513,-8.0716,-8.0885,-8.1054,-8.1663,-8.2035,-8.2171,-8.1993,-8.0517,-7.9204,-7.8307,-7.7026,-7.5365,-7.3877,-7.286,-7.2535,-7.2834,-7.2654,-7.2235,-7.1876,-7.1368,-7.1098,-7.0919,-7.0919,-7.0629,-8.323,-8.3074,-8.4792,-8.5456,-8.5338,-8.5299,-8.5456,-8.6041,-8.7329,-8.7564,-8.7244,-8.7984,-8.8228,-8.8139,-8.7105,-8.6981,-8.8045,-8.7426,-8.729,-8.7565,-8.7461,-8.7966,-8.8271,-8.8632,-8.9363,-8.9979,-9.0441,-9.0748,-9.1095,-9.121,-9.121,-9.121,-9.121,-9.121,-9.121,-9.121,-9.121,-9.121,-9.121,-9.121,-9.1175,-9.1066,-9.11,-9.1629,-9.3075,-9.3764,-9.442,-9.591,-9.6363,-9.6105,-9.5843,-9.5327,-9.4997,-9.4189,-9.4263,-9.3639,-9.3382,-9.3088,-9.2648,-9.2574,-9.2244,-9.195,-9.1803,-9.1261,-9.0768,-9.0196,-8.9084,-8.79,-8.7738,-8.7639,-8.7674,-8.7605,-8.7087,-8.657,-8.5712,-8.4755,-8.3766,-8.2713,-8.2377,-8.231,-8.241,-8.278,-8.2847,-8.2543,-8.234,-8.2441,-8.2475,-8.2171,-8.1562,-8.1088,-8.0953,-8.1054,-8.1224,-8.1426,-8.2103,-8.278,-8.3016,-8.2657,-8.1308,-8.0151,-7.9195,-7.7027,-7.4454,-7.3485,-7.2877,-7.2595,-7.2325,-7.2206,-7.1906,-7.1547,-7.1278,-7.1068,-7.0919,-7.0919,-7.0658,-8.3816,-8.3816,-8.4636,-8.5612,-8.6158,-8.6197,-8.6627,-8.7486,-8.8227,-8.8657,-8.8735,-8.9437,-8.9548,-8.8947,-8.7798,-8.7604,-8.8065,-8.7728,-8.7556,-8.7771,-8.7539,-8.7947,-8.8637,-8.9244,-8.9671,-9.0594,-9.1133,-9.1018,-9.1133,-9.121,-9.121,-9.121,-9.121,-9.121,-9.121,-9.1441,-9.1441,-9.1248,-9.1402,-9.1518,-9.1295,-9.0952,-9.0683,-9.1204,-9.2052,-9.2914,-9.3738,-9.4585,-9.5294,-9.4669,-9.4081,-9.3345,-9.2537,-9.2244,-9.2537,-9.2537,-9.2317,-9.2244,-9.206,-9.2024,-9.195,-9.184,-9.1803,-9.0819,-9.0145,-8.9693,-8.8693,-8.7374,-8.7016,-8.6949,-8.6949,-8.6674,-8.6191,-8.5505,-8.4682,-8.3903,-8.3123,-8.2376,-8.197,-8.1901,-8.2105,-8.2408,-8.2441,-8.2171,-8.234,-8.2035,-8.2002,-8.2069,-8.1866,-8.146,-8.1426,-8.146,-8.1629,-8.2002,-8.2813,-8.3456,-8.3862,-8.3381,-8.2,-8.0528,-7.9252,-7.6588,-7.3274,-7.2691,-7.2206,-7.1816,-7.1547,-7.1517,-7.1487,-7.1218,-7.1009,-7.0949,-7.0919,-7.0919,-7.0528,-8.608,-8.5573,-8.6431,-8.6939,-8.7095,-8.7095,-8.7173,-8.7486,-8.8305,-8.8657,-8.8735,-8.8891,-8.9008,-8.8774,-8.7954,-8.7815,-8.8236,-8.8248,-8.8272,-8.8356,-8.8165,-8.8029,-8.8557,-8.9041,-8.9705,-9.0248,-9.0748,-9.121,-9.121,-9.121,-9.121,-9.1248,-9.121,-9.121,-9.1364,-9.171,-9.171,-9.1287,-9.1633,-9.1867,-9.191,-9.1679,-9.1476,-9.1711,-9.2241,-9.2032,-9.2498,-9.2602,-9.2828,-9.2501,-9.2537,-9.1877,-9.0996,-9.1436,-9.151,-9.1363,-9.1657,-9.1693,-9.1803,-9.1803,-9.1803,-9.1803,-9.1546,-9.0595,-8.9785,-8.9364,-8.8525,-8.7109,-8.6294,-8.6294,-8.6191,-8.5811,-8.5229,-8.451,-8.3728,-8.3189,-8.2547,-8.214,-8.1732,-8.1697,-8.1799,-8.1832,-8.19,-8.2035,-8.2205,-8.2272,-8.2306,-8.2306,-8.2205,-8.1934,-8.1968,-8.2035,-8.2137,-8.2611,-8.3389,-8.3964,-8.4268,-8.3874,-8.2743,-8.1196,-7.9276,-7.5775,-7.248,-7.2049,-7.1577,-7.1308,-7.1158,-7.1068,-7.0979,-7.0919,-7.0919,-7.0919,-7.0919,-7.0919,-7.0528,-8.7134,-8.6744,-8.7173,-8.7407,-8.7407,-8.7407,-8.7407,-8.7486,-8.7915,-8.811,-8.8188,-8.8461,-8.8501,-8.8188,-8.7603,-8.7603,-8.8227,-8.854,-8.8462,-8.8559,-8.8632,-8.8523,-8.8671,-8.8721,-8.9282,-8.9863,-9.071,-9.121,-9.121,-9.1248,-9.1248,-9.1518,-9.1479,-9.1364,-9.1633,-9.1941,-9.1787,-9.1248,-9.1787,-9.1948,-9.1989,-9.1429,-9.0884,-9.1068,-9.1178,-9.113,-9.1512,-9.161,-9.1431,-9.0737,-9.0078,-9.0225,-8.9784,-9.0005,-9.0555,-9.0996,-9.1326,-9.1436,-9.1657,-9.173,-9.173,-9.173,-9.173,-9.0871,-8.9534,-8.9019,-8.8255,-8.7012,-8.6394,-8.6294,-8.5887,-8.5577,-8.4655,-8.3903,-8.3394,-8.2887,-8.2513,-8.2274,-8.2035,-8.2069,-8.1934,-8.1494,-8.1562,-8.1562,-8.1663,-8.1393,-8.1629,-8.1765,-8.1799,-8.2137,-8.2272,-8.2509,-8.2611,-8.2881,-8.3456,-8.4031,-8.4505,-8.3934,-8.333,-8.0312,-7.7595,-7.443,-7.1816,-7.1487,-7.1248,-7.1098,-7.0919,-7.0919,-7.0919,-7.0919,-7.0919,-7.0919,-7.0919,-7.0919,-7.0528,-8.7102,-8.7095,-8.7017,-8.7056,-8.7095,-8.7173,-8.7212,-8.7251,-8.7486,-8.7642,-8.7837,-8.8579,-8.8266,-8.7642,-8.7407,-8.7486,-8.7876,-8.8774,-8.8794,-8.8521,-8.8455,-8.8279,-8.8133,-8.8167,-8.9085,-8.9979,-9.0864,-9.1133,-9.121,-9.1248,-9.1479,-9.2018,-9.1902,-9.1556,-9.1902,-9.1864,-9.1441,-9.129,-9.141,-9.1337,-9.0933,-9.0409,-9.0132,-9.0079,-8.9931,-9.0187,-9.0578,-9.0622,-9.0294,-8.9488,-8.8206,-8.8353,-8.8793,-8.905,-8.9711,-9.0335,-9.1069,-9.1216,-9.1436,-9.1473,-9.151,-9.1583,-9.162,-9.0842,-8.9378,-8.8401,-8.7628,-8.6821,-8.631,-8.5749,-8.5442,-8.476,-8.3905,-8.3362,-8.2888,-8.2751,-8.2613,-8.2509,-8.2475,-8.2408,-8.1866,-8.1359,-8.1156,-8.1156,-8.0987,-8.0716,-8.0648,-8.0716,-8.0953,-8.1629,-8.2035,-8.2509,-8.2915,-8.3219,-8.3693,-8.4065,-8.4606,-8.419,-8.3172,-7.9347,-7.5951,-7.319,-7.1448,-7.1158,-7.0919,-7.0919,-7.0919,-7.0919,-7.0919,-7.0949,-7.0919,-7.0919,-7.0919,-7.0789,-7.0498,-8.5885,-8.5299,-8.5299,-8.5338,-8.5456,-8.608,-8.6353,-8.6627,-8.7915,-8.8461,-8.8657,-8.9164,-8.8969,-8.7446,-8.7407,-8.772,-8.8579,-8.932,-8.9125,-8.8735,-8.9045,-8.8342,-8.7987,-8.8429,-8.9508,-9.0364,-9.0979,-9.1133,-9.1056,-9.1095,-9.1248,-9.1479,-9.1441,-9.1325,-9.1479,-9.1518,-9.1748,-9.1446,-9.1145,-9.1128,-9.0342,-9.007,-9.0201,-8.9831,-8.922,-8.8642,-8.8262,-8.8014,-8.7798,-8.7435,-8.7288,-8.7399,-8.7839,-8.8536,-8.9197,-8.9895,-9.0592,-9.0996,-9.1143,-9.1069,-9.1033,-9.0776,-9.0557,-8.9788,-8.849,-8.7393,-8.6524,-8.5589,-8.5028,-8.4483,-8.4042,-8.3292,-8.2542,-8.2547,-8.2344,-8.2886,-8.3016,-8.2949,-8.2847,-8.234,-8.1629,-8.1088,-8.0547,-8.0547,-8.0547,-8.0344,-8.0344,-8.0412,-8.0513,-8.1122,-8.1765,-8.234,-8.2949,-8.3761,-8.4302,-8.4302,-8.4573,-8.4263,-8.2945,-7.9333,-7.5807,-7.2519,-7.1111,-7.0929,-7.0919,-7.0919,-7.0919,-7.0919,-7.1009,-7.1009,-7.0949,-7.0919,-7.0919,-7.0789,-7.0528]}]]